[[{"header":{"parameterUnit":"m.s-1","parameterCategory":1,"la1":30.6,"la2":29.2853,"lo1":-89.7004,"lo2":-87.6739,"dy":0.0162,"dx":0.0183,"nx":112,"ny":82,"refTime":"2024-04-27T12:00:00:Z","depth":0,"parameterNumber":2,"parameterNumberName":"U-component_of_WINDS"},"data":[0.0,0.0,0.0,0.0,0.0,0.0,0.0,0.0,0.0,0.0,0.0,0.0,0.0,0.0,0.0,0.0,0.0,0.0,0.0,0.0,0.0,0.0,0.0,0.0,0.0,0.0,0.0,0.0,0.0,0.0,0.0,0.0,0.0,0.0,0.0,0.0,0.0,0.0,0.0,0.0,0.0,0.0,0.0,0.0,0.0,0.0,0.0,0.0,0.0,0.0,0.0,0.0,0.0,0.0,0.0,0.0,0.0,0.0,0.0,0.0,0.0,0.0,0.0,0.0,0.0,0.0,0.0,0.0,0.0,0.0,0.0,0.0,0.0,0.0,0.0,0.0,0.0,0.0,0.0,0.0,0.0,0.0,0.0,0.0,0.0,0.0,0.0,0.0,0.0,0.0,-5.2505,-5.4845,-5.5686,-5.6085,-5.6085,-5.6085,-5.5365,-5.3701,0.0,0.0,0.0,0.0,0.0,0.0,0.0,0.0,0.0,0.0,0.0,0.0,0.0,0.0,0.0,0.0,0.0,0.0,0.0,0.0,0.0,0.0,0.0,0.0,0.0,0.0,0.0,0.0,0.0,0.0,0.0,0.0,0.0,0.0,0.0,0.0,0.0,0.0,0.0,0.0,0.0,0.0,0.0,0.0,0.0,0.0,0.0,0.0,0.0,0.0,0.0,0.0,0.0,0.0,0.0,0.0,0.0,0.0,0.0,0.0,0.0,0.0,0.0,0.0,0.0,0.0,0.0,0.0,0.0,0.0,0.0,0.0,0.0,0.0,0.0,0.0,0.0,0.0,0.0,0.0,0.0,0.0,0.0,0.0,0.0,0.0,0.0,0.0,0.0,0.0,0.0,0.0,0.0,0.0,0.0,0.0,0.0,0.0,0.0,0.0,0.0,0.0,0.0,0.0,-5.3837,-5.4971,-5.4567,-5.4203,-5.4203,-5.4203,-5.3779,-5.2755,0.0,0.0,0.0,0.0,0.0,0.0,0.0,0.0,0.0,0.0,0.0,0.0,0.0,0.0,0.0,0.0,0.0,0.0,0.0,0.0,0.0,0.0,0.0,0.0,0.0,0.0,0.0,0.0,0.0,0.0,0.0,0.0,0.0,0.0,0.0,0.0,0.0,0.0,0.0,0.0,0.0,0.0,0.0,0.0,0.0,0.0,0.0,0.0,0.0,0.0,0.0,0.0,0.0,0.0,0.0,0.0,0.0,0.0,0.0,0.0,0.0,0.0,0.0,0.0,0.0,0.0,0.0,0.0,0.0,0.0,0.0,0.0,0.0,0.0,0.0,0.0,0.0,0.0,0.0,0.0,0.0,0.0,0.0,0.0,0.0,0.0,0.0,0.0,0.0,0.0,0.0,0.0,0.0,0.0,0.0,0.0,0.0,0.0,0.0,0.0,0.0,0.0,0.0,-5.1964,-5.394,-5.4344,-5.4042,-5.3798,-5.3798,-5.3798,-5.3438,-5.2555,-5.2903,0.0,0.0,0.0,0.0,0.0,0.0,0.0,0.0,0.0,0.0,0.0,0.0,0.0,0.0,0.0,0.0,0.0,0.0,0.0,0.0,0.0,0.0,0.0,0.0,0.0,0.0,0.0,0.0,0.0,0.0,0.0,0.0,0.0,0.0,0.0,0.0,0.0,0.0,0.0,0.0,0.0,0.0,0.0,0.0,0.0,0.0,0.0,0.0,0.0,0.0,0.0,0.0,0.0,0.0,0.0,0.0,0.0,0.0,0.0,0.0,0.0,0.0,0.0,0.0,0.0,0.0,0.0,0.0,0.0,0.0,0.0,0.0,0.0,0.0,0.0,0.0,0.0,0.0,0.0,0.0,0.0,0.0,0.0,0.0,0.0,0.0,0.0,0.0,0.0,0.0,0.0,0.0,0.0,0.0,0.0,0.0,0.0,0.0,0.0,0.0,0.0,0.0,-5.1708,-5.2958,-5.3404,-5.3287,-5.3185,-5.3185,-5.318,-5.2897,-5.2233,-5.2194,0.0,0.0,0.0,0.0,0.0,0.0,0.0,0.0,0.0,0.0,0.0,0.0,0.0,0.0,0.0,0.0,0.0,0.0,0.0,0.0,0.0,0.0,0.0,0.0,0.0,0.0,0.0,0.0,0.0,0.0,0.0,0.0,0.0,0.0,0.0,0.0,0.0,0.0,0.0,0.0,0.0,0.0,0.0,0.0,0.0,0.0,0.0,0.0,0.0,0.0,0.0,0.0,0.0,0.0,0.0,0.0,0.0,0.0,0.0,0.0,0.0,0.0,0.0,0.0,0.0,0.0,0.0,0.0,0.0,0.0,0.0,0.0,0.0,0.0,0.0,0.0,0.0,0.0,0.0,0.0,0.0,0.0,0.0,0.0,0.0,0.0,0.0,0.0,0.0,0.0,0.0,0.0,0.0,0.0,0.0,0.0,0.0,0.0,0.0,0.0,0.0,0.0,-5.0198,-5.0475,-5.2219,-5.1785,-5.1389,-5.1389,-5.1381,-5.1363,-5.1299,-5.128,0.0,0.0,0.0,0.0,0.0,0.0,0.0,0.0,0.0,0.0,0.0,0.0,0.0,0.0,0.0,0.0,0.0,0.0,0.0,0.0,0.0,0.0,0.0,0.0,0.0,0.0,0.0,0.0,0.0,0.0,0.0,0.0,0.0,0.0,0.0,0.0,0.0,0.0,0.0,0.0,0.0,0.0,0.0,0.0,0.0,0.0,0.0,0.0,0.0,0.0,0.0,0.0,0.0,0.0,0.0,0.0,0.0,0.0,0.0,0.0,0.0,0.0,0.0,0.0,0.0,0.0,0.0,0.0,0.0,0.0,0.0,0.0,0.0,0.0,0.0,0.0,0.0,0.0,0.0,0.0,0.0,0.0,0.0,0.0,0.0,0.0,0.0,0.0,0.0,0.0,0.0,0.0,0.0,0.0,0.0,0.0,0.0,0.0,0.0,0.0,0.0,0.0,-4.9686,-5.0435,-5.1273,-5.1072,-5.0949,-5.1056,-5.1089,-5.1108,-5.1192,0.0,0.0,0.0,0.0,0.0,0.0,0.0,0.0,0.0,0.0,0.0,0.0,0.0,0.0,0.0,0.0,0.0,0.0,0.0,0.0,0.0,0.0,0.0,0.0,0.0,0.0,0.0,0.0,0.0,0.0,0.0,0.0,0.0,0.0,0.0,0.0,0.0,0.0,0.0,0.0,0.0,0.0,0.0,0.0,0.0,0.0,0.0,0.0,0.0,0.0,0.0,0.0,0.0,0.0,0.0,0.0,0.0,0.0,0.0,0.0,0.0,0.0,0.0,0.0,0.0,0.0,0.0,0.0,0.0,0.0,0.0,0.0,0.0,0.0,0.0,0.0,0.0,0.0,0.0,0.0,0.0,0.0,0.0,0.0,0.0,0.0,0.0,0.0,0.0,0.0,0.0,0.0,0.0,0.0,0.0,0.0,0.0,0.0,0.0,0.0,0.0,0.0,-4.7853,-4.9264,-5.0411,-5.0653,-5.067,-5.0739,-5.0913,-5.0913,-5.0731,-5.033,0.0,0.0,0.0,0.0,0.0,0.0,0.0,0.0,0.0,0.0,0.0,0.0,0.0,0.0,0.0,0.0,0.0,0.0,0.0,0.0,0.0,0.0,0.0,0.0,0.0,0.0,0.0,0.0,0.0,0.0,0.0,0.0,0.0,0.0,0.0,0.0,0.0,0.0,0.0,0.0,0.0,0.0,0.0,0.0,0.0,0.0,0.0,0.0,0.0,0.0,0.0,0.0,0.0,0.0,0.0,0.0,0.0,0.0,0.0,0.0,0.0,0.0,0.0,0.0,0.0,0.0,0.0,0.0,0.0,0.0,0.0,0.0,0.0,0.0,0.0,0.0,0.0,0.0,0.0,0.0,0.0,0.0,0.0,0.0,0.0,0.0,0.0,0.0,0.0,0.0,0.0,0.0,0.0,0.0,0.0,0.0,0.0,0.0,0.0,0.0,0.0,0.0,-4.7384,-4.8872,-5.0035,-5.0353,-5.05,-5.0652,-5.0767,-5.0722,-5.0041,0.0,0.0,0.0,0.0,0.0,0.0,0.0,0.0,0.0,0.0,0.0,0.0,0.0,0.0,0.0,0.0,0.0,0.0,0.0,0.0,0.0,0.0,0.0,0.0,0.0,0.0,0.0,0.0,0.0,0.0,0.0,0.0,0.0,0.0,0.0,0.0,0.0,0.0,0.0,0.0,0.0,0.0,0.0,0.0,0.0,0.0,0.0,0.0,0.0,0.0,0.0,0.0,0.0,0.0,0.0,0.0,0.0,0.0,0.0,0.0,0.0,0.0,0.0,0.0,0.0,0.0,0.0,0.0,0.0,0.0,0.0,0.0,0.0,0.0,0.0,0.0,0.0,0.0,0.0,0.0,0.0,0.0,0.0,0.0,0.0,0.0,0.0,0.0,0.0,0.0,0.0,0.0,0.0,0.0,0.0,0.0,0.0,0.0,0.0,0.0,0.0,0.0,0.0,-4.7238,-4.8729,-4.9828,-5.0031,-5.0088,-5.0225,-5.0489,-5.0489,-4.9874,-4.8419,0.0,0.0,0.0,0.0,0.0,0.0,0.0,0.0,0.0,0.0,0.0,0.0,0.0,0.0,0.0,0.0,0.0,0.0,0.0,0.0,0.0,0.0,0.0,0.0,0.0,0.0,0.0,0.0,0.0,0.0,0.0,0.0,0.0,0.0,0.0,0.0,0.0,0.0,0.0,0.0,0.0,0.0,0.0,0.0,0.0,0.0,0.0,0.0,0.0,0.0,0.0,0.0,0.0,0.0,0.0,0.0,0.0,0.0,0.0,0.0,0.0,0.0,0.0,0.0,0.0,0.0,0.0,0.0,0.0,0.0,0.0,0.0,0.0,0.0,0.0,0.0,0.0,0.0,0.0,0.0,0.0,0.0,0.0,0.0,0.0,0.0,0.0,0.0,0.0,0.0,0.0,0.0,0.0,0.0,0.0,0.0,0.0,0.0,0.0,0.0,0.0,0.0,-4.7104,-4.8587,-4.9663,-4.9802,-4.9816,-4.9933,-5.0186,-5.0256,-4.9652,-4.8191,0.0,0.0,0.0,0.0,0.0,0.0,0.0,0.0,0.0,0.0,0.0,0.0,0.0,0.0,0.0,0.0,0.0,0.0,0.0,0.0,0.0,0.0,0.0,0.0,0.0,0.0,0.0,0.0,0.0,0.0,0.0,0.0,0.0,0.0,0.0,0.0,0.0,0.0,0.0,0.0,0.0,0.0,0.0,0.0,0.0,0.0,0.0,0.0,0.0,0.0,0.0,0.0,0.0,0.0,0.0,0.0,0.0,0.0,0.0,0.0,0.0,0.0,0.0,0.0,0.0,0.0,0.0,0.0,0.0,0.0,0.0,0.0,0.0,0.0,0.0,0.0,0.0,0.0,0.0,0.0,0.0,0.0,0.0,0.0,0.0,0.0,0.0,0.0,0.0,0.0,0.0,0.0,0.0,0.0,0.0,0.0,0.0,0.0,0.0,0.0,0.0,0.0,-4.7012,-4.8457,-4.9551,-4.9682,-4.9678,-4.9736,-4.9871,-4.9992,-4.9409,-4.7865,0.0,0.0,0.0,0.0,0.0,0.0,0.0,0.0,0.0,0.0,0.0,0.0,0.0,0.0,0.0,0.0,0.0,0.0,0.0,0.0,0.0,0.0,0.0,0.0,0.0,0.0,0.0,0.0,0.0,0.0,0.0,0.0,0.0,0.0,0.0,0.0,0.0,0.0,0.0,0.0,0.0,0.0,0.0,0.0,0.0,0.0,0.0,0.0,0.0,0.0,0.0,0.0,0.0,0.0,0.0,0.0,0.0,0.0,0.0,0.0,-5.434,-5.4979,0.0,0.0,0.0,0.0,0.0,0.0,0.0,0.0,0.0,0.0,0.0,0.0,0.0,0.0,0.0,0.0,0.0,0.0,0.0,0.0,0.0,0.0,0.0,0.0,0.0,0.0,0.0,0.0,0.0,0.0,0.0,0.0,0.0,0.0,0.0,0.0,0.0,0.0,0.0,0.0,-4.7087,-4.8457,-4.9505,-4.9536,-4.9536,-4.9593,-4.9736,-4.9778,-4.9129,-4.7587,-4.751,0.0,0.0,0.0,0.0,0.0,0.0,0.0,0.0,0.0,0.0,0.0,0.0,0.0,0.0,0.0,0.0,0.0,0.0,0.0,0.0,0.0,0.0,0.0,0.0,0.0,0.0,0.0,0.0,0.0,0.0,0.0,0.0,0.0,0.0,0.0,0.0,0.0,0.0,0.0,0.0,0.0,0.0,0.0,0.0,0.0,0.0,0.0,0.0,0.0,0.0,0.0,0.0,0.0,0.0,0.0,0.0,0.0,0.0,0.0,-5.3824,-5.4203,0.0,0.0,0.0,0.0,0.0,0.0,0.0,0.0,0.0,0.0,0.0,0.0,0.0,0.0,0.0,0.0,0.0,0.0,0.0,0.0,0.0,0.0,0.0,0.0,0.0,0.0,0.0,0.0,0.0,0.0,0.0,0.0,0.0,0.0,0.0,0.0,0.0,0.0,0.0,0.0,-4.7049,-4.8457,-4.9509,-4.9509,-4.9509,-4.9521,-4.9593,-4.9648,-4.9363,-4.8564,-4.7844,0.0,0.0,0.0,0.0,0.0,0.0,0.0,0.0,0.0,0.0,0.0,0.0,0.0,0.0,0.0,0.0,0.0,0.0,0.0,0.0,0.0,0.0,0.0,0.0,0.0,0.0,0.0,0.0,0.0,0.0,0.0,0.0,0.0,0.0,0.0,0.0,0.0,0.0,0.0,0.0,0.0,0.0,0.0,0.0,0.0,0.0,0.0,0.0,0.0,0.0,0.0,0.0,0.0,-5.1546,-5.1743,-5.1731,-5.1104,-5.1538,-5.2728,-5.3009,-5.3107,-5.3043,-5.2669,0.0,0.0,0.0,0.0,0.0,0.0,0.0,0.0,0.0,0.0,0.0,0.0,0.0,0.0,0.0,0.0,0.0,0.0,0.0,0.0,0.0,0.0,-4.7156,-4.8085,-4.7966,-4.7755,-4.8118,0.0,0.0,0.0,0.0,0.0,0.0,0.0,0.0,0.0,0.0,0.0,-4.7064,-4.8359,-4.9313,-4.9313,-4.9361,-4.9393,-4.9409,-4.9593,-4.9678,-4.9692,-4.8575,-4.7757,0.0,0.0,0.0,0.0,0.0,0.0,0.0,0.0,0.0,0.0,0.0,0.0,0.0,0.0,0.0,0.0,0.0,0.0,0.0,0.0,0.0,0.0,0.0,0.0,0.0,0.0,0.0,0.0,0.0,0.0,0.0,0.0,-5.1288,-5.1672,0.0,0.0,0.0,0.0,0.0,0.0,0.0,0.0,0.0,0.0,0.0,0.0,0.0,-4.9759,-4.9833,-5.0768,-5.1244,-5.1286,-5.2037,-5.2497,-5.2695,-5.2619,-5.2339,-5.1924,-5.147,0.0,-5.2921,-5.2747,0.0,0.0,0.0,0.0,0.0,0.0,0.0,0.0,0.0,0.0,0.0,0.0,0.0,0.0,0.0,0.0,0.0,0.0,0.0,0.0,0.0,0.0,-4.7017,-4.7191,-4.6561,-4.6172,-4.7132,-4.6752,-4.6171,-4.599,-4.5474,-4.5234,0.0,0.0,0.0,0.0,0.0,0.0,-4.7289,-4.8013,-4.855,-4.855,-4.8746,-4.8937,-4.9059,-4.9402,-4.9653,-4.9692,-4.9514,-4.8809,-4.7459,-4.8825,0.0,0.0,0.0,0.0,0.0,0.0,0.0,0.0,0.0,0.0,0.0,0.0,0.0,0.0,0.0,0.0,0.0,0.0,0.0,0.0,0.0,0.0,0.0,0.0,0.0,0.0,0.0,0.0,0.0,-5.1463,-5.1349,-5.1505,-5.1248,-5.0928,0.0,0.0,0.0,0.0,0.0,0.0,0.0,0.0,0.0,-5.1025,-5.1064,-5.0819,-5.021,-5.1146,-5.1498,-5.1186,-5.1755,-5.1871,-5.1616,-5.1616,-5.1497,-5.1282,-5.1004,-5.1232,-5.1728,-5.1141,-5.0784,-5.0544,0.0,0.0,0.0,0.0,-4.8455,-4.8522,-4.8462,-4.8692,-4.8994,-4.9036,0.0,0.0,0.0,0.0,0.0,0.0,0.0,-4.5293,-4.5628,-4.6025,-4.6444,-4.689,-4.6684,-4.6524,-4.6994,-4.6488,-4.6009,-4.6301,-4.6027,-4.5809,-4.5901,-4.6448,0.0,0.0,0.0,-4.7455,-4.7313,-4.7997,-4.8514,-4.8514,-4.855,-4.8622,-4.8766,-4.887,-4.8973,-4.9075,-4.9125,-4.8837,-4.8172,-4.8899,-4.8243,0.0,0.0,0.0,0.0,0.0,0.0,0.0,0.0,0.0,0.0,0.0,0.0,0.0,0.0,0.0,0.0,0.0,0.0,0.0,0.0,0.0,0.0,0.0,0.0,0.0,0.0,0.0,0.0,-5.1564,-5.1161,-5.0925,-5.066,-5.0343,0.0,0.0,0.0,0.0,0.0,0.0,-5.0429,-5.0493,-5.042,-5.0213,-5.0741,-5.0714,-5.011,-5.0933,-5.1176,-5.088,-5.1113,-5.1,-5.0547,-5.0547,-5.062,-5.0764,-5.0819,-5.0819,-5.0766,-5.0124,-4.9798,-4.9682,-4.9253,-4.8863,-4.8468,-4.8184,-4.8317,-4.8643,-4.8544,-4.8642,-4.8819,-4.8862,-4.8183,-4.736,-4.7459,0.0,0.0,0.0,0.0,-4.4943,-4.548,-4.576,-4.6044,-4.6653,-4.6795,-4.6819,-4.6888,-4.626,-4.5878,-4.6579,-4.6517,-4.6273,-4.5988,-4.6561,0.0,-4.6176,-4.6728,-4.7261,-4.7371,-4.794,-4.8326,-4.8326,-4.8307,-4.8364,-4.8458,-4.8477,-4.8532,-4.8641,-4.8713,-4.873,-4.873,-4.8832,-4.8288,-4.7029,0.0,0.0,0.0,0.0,0.0,0.0,0.0,0.0,0.0,0.0,0.0,0.0,0.0,0.0,0.0,0.0,0.0,0.0,0.0,0.0,0.0,0.0,0.0,0.0,0.0,0.0,0.0,0.0,0.0,-5.0173,-5.0457,0.0,0.0,0.0,0.0,-4.7588,-4.7538,-4.7588,-4.777,-4.7803,-4.7803,-4.777,-4.7803,-4.813,-4.8801,-4.8866,-4.9328,-5.0241,-5.0269,-5.0309,-5.0397,-5.0397,-5.0415,-5.0443,-5.0547,-5.063,-5.063,-5.0766,-5.0838,-5.0653,-4.9144,-4.853,-4.8319,-4.6846,-4.6818,-4.7475,-4.7475,-4.7949,-4.8521,-4.8521,-4.7678,-4.6513,-4.5776,-4.512,0.0,0.0,-4.4837,-4.5322,-4.5176,-4.5648,-4.6193,-4.6246,-4.6246,-4.6319,-4.6566,-4.5935,-4.5617,-4.6605,-4.6189,-4.5677,-4.5775,0.0,-4.6409,-4.631,-4.6653,-4.7102,-4.762,-4.76,-4.7554,-4.7554,-4.7829,-4.8053,-4.8134,-4.8477,-4.8712,-4.8781,-4.8799,-4.8799,-4.8799,-4.8799,-4.8779,-4.8669,-4.7177,0.0,0.0,0.0,0.0,0.0,0.0,0.0,0.0,0.0,0.0,0.0,0.0,0.0,0.0,0.0,0.0,0.0,0.0,0.0,0.0,0.0,0.0,0.0,0.0,0.0,0.0,0.0,0.0,-4.9085,-4.9273,0.0,-4.8466,-4.7735,-4.736,-4.7505,-4.7203,-4.7467,-4.8431,-4.8498,-4.8498,-4.8498,-4.8498,-4.8414,-4.8193,-4.8193,-4.8589,-4.9372,-4.9372,-4.9686,-5.0274,-4.9774,-4.9639,-4.9744,-4.9803,-4.9832,-4.9873,-5.0446,-5.0476,-5.0039,-4.902,-4.8572,-4.8425,-4.7881,-4.7846,-4.8117,-4.8117,-4.7977,-4.7713,-4.7179,-4.6727,-4.6308,-4.6009,-4.5775,-4.5611,-4.5558,-4.5727,-4.5897,-4.5817,-4.6003,-4.6221,-4.6301,-4.6253,-4.6246,-4.6447,-4.6156,-4.5978,-4.6339,-4.5953,-4.5605,-4.565,-4.628,-4.6573,-4.5944,-4.659,-4.7214,-4.7414,-4.7554,-4.7636,-4.7636,-4.766,-4.7705,-4.7829,-4.7893,-4.7975,-4.8093,-4.8093,-4.8093,-4.8093,-4.8093,-4.8093,-4.8093,-4.7528,-4.6211,0.0,0.0,0.0,0.0,0.0,0.0,0.0,0.0,0.0,0.0,0.0,0.0,0.0,0.0,0.0,0.0,0.0,0.0,0.0,0.0,0.0,0.0,0.0,0.0,0.0,-4.8388,-4.8268,-4.8085,-4.8083,-4.7898,-4.7516,-4.6802,-4.6512,-4.6949,-4.6655,-4.6899,-4.7872,-4.7923,-4.7923,-4.7923,-4.7923,-4.7796,-4.7522,-4.7522,-4.7868,-4.8572,-4.8572,-4.8869,-4.9419,-4.8914,-4.8624,-4.8528,-4.8843,-4.8839,-4.8663,-4.9315,-4.9336,-4.89,-4.8776,-4.8491,-4.815,-4.7887,-4.7756,-4.7723,-4.7723,-4.7415,-4.6906,-4.6372,-4.6196,-4.6196,-4.6196,-4.6196,-4.6196,-4.6196,-4.6196,-4.6196,-4.6196,-4.6196,-4.6221,-4.6374,-4.6326,-4.6301,-4.6447,-4.6156,-4.5971,-4.6217,-4.6017,-4.574,-4.5549,-4.6049,-4.6211,-4.5499,-4.5992,-4.6442,-4.6529,-4.6827,-4.7093,-4.7196,-4.7327,-4.7511,-4.7678,-4.734,-4.7265,-4.766,-4.7404,-4.7386,-4.7678,-4.7404,-4.7238,-4.7238,-4.6925,-4.5897,-4.4095,0.0,0.0,0.0,0.0,0.0,0.0,0.0,0.0,0.0,0.0,0.0,0.0,0.0,0.0,0.0,0.0,0.0,0.0,0.0,0.0,0.0,0.0,0.0,-4.8081,-4.7896,-4.7485,-4.7273,-4.6993,-4.646,-4.5578,-4.5698,-4.5807,-4.5807,-4.5807,-4.5807,-4.5807,-4.5807,-4.5807,-4.5807,-4.5807,-4.612,-4.6742,-4.6777,-4.7153,-4.7852,-4.7852,-4.7885,-4.7885,-4.7885,-4.7487,-4.6858,-4.7683,-4.7679,-4.7124,-4.7477,-4.7551,-4.7497,-4.8319,-4.8181,-4.7467,-4.668,-4.6277,-4.6147,-4.6112,-4.613,-4.6147,-4.6147,-4.6147,-4.6147,-4.6147,-4.6147,-4.6147,-4.6147,-4.6147,-4.6172,-4.6172,-4.6196,-4.6246,-4.635,-4.6381,-4.6405,-4.6542,-4.5882,-4.5487,-4.6192,-4.6228,-4.6,-4.5511,-4.5416,-4.5328,-4.5081,-4.4886,0.0,-4.5015,-4.5513,-4.5952,-4.6226,-4.6834,-4.7389,-4.7657,-4.6832,-4.6705,-4.7621,-4.6832,-4.672,-4.766,-4.6813,-4.6356,-4.6338,-4.5477,-4.5503,-4.6468,0.0,0.0,0.0,0.0,0.0,0.0,0.0,0.0,0.0,0.0,0.0,0.0,0.0,0.0,0.0,0.0,0.0,0.0,0.0,0.0,0.0,-4.5188,-4.5877,-4.6313,-4.6734,-4.6708,-4.5872,-4.6376,-4.6497,-4.5798,-4.5771,-4.5807,-4.5807,-4.5807,-4.5807,-4.5807,-4.5807,-4.5807,-4.5807,-4.5807,-4.59,-4.6064,-4.6048,-4.6407,-4.7119,-4.7119,-4.7389,-4.7885,-4.7355,-4.7005,-4.6826,-4.7055,-4.7056,-4.6944,-4.7666,-4.773,-4.74,-4.7343,-4.7126,-4.6795,-4.6192,-4.5615,-4.503,-4.4384,-4.4485,-4.4903,-4.4903,-4.4903,-4.4903,-4.4903,-4.4903,-4.4903,-4.4903,-4.5214,-4.5546,-4.5546,-4.5945,-4.6277,-4.6038,-4.5963,-4.587,-4.558,-4.5243,-4.5043,-4.5144,-4.5125,-4.5285,-4.5874,-4.5978,-4.5956,-4.587,-4.5976,-4.6092,-4.6161,-4.647,-4.6753,-4.6974,-4.6672,-4.6712,-4.7353,-4.6647,-4.6453,-4.7147,-4.6963,-4.6994,-4.7407,-4.7169,-4.7104,-4.731,-4.5933,-4.5337,0.0,0.0,0.0,0.0,0.0,0.0,0.0,0.0,0.0,0.0,0.0,0.0,0.0,0.0,0.0,0.0,0.0,0.0,0.0,0.0,0.0,0.0,-4.4251,-4.4954,-4.5032,-4.5671,-4.598,-4.5647,-4.6076,-4.6308,-4.6124,-4.6181,-4.6308,-4.6481,-4.6602,-4.6692,-4.6692,-4.6692,-4.655,-4.6234,-4.6218,-4.6092,-4.5807,-4.5807,-4.6008,-4.6372,-4.6372,-4.6617,-4.7015,-4.6582,-4.6196,-4.5923,-4.6244,-4.6196,-4.5993,-4.6903,-4.711,-4.6847,0.0,0.0,0.0,0.0,-4.5125,-4.464,-4.4181,-4.4262,-4.4535,-4.4535,-4.4535,-4.4507,-4.4434,-4.4215,-4.3961,-4.3961,-4.4014,-4.4137,-4.4489,-4.4906,-4.5275,-4.5451,-4.5511,-4.5442,-4.5241,-4.4841,-4.4588,-4.4749,-4.4463,0.0,-4.5294,-4.5406,-4.5386,-4.5404,-4.5446,-4.55,-4.5611,-4.5981,-4.6275,-4.6467,-4.6382,-4.6534,-4.7129,-4.6386,0.0,0.0,0.0,-4.648,-4.6574,-4.6597,0.0,0.0,0.0,-4.5165,-4.5755,-4.5165,0.0,0.0,-4.5323,-4.4955,0.0,0.0,0.0,0.0,0.0,0.0,0.0,0.0,0.0,0.0,0.0,0.0,0.0,0.0,0.0,0.0,-4.3645,-4.4186,-4.4282,-4.4879,-4.5481,-4.601,-4.5937,-4.6045,-4.6476,-4.6705,-4.6979,-4.7439,-4.7671,-4.7817,-4.7817,-4.7817,0.0,0.0,0.0,-4.6592,-4.6044,-4.5965,-4.5918,-4.5918,-4.5855,-4.5807,-4.5807,-4.5807,-4.546,-4.4875,-4.5523,-4.5444,-4.4891,-4.5718,-4.6028,-4.6039,-4.6507,-4.635,-4.5727,-4.4998,-4.465,-4.4552,-4.4561,0.0,0.0,-4.4524,-4.4524,-4.4468,-4.4294,-4.3811,-4.3344,-4.3344,-4.2926,-4.2634,-4.3437,-4.3705,-4.3966,-4.482,-4.5028,-4.5054,-4.5108,-4.4514,-4.4107,-4.461,-4.402,-4.3629,-4.4204,-4.4275,-4.4248,-4.4302,-4.4103,-4.4038,-4.4284,-4.4734,-4.5113,-4.5299,-4.5893,0.0,-4.6737,-4.5893,-4.5769,-4.6747,-4.612,-4.5706,-4.5706,-4.5683,-4.5454,-4.4979,-4.4604,-4.5058,-4.6425,-4.6147,-4.6568,-4.7536,-4.6124,-4.5815,0.0,0.0,0.0,0.0,0.0,0.0,0.0,0.0,0.0,0.0,0.0,0.0,0.0,0.0,0.0,-4.2602,-4.3928,-4.4862,-4.4377,-4.5173,-4.5624,-4.5212,-4.5863,-4.65,-4.6811,-4.6866,-4.699,-4.7239,-4.7294,-4.7348,-4.7348,-4.7348,-4.7347,-4.7375,-4.7359,-4.7404,-4.7498,-4.6898,-4.6613,-4.6597,-4.606,0.0,-4.5807,-4.5807,-4.5728,-4.5602,-4.5744,-4.5728,-4.5602,-4.578,-4.5675,-4.5424,-4.5824,-4.5751,-4.5255,-4.4007,-4.3568,-4.3542,-4.2874,-4.298,-4.3413,-4.3413,-4.3413,-4.3399,-4.3235,-4.3106,0.0,-4.2991,-4.3247,-4.3583,-4.3848,-4.4342,-4.4749,-4.4524,-4.453,-4.4485,-4.4018,-4.3802,-4.3619,-4.3486,-4.3297,-4.3291,-4.3597,-4.4046,-4.4357,-4.4385,-4.4323,-4.4323,-4.4377,-4.446,-4.4636,-4.4878,-4.4483,-4.4475,-4.5182,-4.4466,-4.4458,-4.5562,-4.6125,-4.6407,-4.6407,-4.614,-4.6004,-4.6012,-4.5361,-4.5306,-4.5863,-4.6123,-4.6424,-4.6753,-4.7079,-4.7068,0.0,0.0,0.0,0.0,0.0,0.0,0.0,0.0,0.0,0.0,0.0,-4.2201,-4.1542,0.0,-4.1983,-4.2351,-4.3234,-4.4062,-4.4706,-4.5545,-4.5917,-4.5465,-4.6039,-4.6662,-4.7071,-4.7287,-4.753,-4.7896,-4.8126,-4.8246,-4.8246,-4.8246,-4.8129,-4.7919,-4.7919,-4.7824,-4.7709,-4.7347,-4.7022,-4.6803,-4.6455,-4.6123,-4.5807,-4.5807,-4.5807,-4.5807,-4.5807,-4.5735,-4.5662,-4.5662,-4.5674,-4.562,-4.5194,-4.4799,-4.4401,-4.3664,-4.3251,-4.2988,-4.281,-4.2865,-4.3007,-4.3082,-4.3052,-4.2976,-4.293,-4.2655,-4.2362,-4.2362,-4.237,-4.251,-4.302,-4.3404,-4.3732,-4.3922,-4.4006,-4.3948,-4.3687,-4.3598,-4.3539,-4.3312,-4.3174,-4.3127,-4.3171,-4.3366,-4.3689,-4.4322,-4.4406,-4.4406,-4.4406,-4.4406,-4.4445,-4.4578,-4.4228,-4.416,-4.4572,-4.4228,-4.4232,-4.4814,-4.5276,-4.5511,-4.5511,-4.5338,-4.5373,-4.5699,-4.5216,-4.5189,-4.5699,-4.5767,-4.59,-4.6098,-4.6501,-4.673,0.0,0.0,0.0,0.0,0.0,0.0,0.0,-4.2746,-4.2545,-4.2425,-4.25,-4.2267,-4.1324,-4.116,-4.1549,-4.2785,-4.3084,-4.3673,-4.5274,-4.6082,-4.6419,-4.618,-4.6448,-4.6855,-4.7296,-4.7656,-4.8019,-4.8449,-4.8867,-4.9113,-4.9113,-4.9153,-4.896,-4.8431,-4.8415,-4.8254,-4.7855,-4.773,-4.7422,-4.6918,-4.6792,-4.6418,-4.5807,-4.5807,-4.5807,-4.5807,-4.5807,-4.5698,-4.5515,-4.5515,-4.5662,-4.5825,-4.4626,-4.3952,-4.3638,-4.3518,-4.3129,-4.2728,-4.319,-4.316,-4.2945,-4.3113,-4.3099,-4.2992,-4.2961,-4.2507,-4.205,-4.205,-4.1746,-4.1583,-4.2334,-4.2558,-4.2736,-4.342,-4.3598,-4.3598,-4.3598,-4.3598,-4.3568,-4.3449,-4.3265,-4.3113,-4.2945,-4.279,-4.3005,-4.3922,-4.4066,-4.4066,-4.4066,-4.4066,-4.4066,-4.4066,-4.4066,-4.4066,-4.4066,-4.4152,-4.4237,-4.4237,-4.435,-4.4406,-4.4406,-4.4294,-4.4418,-4.4892,-4.4524,-4.4646,-4.5285,-4.5153,-4.5224,-4.5459,-4.5494,-4.58,-4.1884,-4.1175,-4.101,-4.2216,-4.2455,-4.2261,0.0,-4.2447,-4.306,-4.2515,-4.2821,-4.3319,-4.3793,-4.3868,-4.4122,-4.484,-4.5484,-4.5963,-4.6172,-4.6785,-4.716,-4.7128,-4.7156,-4.7315,-4.7561,-4.7603,-4.7746,-4.8049,-4.8286,-4.8412,-4.8412,-4.8578,-4.8754,-4.8928,-4.8928,-4.9004,-4.9081,-4.8504,-4.7942,-4.7399,-4.6825,-4.627,-4.5807,-4.5807,-4.5807,-4.5807,-4.5807,-4.5698,-4.5515,-4.5515,-4.5442,-4.5227,-4.4297,-4.373,-4.339,-4.3104,-4.293,-4.2899,-4.3082,-4.3113,-4.3113,-4.3312,-4.3358,-4.3312,-4.3143,-4.3017,-4.2951,-4.2951,-4.2902,-4.2961,-4.336,-4.3436,-4.3499,-4.3582,-4.3598,-4.3598,-4.3598,-4.3598,-4.3568,-4.3449,-4.3372,-4.3312,-4.3113,-4.3052,-4.299,-4.2836,-4.2789,-4.2789,-4.2789,-4.2789,-4.2789,-4.2789,-4.2789,-4.2789,-4.2789,-4.329,-4.3601,-4.3601,-4.4107,-4.4406,-4.4406,-4.3893,-4.3748,-4.4117,-4.3429,-4.3325,-4.3831,-4.4157,-4.4423,-4.4625,-4.4763,-4.4838,-4.1519,-4.1743,-4.2147,-4.2366,-4.2641,-4.2851,-4.2581,-4.2901,-4.3215,-4.2985,-4.3449,-4.3988,-4.4272,-4.4003,-4.4172,-4.5663,-4.5484,-4.5559,-4.6741,-4.713,-4.7309,-4.7309,-4.6965,-4.6726,-4.6854,-4.7284,-4.7458,-4.722,-4.7779,-4.8133,-4.8133,-4.8412,-4.8661,-4.8759,-4.9047,-4.925,-4.9477,-4.909,-4.8482,-4.7709,-4.728,-4.6573,-4.5625,-4.5625,-4.5552,-4.5442,-4.5442,-4.5405,-4.5331,-4.5331,-4.5294,-4.5079,-4.4016,-4.345,-4.3188,-4.2848,-4.2586,-4.2476,-4.2711,-4.2805,-4.2836,-4.3037,-4.3037,-4.2945,-4.2976,-4.2976,-4.3007,-4.3082,-4.3174,-4.3312,-4.3522,-4.3598,-4.3598,-4.3598,-4.3598,-4.3598,-4.3598,-4.3598,-4.3582,-4.3539,-4.3432,-4.3372,-4.3281,-4.3174,-4.3052,-4.2929,-4.2821,-4.2759,-4.2759,-4.2759,-4.2759,-4.2759,-4.2759,-4.2728,-4.2602,-4.282,-4.2988,-4.2988,-4.3216,-4.335,-4.335,-4.3094,-4.3141,-4.3472,-4.3174,-4.3221,-4.3598,-4.3772,-4.3873,-4.3977,-4.4035,-4.4018,-4.1587,-4.2087,-4.2497,-4.2611,-4.2851,-4.312,-4.3245,-4.329,-4.3349,-4.3529,-4.3947,-4.4421,-4.4796,-4.4441,-4.465,-4.6337,-4.5783,-4.5648,-4.71,-4.7309,-4.7234,-4.7055,-4.6621,-4.607,-4.5517,-4.6554,-4.7104,-4.6831,-4.7465,-4.788,-4.788,-4.8244,-4.8495,-4.862,-4.8949,-4.9235,-4.9517,-4.9356,-4.8788,-4.7801,-4.7579,-4.678,-4.5515,-4.5442,-4.5331,-4.5182,-4.5182,-4.5182,-4.5129,-4.5129,-4.5092,-4.4915,-4.3696,-4.3149,-4.2942,-4.2376,-4.2061,-4.1948,-4.2381,-4.2508,-4.2508,-4.2806,-4.2806,-4.2696,-4.2868,-4.2899,-4.293,-4.3052,-4.3204,-4.3372,-4.3568,-4.3598,-4.3598,-4.3598,-4.3598,-4.3598,-4.3598,-4.3598,-4.3598,-4.3598,-4.3539,-4.3479,-4.3479,-4.3281,-4.3082,-4.3052,-4.2945,-4.2899,-4.2945,-4.2961,-4.2961,-4.2961,-4.2961,-4.2883,-4.2743,-4.2743,-4.2711,-4.2696,-4.2728,-4.2711,-4.2665,-4.2728,-4.2867,-4.3174,-4.3174,-4.3312,-4.3598,-4.3598,-4.3598,-4.3598,-4.3598,-4.3539,-4.2021,-4.1467,-4.095,-4.2796,-4.2851,-4.259,-4.3155,-4.329,-4.3469,-4.4152,-4.4302,-4.4721,-4.6022,-4.6204,-4.6456,-4.716,-4.7249,-4.7234,-4.7294,-4.7309,-4.707,-4.6384,-4.6294,-4.5517,-4.3574,-4.52,-4.6606,-4.7219,-4.7495,-4.7624,-4.7624,-4.788,-4.8218,-4.8578,-4.8604,-4.8826,-4.9316,-4.9316,-4.8708,-4.7525,-4.7486,-4.678,-4.5478,-4.5294,-4.522,-4.5182,-4.5182,-4.5092,-4.4911,-4.4911,-4.4799,-4.4524,-4.3298,-4.2829,-4.2658,-4.1566,-4.1221,-4.1423,-4.2142,-4.2286,-4.2206,-4.2744,-4.2899,-4.2899,-4.2899,-4.2899,-4.293,-4.3052,-4.3096,-4.3174,-4.3492,-4.3598,-4.3598,-4.3598,-4.3598,-4.3598,-4.3598,-4.3598,-4.3598,-4.3598,-4.3598,-4.3598,-4.3598,-4.3325,-4.3052,-4.293,-4.2899,-4.2961,-4.3082,-4.3096,-4.3096,-4.3096,-4.3096,-4.3082,-4.3082,-4.3066,-4.3021,-4.2899,-4.299,-4.3021,-4.2899,-4.3037,-4.3174,-4.3372,-4.3372,-4.3462,-4.3598,-4.3598,-4.3598,-4.3598,-4.3598,-4.3598,-4.1055,-4.1698,-4.2467,-4.3125,-4.3125,-4.318,-4.3838,-4.3604,-4.3484,-4.4182,-4.3932,-4.3902,-4.4825,-4.4661,-4.4736,-4.5798,-4.5244,-4.5289,-4.7055,-4.5783,-4.5203,-4.68,-4.5798,-4.5244,-4.5903,-4.6145,-4.5995,-4.5364,-4.6589,-4.7381,-4.7381,-4.7794,-4.8049,-4.8218,-4.8744,-4.9153,-4.9316,-4.9437,-4.8922,-4.7747,-4.6667,-4.5955,-4.5478,-4.5167,-4.5002,-4.5002,-4.5002,-4.4889,-4.4723,-4.4836,-4.4761,-4.4471,-4.3262,-4.2736,-4.2525,-4.1479,-4.095,-4.0885,-4.1784,-4.2061,-4.2142,-4.2302,-4.2381,-4.2381,-4.2381,-4.2476,-4.2634,-4.299,-4.3204,-4.3342,-4.3539,-4.3598,-4.3598,-4.3598,-4.3598,-4.3598,-4.3598,-4.3598,-4.3598,-4.3598,-4.3598,-4.3539,-4.3295,-4.3174,-4.3021,-4.2726,-4.2821,-4.2992,-4.3281,-4.3372,-4.3402,-4.3312,-4.3312,-4.3251,-4.3096,-4.3113,-4.3082,-4.3037,-4.3082,-4.3082,-4.3021,-4.3082,-4.3204,-4.3419,-4.3402,-4.3479,-4.3598,-4.3598,-4.3598,-4.3598,-4.3598,-4.3598,-4.1369,-4.2333,-4.3349,-4.3589,-4.3648,-4.3693,-4.3888,-4.3783,-4.3828,-4.4526,-4.4526,-4.4411,-4.4631,-4.4541,-4.4631,-4.52,-4.4796,-4.5039,-4.7025,-4.5843,-4.5263,-4.6785,-4.5813,-4.5349,-4.6157,-4.6292,-4.5816,-4.4751,-4.5858,-4.6591,-4.6591,-4.6873,-4.7337,-4.7992,-4.8702,-4.9113,-4.9316,-4.9557,-4.908,-4.7877,-4.6249,-4.5515,-4.5478,-4.5167,-4.4722,-4.4287,-4.4694,-4.4558,-4.3991,-4.456,-4.4723,-4.4502,-4.3488,-4.2896,-4.2479,-4.1601,-4.0943,-4.0627,-4.1421,-4.1703,-4.1753,-4.1883,-4.1948,-4.2061,-4.219,-4.2349,-4.2555,-4.3082,-4.3312,-4.3432,-4.3568,-4.3492,-4.3432,-4.3432,-4.3342,-4.3235,-4.3235,-4.3235,-4.3265,-4.3402,-4.3325,-4.3204,-4.3113,-4.2881,-4.2664,-4.2428,-4.2523,-4.2728,-4.3082,-4.3295,-4.3402,-4.3312,-4.3295,-4.3235,-4.3113,-4.3113,-4.3082,-4.3021,-4.319,-4.3265,-4.3204,-4.3235,-4.3342,-4.3479,-4.3462,-4.3492,-4.3598,-4.3598,-4.3598,-4.3598,-4.3598,-4.3598,-4.2692,-4.3275,-4.3499,-4.4197,-4.4347,-4.4152,-4.3484,-4.3828,-4.4481,-4.5065,-4.5693,-4.5918,-4.5274,-4.5603,-4.5813,-4.5319,-4.5708,-4.6337,-4.71,-4.7145,-4.689,-4.6337,-4.6277,-4.5798,-4.4586,-4.5577,-4.6082,-4.5349,-4.5349,-4.5394,-4.5394,-4.5394,-4.6187,-4.7919,-4.837,-4.8785,-4.9235,-4.9559,-4.9118,-4.783,-4.627,-4.5515,-4.5515,-4.5294,-4.4486,-4.3301,-4.4412,-4.413,-4.2994,-4.4161,-4.461,-4.4548,-4.387,-4.3171,-4.2525,-4.1848,-4.114,-4.0558,-4.1088,-4.1189,-4.1171,-4.1456,-4.1719,-4.1931,-4.2254,-4.2476,-4.2665,-4.3221,-4.3372,-4.3372,-4.3539,-4.3295,-4.3066,-4.3066,-4.2851,-4.2617,-4.2617,-4.2617,-4.2679,-4.3005,-4.2803,-4.2679,-4.3005,-4.2523,-4.2077,-4.2077,-4.2077,-4.219,-4.2554,-4.2881,-4.3066,-4.3066,-4.3066,-4.3066,-4.3066,-4.3066,-4.3021,-4.2899,-4.3328,-4.3539,-4.3372,-4.3522,-4.3598,-4.3598,-4.3598,-4.3598,-4.3598,-4.3598,-4.3598,-4.3598,-4.3598,-4.3598,-4.1743,-4.2955,-4.4227,-4.4885,-4.4676,-4.4272,-4.4067,-4.4197,-4.4227,-4.3898,-4.3584,-4.3354,-4.3189,-4.2043,-4.1884,-4.4197,-4.3479,-4.3374,-4.5514,-4.496,-4.4646,-4.5469,-4.5559,-4.5813,-4.6471,-4.686,-4.6561,-4.5394,-4.6232,-4.68,-4.68,-4.68,-4.6993,-4.7452,-4.7922,-4.8202,-4.8343,-4.8062,-4.7619,-4.7071,-4.6145,-4.5735,-4.5698,-4.5515,-4.5238,-4.4888,-4.4884,-4.4763,-4.4594,-4.46,-4.4685,-4.4737,-4.3908,-4.3171,-4.2525,-4.1848,-4.114,-4.0524,-4.0662,-4.0901,-4.1104,-4.1205,-4.1339,-4.1522,-4.1851,-4.2013,-4.2206,-4.2868,-4.2929,-4.282,-4.2851,-4.2772,-4.271,-4.271,-4.2648,-4.2617,-4.2617,-4.2601,-4.2649,-4.271,-4.2476,-4.2254,-4.2333,-4.2013,-4.172,-4.172,-4.172,-4.1932,-4.2522,-4.2679,-4.271,-4.271,-4.2743,-4.2743,-4.2726,-4.271,-4.271,-4.2664,-4.3005,-4.3204,-4.3174,-4.3462,-4.3598,-4.3598,-4.3598,-4.3598,-4.3598,-4.3598,-4.3598,-4.3598,-4.3598,-4.3598,-4.2865,-4.3898,-4.49,-4.5574,-4.5469,-4.4885,-4.3718,-4.3898,-4.3973,-4.2731,-4.2641,-4.2611,-4.2066,-4.1265,-4.1399,-4.3499,-4.3195,-4.3284,-4.505,-4.4661,-4.4466,-4.5214,-4.5289,-4.5828,-4.7174,-4.7309,-4.6995,-4.6232,-4.6337,-4.6426,-4.6426,-4.6426,-4.6696,-4.7279,-4.7767,-4.8023,-4.8091,-4.751,-4.7065,-4.6787,-4.6123,-4.5807,-4.5823,-4.5662,-4.5295,-4.4744,-4.5049,-4.4882,-4.4455,-4.4716,-4.4927,-4.4971,-4.4381,-4.358,-4.2664,-4.2222,-4.1401,-4.0489,-4.0489,-4.0662,-4.0833,-4.0833,-4.1003,-4.1272,-4.1606,-4.1851,-4.2109,-4.2618,-4.2695,-4.2617,-4.2617,-4.2491,-4.2381,-4.2381,-4.2285,-4.2142,-4.2142,-4.2158,-4.2174,-4.2158,-4.2142,-4.2045,-4.1916,-4.172,-4.1588,-4.1588,-4.1588,-4.1753,-4.211,-4.2285,-4.2381,-4.2381,-4.2397,-4.2397,-4.2381,-4.2476,-4.2476,-4.2381,-4.282,-4.3082,-4.299,-4.3342,-4.3492,-4.3492,-4.3568,-4.3598,-4.3598,-4.3598,-4.3598,-4.3598,-4.3598,-4.3598,-4.4571,-4.517,-4.5454,-4.6157,-4.6279,-4.5693,-4.3339,-4.3554,-4.3778,-4.1908,-4.2342,-4.2746,-4.1713,-4.1946,-4.2506,-4.3329,-4.3828,-4.4317,-4.4721,-4.5065,-4.5229,-4.5065,-4.5185,-4.5828,-4.7174,-4.7145,-4.7115,-4.7294,-4.6217,-4.5559,-4.5559,-4.5559,-4.6097,-4.7264,-4.7666,-4.7919,-4.7907,-4.7395,-4.6941,-4.6571,-4.6039,-4.5807,-4.5807,-4.5807,-4.5144,-4.4034,-4.507,-4.4809,-4.3808,-4.4778,-4.522,-4.522,-4.5002,-4.4105,-4.2891,-4.271,-4.1724,-4.0489,-4.0489,-4.0524,-4.0524,-4.0524,-4.078,-4.1169,-4.1538,-4.1818,-4.2093,-4.2428,-4.2491,-4.2459,-4.2459,-4.2254,-4.2045,-4.2045,-4.1818,-4.1588,-4.1588,-4.1588,-4.1588,-4.1588,-4.1851,-4.1948,-4.1654,-4.1588,-4.1588,-4.1588,-4.1588,-4.1588,-4.1588,-4.1851,-4.2045,-4.2045,-4.2045,-4.2045,-4.2093,-4.2222,-4.2254,-4.2109,-4.2695,-4.299,-4.2868,-4.319,-4.3372,-4.3402,-4.3492,-4.3598,-4.3598,-4.3598,-4.3598,-4.3598,-4.3598,-4.3598,-4.3614,-4.4496,-4.5454,-4.6157,-4.6279,-4.6052,-4.502,-4.4541,-4.3913,-4.253,-4.1938,-4.1818,-4.2171,-4.1871,-4.2117,-4.3868,-4.3738,-4.3165,-4.2192,-4.3928,-4.49,-4.3838,-4.4646,-4.5828,-4.7174,-4.6307,-4.6112,-4.7219,-4.7085,-4.695,-4.695,-4.695,-4.707,-4.7294,-4.7396,-4.7078,-4.63,-4.6515,-4.6245,-4.5493,-4.5709,-4.5807,-4.5807,-4.5807,-4.5681,-4.5424,-4.5478,-4.5447,-4.5388,-4.5258,-4.5294,-4.5442,-4.522,-4.4231,-4.2891,-4.2855,-4.1866,-4.0489,-4.0489,-4.0627,-4.0765,-4.0765,-4.0916,-4.1169,-4.1702,-4.1768,-4.1753,-4.2109,-4.2013,-4.1769,-4.1769,-4.172,-4.1687,-4.1687,-4.1654,-4.1588,-4.1588,-4.1588,-4.1588,-4.1588,-4.1654,-4.1687,-4.1621,-4.1588,-4.1588,-4.1588,-4.1588,-4.1588,-4.1588,-4.1654,-4.1687,-4.1687,-4.1687,-4.1768,-4.1931,-4.1963,-4.2012,-4.2109,-4.246,-4.2696,-4.2665,-4.2959,-4.3235,-4.3402,-4.3402,-4.3509,-4.3598,-4.3598,-4.3598,-4.3598,-4.3598,-4.3598,-4.3359,-4.4302,-4.5544,-4.6576,-4.683,-4.6292,-4.4242,-4.3793,-4.3135,-4.0786,-4.0337,-4.0457,-4.0771,-4.0576,-4.1115,-4.3394,-4.3499,-4.3305,-4.3419,-4.4496,-4.5065,-4.4451,-4.493,-4.5544,-4.6202,-4.5678,-4.5559,-4.6202,-4.6262,-4.6561,-4.7264,-4.7309,-4.7309,-4.7309,-4.698,-4.6518,-4.593,-4.5742,-4.5503,-4.521,-4.541,-4.5609,-4.5807,-4.5807,-4.5807,-4.5771,-4.5698,-4.5288,-4.4745,-4.529,-4.5148,-4.4638,-4.5159,-4.4632,-4.3516,-4.3051,-4.2133,-4.1032,-4.0628,-4.0627,-4.0833,-4.0916,-4.1086,-4.1254,-4.1505,-4.1588,-4.1621,-4.1785,-4.172,-4.1588,-4.1588,-4.1588,-4.1588,-4.1588,-4.1588,-4.1588,-4.1588,-4.1588,-4.1588,-4.1588,-4.1588,-4.1588,-4.1588,-4.1588,-4.1588,-4.1588,-4.1588,-4.1588,-4.1588,-4.1588,-4.1588,-4.1588,-4.1588,-4.167,-4.1866,-4.1947,-4.2029,-4.2109,-4.2397,-4.2571,-4.2508,-4.2821,-4.3037,-4.3146,-4.3221,-4.3342,-4.3509,-4.3509,-4.3539,-4.3598,-4.3598,-4.3598,-4.3379,-4.4407,-4.5589,-4.68,-4.7189,-4.6546,-4.3698,-4.3165,-4.2467,-3.9619,-3.923,-3.9514,-3.9783,-3.9843,-4.0606,-4.2916,-4.3065,-4.3374,-4.4691,-4.4885,-4.499,-4.5259,-4.5289,0.0,-4.5693,-4.5469,-4.5409,-4.5708,-4.5723,-4.6187,-4.7249,-4.7309,-4.7309,-4.7309,-4.6666,-4.6104,-4.5768,-4.5183,-4.4947,-4.5061,-4.5173,-4.541,-4.5807,-4.5807,-4.5807,-4.5807,-4.5807,-4.5017,-4.3816,-4.5238,-4.497,-4.3832,-4.5074,-4.5018,-4.4148,-4.3283,-4.2421,-4.1514,-4.0786,-4.0662,-4.0882,-4.1034,-4.1187,-4.1323,-4.1357,-4.1489,-4.1588,-4.1588,-4.1588,-4.1588,-4.1588,-4.1588,-4.1588,-4.1588,-4.1588,-4.1588,-4.1588,-4.1588,-4.1588,-4.1588,-4.1588,-4.1588,-4.1588,-4.1588,-4.1588,-4.1588,-4.1588,-4.1588,-4.1588,-4.1588,-4.1588,-4.1588,-4.1588,-4.1703,-4.1931,-4.2029,-4.2142,-4.2206,-4.246,-4.2539,-4.2445,-4.2713,-4.2868,-4.2899,-4.3007,-4.3143,-4.3342,-4.3342,-4.3402,-4.3568,-4.3568,-4.3568,-4.3733,-4.4751,-4.5484,-4.6232,-4.686,-4.6905,-4.5379,-4.4152,-4.2871,-4.1414,-4.0202,-3.9783,-4.098,-4.1205,-4.1669,-4.3065,-4.2342,-4.2013,-4.329,-4.3554,-4.3988,-4.5155,0.0,0.0,-4.6995,-4.6007,-4.5798,-4.7025,-4.7115,-4.7174,-4.7294,-4.7309,-4.7309,-4.7309,-4.6666,-4.5992,-4.5372,-4.5062,-4.483,-4.4648,-4.5024,-4.541,-4.5807,-4.5807,-4.5807,-4.5807,-4.5807,-4.5001,-4.3819,-4.5223,-4.4986,-4.3829,-4.5234,-4.5236,-4.4365,-4.3497,-4.2583,-4.1643,-4.0805,-4.0746,-4.1083,-4.1083,-4.1187,-4.1307,-4.1522,-4.1588,-4.1588,-4.1588,-4.1588,-4.1588,-4.1588,-4.1588,-4.1588,-4.1588,-4.1588,-4.1588,-4.1588,-4.1588,-4.1588,-4.1588,-4.1588,-4.1588,-4.1588,-4.1588,-4.1588,-4.1588,-4.1588,-4.1588,-4.1588,-4.1588,-4.1588,-4.1588,-4.1588,-4.172,-4.2045,-4.2077,-4.2238,-4.2523,-4.2602,-4.2602,-4.2571,-4.2602,-4.2696,-4.2899,-4.2899,-4.2976,-4.3143,-4.3143,-4.3235,-4.3402,-4.3402,-4.3462,-4.203,-4.3599,-4.5454,-4.6157,-4.6815,-4.6636,-4.4107,-4.3434,-4.2587,-4.0098,-3.9499,-3.9574,-4.0113,-4.0202,-4.0636,-4.1938,-4.1728,-4.2117,-4.4212,-4.4526,-4.5035,-4.6352,-4.6501,-4.6396,-4.6127,-4.5603,-4.5514,-4.6052,-4.6097,-4.6456,-4.7264,-4.7309,-4.713,-4.6726,-4.6052,-4.5379,-4.4706,-4.4193,-4.4059,-4.4243,-4.4663,-4.5061,-4.5447,-4.5698,-4.5807,-4.5807,-4.5807,-4.4527,-4.26,-4.4875,-4.448,-4.2663,-4.4938,-4.5525,-4.4929,-4.3689,-4.2938,-4.2377,-4.0963,-4.0799,-4.1221,-4.1135,-4.1288,-4.1489,-4.1588,-4.1588,-4.1588,-4.1588,-4.1588,-4.1588,-4.1588,-4.1588,-4.1588,-4.1588,-4.1588,-4.1588,-4.1588,-4.1588,-4.1588,-4.1588,-4.1588,-4.1588,-4.1588,-4.1588,-4.1588,-4.1588,-4.1588,-4.1588,-4.1588,-4.1588,-4.1588,-4.1588,-4.1588,-4.1753,-4.2077,-4.2109,-4.2238,-4.2571,-4.2602,-4.2602,-4.2602,-4.2602,-4.2634,-4.2728,-4.2728,-4.279,-4.2976,-4.2976,-4.3068,-4.3204,-4.3204,-4.3295,-4.1183,-4.2955,-4.517,-4.5858,-4.6217,-4.5708,-4.3024,-4.2566,-4.1923,-3.899,-3.8931,-3.9448,-3.9679,-3.9709,-4.0202,-4.1728,-4.1841,-4.256,-4.4945,-4.5125,-4.5499,-4.686,-4.701,-4.6711,-4.5963,-4.5888,-4.5888,-4.5888,-4.5888,-4.6307,-4.7249,-4.7309,-4.6995,-4.6309,-4.5648,-4.4975,-4.4332,-4.3618,-4.3542,-4.4026,-4.4396,-4.4582,-4.4617,-4.5421,-4.5586,-4.5207,-4.5634,-4.4448,-4.241,-4.4812,-4.4401,-4.2457,-4.4875,-4.5698,-4.5379,-4.3854,-4.3235,-4.2946,-4.1298,-4.0987,-4.129,-4.1337,-4.1454,-4.1621,-4.167,-4.167,-4.1588,-4.1588,-4.1588,-4.1588,-4.1588,-4.1588,-4.1588,-4.1588,-4.1588,-4.1588,-4.1588,-4.1588,-4.1588,-4.1588,-4.1588,-4.1588,-4.1588,-4.1588,-4.1588,-4.1588,-4.1588,-4.1588,-4.1588,-4.1588,-4.1588,-4.1588,-4.167,-4.1801,-4.2077,-4.2109,-4.2238,-4.2571,-4.2602,-4.2602,-4.2602,-4.2571,-4.2571,-4.2602,-4.2571,-4.2634,-4.2806,-4.2806,-4.2883,-4.3021,-4.3021,-4.3129,-4.1918,-4.3314,-4.4481,-4.514,-4.4825,-4.3988,-4.271,-4.1901,-4.0831,-3.8811,-3.8931,-3.9619,-4.0277,-4.0382,-4.104,-4.3045,-4.283,-4.3084,-4.502,-4.4736,-4.4825,-4.613,-4.6294,-4.6591,-4.7219,-4.7279,-4.7279,-4.7279,-4.7279,-4.7294,-4.7309,-4.7309,-4.6995,-4.6309,-4.5648,-4.4975,-4.4332,-4.3618,-4.3542,-4.4026,-4.4396,-4.4087,-4.3176,-4.498,-4.5033,-4.3819,-4.5207,-4.5001,-4.3782,-4.5223,-4.497,-4.3813,-4.5254,-4.5807,-4.5597,-4.3985,-4.3396,-4.3192,-4.176,-4.129,-4.1357,-4.1752,-4.1752,-4.1621,-4.1833,-4.1752,-4.1588,-4.1588,-4.1588,-4.1588,-4.1588,-4.1588,-4.1588,-4.1588,-4.1588,-4.1588,-4.1588,-4.1588,-4.1588,-4.1588,-4.1588,-4.1588,-4.1588,-4.1588,-4.1588,-4.1588,-4.1588,-4.1588,-4.1588,-4.1588,-4.1588,-4.1588,-4.1784,-4.1947,-4.2077,-4.2109,-4.2238,-4.2571,-4.2602,-4.2602,-4.2602,-4.2476,-4.2476,-4.2602,-4.2476,-4.2476,-4.2602,-4.2602,-4.2696,-4.2899,-4.2899,-4.2899,-3.995,-4.1137,-4.2462,-4.3159,-4.3174,-4.2521,-4.0756,-4.0187,-3.9723,-3.8616,-3.8931,-3.9753,-4.0876,-4.107,-4.1429,-4.2545,-4.2545,-4.3084,-4.502,-4.511,-4.5484,-4.683,-4.6995,-4.707,-4.7279,-4.6471,-4.6307,-4.7234,-4.6456,-4.6337,-4.7249,-4.6875,-4.6322,-4.5648,-4.5409,-4.4766,-4.3618,-4.3394,-4.3369,-4.3542,-4.3972,-4.3639,-4.2767,-4.4549,-4.4766,-4.3785,-4.5191,-4.5017,-4.3797,-4.5238,-4.4986,-4.3829,-4.527,-4.5807,-4.566,-4.4551,-4.3925,-4.3479,-4.2412,-4.1899,-4.1719,-4.1866,-4.1866,-4.1833,-4.1866,-4.1752,-4.1588,-4.1588,-4.1588,-4.1588,-4.1588,-4.1588,-4.1588,-4.1588,-4.1588,-4.1588,-4.1588,-4.1588,-4.1588,-4.1588,-4.1588,-4.1588,-4.1588,-4.1588,-4.1588,-4.1588,-4.1588,-4.1588,-4.1588,-4.1588,-4.1588,-4.1588,-4.1784,-4.1947,-4.2077,-4.2254,-4.2381,-4.2602,-4.2602,-4.2602,-4.2602,-4.2571,-4.2508,-4.2476,-4.2508,-4.2508,-4.2476,-4.2571,-4.2634,-4.2696,-4.2837,-4.2837,-3.8819,-3.9736,-4.0801,-4.1497,-4.1272,-4.0569,-3.932,-3.9035,-3.8901,-3.8482,-3.9334,-4.0487,-4.1587,-4.1953,-4.2252,-4.2656,-4.2857,-4.339,-4.474,-4.4585,-4.4798,-4.6025,-4.6396,-4.6741,-4.7249,-4.6546,-4.6396,-4.7249,-4.6531,-4.6426,-4.7264,-4.6681,-4.6007,-4.5319,-4.505,-4.4407,-4.3305,-4.329,-4.329,-4.329,-4.3778,-4.3389,-4.2346,-4.4328,-4.457,-4.3576,-4.5119,-4.5317,0.0,-4.546,-4.5302,-4.4571,-4.5476,-4.5807,-4.5692,-4.4874,-4.4185,-4.3614,-4.2918,-4.2338,-4.1931,-4.2125,-4.2077,-4.1963,-4.1898,-4.1752,-4.1588,-4.1588,-4.1588,-4.1588,-4.1588,-4.1588,-4.1588,-4.1588,-4.1588,-4.1588,-4.1588,-4.1588,-4.1588,-4.1588,-4.1588,-4.1588,-4.1588,-4.1588,-4.1588,-4.1588,-4.1588,-4.1588,-4.1588,-4.1588,-4.1588,-4.1588,-4.1834,-4.2012,-4.2077,-4.227,-4.2476,-4.2602,-4.2602,-4.2602,-4.2602,-4.2539,-4.2476,-4.2413,-4.2413,-4.2413,-4.2413,-4.2539,-4.2602,-4.2602,-4.2681,-4.2634,0.0,-3.8973,-3.9364,-4.0023,-3.9215,-3.8272,-3.8302,-3.8287,0.0,-3.8556,-4.0083,-4.1647,-4.2396,-4.2991,-4.3329,-4.3379,-4.3556,-4.3831,-4.4229,-4.3537,-4.3272,-4.4039,-4.4904,-4.5888,-4.6969,-4.7206,-4.7309,-4.7309,-4.7309,-4.7309,-4.7309,-4.6636,-4.5963,-4.5319,-4.4601,-4.3943,-4.3305,-4.329,-4.3245,-4.3155,-4.3693,-4.319,-4.1841,-4.4096,-4.4387,-4.3192,-4.4959,-4.5771,-4.5807,-4.5807,-4.5807,-4.5807,-4.5807,-4.5807,-4.5728,-4.5049,-4.4322,-4.3699,-4.3384,-4.2666,-4.1996,-4.2445,-4.2381,-4.2077,-4.1931,-4.1752,-4.1588,-4.1588,-4.1588,-4.1588,-4.1588,-4.1588,-4.1588,-4.1588,-4.1588,-4.1588,-4.1588,-4.1588,-4.1588,-4.1588,-4.1588,-4.1588,-4.1588,-4.1588,-4.1588,-4.1588,-4.1588,-4.1588,-4.1588,-4.1588,-4.1588,-4.1588,-4.1883,-4.2077,-4.2109,-4.227,-4.2476,-4.2602,-4.2602,-4.2602,-4.2602,-4.2476,-4.2413,-4.2381,-4.2206,-4.2174,-4.2381,-4.2539,-4.2602,-4.2571,-4.2476,-4.2413,-3.6966,0.0,-3.733,-3.7958,-3.7524,-3.706,0.0,-3.727,-3.7644,-4.0157,-4.1055,-4.1893,-4.3554,-4.3747,-4.3761,-4.4031,-4.3369,-4.3141,-4.4147,-4.453,-4.4167,-4.2793,-4.5107,-4.6332,-4.4992,-4.6337,-4.7309,-4.7309,-4.7309,-4.7309,-4.7309,-4.6187,-4.5469,-4.5289,-4.4167,-4.3454,-4.329,-4.329,-4.2836,-4.1848,-4.2944,-4.2371,-4.0461,-4.3084,-4.3833,-4.3192,-4.469,-4.5536,-4.5807,-4.5807,-4.5807,-4.5807,-4.5807,-4.5807,-4.5792,-4.5618,-4.4851,-4.3931,-4.396,-4.3247,-4.2286,-4.2413,-4.227,-4.2077,-4.1931,-4.1752,-4.1588,-4.1588,-4.1588,-4.1588,-4.1588,-4.1588,-4.1588,-4.1588,-4.1588,-4.1588,-4.1588,-4.1588,-4.1588,-4.1588,-4.1588,-4.1588,-4.1588,-4.1588,-4.1588,-4.1588,-4.1588,-4.1588,-4.1588,-4.1588,-4.1588,-4.1588,-4.1817,-4.198,-4.2077,-4.2365,-4.2571,-4.2602,-4.2602,-4.2602,-4.2602,-4.2571,-4.2445,-4.2174,-4.2109,-4.2109,-4.2174,-4.2476,-4.2539,-4.2445,-4.2508,-4.2508,-3.6492,-3.6262,-3.6252,-3.718,-3.6941,-3.6731,-3.7644,-3.7599,-3.8123,-4.0853,-4.1288,-4.1844,-4.3922,-4.3463,-4.2969,-4.351,-4.2138,-4.1181,-4.1853,-4.2606,-4.2871,-4.2119,-4.3745,-4.4864,-4.4647,-4.6245,-4.7309,-4.7309,-4.7309,-4.7309,-4.7309,-4.6022,-4.5289,-4.5289,-4.4018,-4.329,-4.329,-4.329,-4.2671,-4.1437,-4.2716,-4.2344,-4.0661,-4.2955,-4.3808,-4.3516,-4.3861,-4.4596,-4.5489,-4.4845,-4.5079,-4.5807,-4.5807,-4.5807,-4.5807,-4.5807,-4.5029,-4.4031,-4.417,-4.3441,-4.2508,-4.2508,-4.2381,-4.2222,-4.2045,-4.1882,-4.1703,-4.1621,-4.1588,-4.1588,-4.1588,-4.1588,-4.1588,-4.1588,-4.1588,-4.1588,-4.1588,-4.1588,-4.1588,-4.1588,-4.1588,-4.1588,-4.1588,-4.1588,-4.1588,-4.1588,-4.1588,-4.1588,-4.1588,-4.1588,-4.1588,-4.1588,-4.1834,-4.2029,-4.2077,-4.2413,-4.2602,-4.2602,-4.2602,-4.2571,-4.2508,-4.2571,-4.2429,-4.2109,-4.2109,-4.2093,-4.2012,-4.2349,-4.2476,-4.2413,-4.2539,-4.2571,-3.6615,-3.6155,-3.5938,-3.712,-3.7015,-3.6971,-3.8257,0.0,0.0,0.0,0.0,-4.1864,-4.3682,-4.2783,-4.1942,-4.2496,-4.0864,-3.9435,-3.915,-4.0134,-4.1028,-4.1408,-4.2158,-4.327,-4.4726,-4.633,-4.7309,-4.7309,-4.7309,-4.7309,-4.7309,-4.6022,-4.5289,-4.5289,-4.4018,-4.329,-4.329,-4.329,-4.2671,-4.1437,-4.2716,-4.2641,-4.1467,-4.3134,-4.3949,-4.3966,-4.3149,-4.3731,-4.5116,-4.3981,-4.4396,-4.5807,-4.5807,-4.5807,-4.5807,-4.5807,-4.5029,-4.4034,-4.3981,-4.3347,-4.2602,-4.2602,-4.2508,-4.2381,-4.2206,-4.2045,-4.1866,-4.1736,-4.1654,-4.1621,-4.1621,-4.1621,-4.1588,-4.1588,-4.1588,-4.1588,-4.1588,-4.1588,-4.1588,-4.1588,-4.1588,-4.1588,-4.1588,-4.1588,-4.1588,-4.1588,-4.1588,-4.1588,-4.1588,-4.1588,-4.1588,-4.1588,-4.1851,-4.2045,-4.2109,-4.2365,-4.2539,-4.2602,-4.2602,-4.2539,-4.2413,-4.2476,-4.2349,-4.2093,-4.2093,-4.1996,-4.1866,-4.219,-4.2349,-4.2349,-4.2508,-4.2571,-3.7106,-3.6808,-3.6507,-3.7225,-3.7345,-3.7614,-3.8945,-3.926,-3.9743,0.0,0.0,-4.2565,-4.2735,-4.2717,-4.2387,-4.1812,-4.1271,-4.0525,-3.9306,-4.0817,-4.1416,-3.9714,-4.2903,-4.4629,-4.3135,-4.561,-4.7309,-4.7309,-4.7309,-4.7309,-4.7309,-4.6022,-4.5289,-4.5289,-4.4018,-4.329,-4.329,-4.329,-4.2671,-4.1437,-4.2716,-4.2641,-4.1467,-4.277,-4.3621,-4.3972,-4.3837,-4.4311,-4.5194,-4.4976,-4.5259,-4.5807,-4.5807,-4.5807,-4.5807,-4.5807,-4.5119,-4.4028,-4.3154,-4.2749,-4.2602,-4.2602,-4.2508,-4.2381,-4.2349,-4.2141,-4.1931,-4.1996,-4.1818,-4.1621,-4.1817,-4.1736,-4.1588,-4.1588,-4.1588,-4.1588,-4.1588,-4.1588,-4.1588,-4.1588,-4.1588,-4.1588,-4.1588,-4.1588,-4.1588,-4.1588,-4.1588,-4.1588,-4.1588,-4.1588,-4.1588,-4.1588,-4.1654,-4.1785,-4.2077,-4.2142,-4.2302,-4.2571,-4.2602,-4.2539,-4.2413,-4.2141,-4.1996,-4.1931,-4.1931,-4.185,-4.167,-4.198,-4.2142,-4.2142,-4.2333,-4.2508,-3.6846,-3.696,-3.7225,-3.8242,-3.8212,-3.8415,-4.0306,-3.995,-3.9726,0.0,-4.1168,-4.0724,-4.1879,-4.1038,-3.992,-3.923,-3.9844,-3.9952,-3.8643,-3.9298,-3.9746,-3.9243,-4.1801,-4.3409,-4.2887,-4.5551,-4.7309,-4.7309,-4.7309,-4.7145,-4.68,-4.5828,-4.5125,-4.4781,-4.3798,-4.329,-4.329,-4.329,-4.2671,-4.1437,-4.2716,-4.2641,-4.1429,-4.2731,-4.3423,-4.3576,-4.2906,-4.3343,-4.4526,-4.401,-4.4481,-4.5484,-4.5735,-4.5807,-4.5713,-4.5151,-4.4626,-4.4063,-4.296,-4.2602,-4.2602,-4.2602,-4.2571,-4.2508,-4.2413,-4.2286,-4.2174,-4.2254,-4.1948,-4.167,-4.1866,-4.1752,-4.1588,-4.1588,-4.1588,-4.1588,-4.1588,-4.1588,-4.1588,-4.1588,-4.1588,-4.1588,-4.1588,-4.1588,-4.1588,-4.1588,-4.1588,-4.1588,-4.1588,-4.1588,-4.1588,-4.1588,-4.1703,-4.1817,-4.198,-4.2158,-4.2349,-4.2602,-4.2539,-4.2476,-4.2413,-4.2141,-4.2012,-4.2012,-4.1931,-4.1866,-4.1752,-4.1915,-4.198,-4.2012,-4.2254,-4.2445,-3.6676,-3.7051,-3.7734,-3.9059,-3.902,-3.9192,-4.1226,-4.0416,-3.9722,-4.1423,-4.0268,-3.9441,-4.1109,-3.9493,-3.7753,-3.7204,-3.8354,-3.9031,-3.8254,-3.8241,-3.8591,-3.9231,-4.0816,-4.22,-4.3048,-4.5419,-4.7062,-4.7266,-4.7309,-4.7025,-4.6324,-4.5663,-4.499,-4.4332,-4.3633,-4.329,-4.329,-4.329,-4.2836,-4.1848,-4.2811,-4.2806,-4.1878,-4.288,-4.329,-4.3245,-4.2282,-4.2649,-4.3935,-4.3203,-4.376,-4.5098,-4.5484,-4.5735,-4.567,-4.4543,-4.4154,-4.4063,-4.296,-4.2602,-4.2602,-4.2602,-4.2602,-4.2571,-4.2476,-4.2381,-4.2349,-4.2381,-4.2013,-4.1654,-4.1882,-4.1817,-4.167,-4.1621,-4.1588,-4.1588,-4.1588,-4.1588,-4.1588,-4.1588,-4.1588,-4.1588,-4.1588,-4.1588,-4.1588,-4.1588,-4.1588,-4.1588,-4.1588,-4.1588,-4.1588,-4.1588,-4.1752,-4.1866,-4.1931,-4.2254,-4.2508,-4.2602,-4.2476,-4.2413,-4.2413,-4.219,-4.2061,-4.2061,-4.1963,-4.1866,-4.1833,-4.1866,-4.1898,-4.1914,-4.2206,-4.2349,-3.7183,-3.7352,-3.7734,-3.9059,-3.9343,-3.9616,-4.0814,-4.0485,-3.9977,-4.0152,-4.0494,-4.0763,-4.0553,-3.9106,-3.782,-3.7295,-3.778,-3.8354,-3.8687,-3.9198,-3.9572,-3.9674,-4.1052,-4.2374,-4.3365,-4.4967,-4.6299,-4.7207,-4.7309,-4.7025,-4.6324,-4.5663,-4.499,-4.4332,-4.3633,-4.329,-4.329,-4.329,-4.3245,-4.3155,-4.3245,-4.3245,-4.3155,-4.3245,-4.329,-4.329,-4.3185,-4.3491,-4.3972,-4.392,-4.419,-4.4685,-4.5098,-4.5484,-4.5634,-4.437,-4.4052,-4.4063,-4.296,-4.2602,-4.2602,-4.2602,-4.2602,-4.2602,-4.2602,-4.2381,-4.2142,-4.2349,-4.2013,-4.1687,-4.198,-4.1964,-4.1833,-4.1621,-4.1588,-4.1588,-4.1588,-4.1588,-4.1588,-4.1588,-4.1588,-4.1588,-4.1588,-4.1588,-4.1588,-4.1588,-4.1588,-4.1588,-4.1588,-4.1588,-4.1588,-4.1588,-4.1621,-4.1753,-4.2045,-4.2397,-4.2602,-4.2602,-4.2476,-4.2413,-4.2413,-4.2093,-4.1898,-4.1898,-4.1898,-4.1817,-4.1621,-4.1817,-4.1898,-4.1898,-4.2061,-4.2206,-3.7229,-3.7382,-3.7823,-3.9589,-3.9723,-3.9617,-4.0506,-4.015,-3.9788,-4.0148,-3.9607,-3.8741,-3.757,-3.7453,-3.7354,-3.6765,-3.7465,-3.809,-3.8295,-3.8514,-3.8619,-3.8619,-4.002,-4.1078,-4.1462,-4.3496,-4.5087,-4.584,-4.6506,-4.6529,-4.5696,-4.5439,-4.4811,-4.3693,-4.3424,-4.329,-4.329,-4.329,-4.329,-4.329,-4.329,-4.329,-4.329,-4.329,-4.329,-4.329,-4.329,-4.3409,-4.3621,-4.4011,-4.4281,-4.4473,-4.5002,-4.5352,-4.5488,-4.4335,-4.4018,-4.4063,-4.296,-4.2602,-4.2602,-4.2602,-4.2602,-4.2602,-4.2602,-4.2492,-4.2413,-4.2413,-4.2238,-4.2093,-4.2012,-4.185,-4.1703,-4.1621,-4.1588,-4.1588,-4.1588,-4.1588,-4.1588,-4.1588,-4.1588,-4.1588,-4.1588,-4.1588,-4.1588,-4.1588,-4.1588,-4.1588,-4.1588,-4.1588,-4.1588,-4.1588,-4.1588,-4.1753,-4.2077,-4.2206,-4.2365,-4.2602,-4.2539,-4.2476,-4.2413,-4.2158,-4.2029,-4.2029,-4.1801,-4.1752,-4.1784,-4.1752,-4.1703,-4.1703,-4.1882,-4.2077,-3.7291,-3.7534,-3.8093,-3.9694,-3.9753,-3.9542,-4.0081,-3.9704,-3.936,-3.9749,-3.9246,-3.817,-3.6351,-3.6652,-3.7025,-3.6509,-3.7012,-3.7601,-3.7938,-3.7986,-3.7986,-3.7986,-3.9067,-3.9943,-4.0274,-4.2393,-4.4088,-4.4921,-4.5987,-4.6237,-4.5364,-4.5289,-4.4691,-4.3334,-4.329,-4.329,-4.329,-4.329,-4.329,-4.329,-4.329,-4.329,-4.329,-4.329,-4.329,-4.329,-4.329,-4.3344,-4.3463,-4.3934,-4.4205,-4.4435,-4.4792,-4.5182,-4.5342,-4.4176,-4.3897,-4.3962,-4.2832,-4.2476,-4.2539,-4.2539,-4.2571,-4.2602,-4.2539,-4.2539,-4.2508,-4.2302,-4.2238,-4.2158,-4.1882,-4.1752,-4.167,-4.1621,-4.1588,-4.1588,-4.1588,-4.1588,-4.1588,-4.1588,-4.1588,-4.1588,-4.1588,-4.1555,-4.1522,-4.1522,-4.1472,-4.1439,-4.1439,-4.1456,-4.1522,-4.1588,-4.167,-4.1801,-4.2029,-4.2109,-4.227,-4.2508,-4.2571,-4.2571,-4.2476,-4.227,-4.2174,-4.2109,-4.1883,-4.1753,-4.1817,-4.1736,-4.167,-4.1588,-4.1817,-4.198,-3.7429,-3.7916,-3.8542,-3.9245,-3.9388,-3.9409,-3.957,-3.9074,-3.8628,-3.8668,-3.9643,-3.9766,-3.7567,-3.7181,-3.7043,-3.6512,-3.6411,-3.6783,-3.7829,-3.7986,-3.7986,-3.7986,-3.8473,-3.9156,-4.0172,-4.1811,-4.3375,-4.4875,-4.5973,-4.6194,-4.5323,-4.5289,-4.4691,-4.3334,-4.329,-4.329,-4.329,-4.329,-4.329,-4.329,-4.329,-4.329,-4.329,-4.329,-4.329,-4.329,-4.329,-4.3463,-4.369,-4.369,-4.4065,-4.4587,-4.4396,-4.4776,-4.5306,-4.3925,-4.3652,-4.379,-4.2556,-4.2254,-4.2381,-4.2381,-4.2476,-4.2571,-4.2445,-4.2381,-4.2334,-4.1996,-4.1898,-4.1866,-4.167,-4.1752,-4.1866,-4.167,-4.1588,-4.1588,-4.1588,-4.1588,-4.1588,-4.1588,-4.1588,-4.1588,-4.1588,-4.1423,-4.129,-4.129,-4.1187,-4.1117,-4.1102,-4.1205,-4.139,-4.1588,-4.1784,-4.1914,-4.1898,-4.2206,-4.2413,-4.2413,-4.2539,-4.2602,-4.2602,-4.2476,-4.2318,-4.2109,-4.2109,-4.1948,-4.1588,-4.1784,-4.1784,-4.1588,-4.1784,-4.198,-3.9126,-3.851,-3.7847,-3.9625,-3.9768,-3.9268,-3.8746,-3.9246,-3.9672,-3.8895,-3.8403,-3.7701,-3.6283,-3.6952,-3.7472,-3.6531,-3.7024,-3.7625,-3.7938,-3.7986,-3.7986,-3.7986,-3.8145,-3.8344,-3.8662,-3.9828,-4.1167,-4.2683,-4.3821,-4.4526,-4.4805,-4.483,-4.4362,-4.3334,-4.329,-4.329,-4.329,-4.329,-4.329,-4.329,-4.329,-4.329,-4.329,-4.329,-4.329,-4.329,-4.329,-4.3463,-4.3729,-4.4026,-4.432,-4.4572,-4.4534,-4.4723,-4.4905,-4.3664,-4.3341,-4.3416,-4.2342,-4.1915,-4.1851,-4.2012,-4.2093,-4.2109,-4.2045,-4.2093,-4.2158,-4.1963,-4.1898,-4.1866,-4.167,-4.1621,-4.167,-4.1621,-4.1588,-4.1588,-4.1588,-4.1588,-4.1588,-4.1588,-4.1588,-4.1555,-4.1423,-4.1357,-4.1256,-4.1153,-4.1221,-4.1305,-4.1439,-4.1357,-4.1323,-4.139,-4.1423,-4.1538,-4.167,-4.1996,-4.2238,-4.2381,-4.2539,-4.2602,-4.2602,-4.2476,-4.2381,-4.2318,-4.2077,-4.1915,-4.1817,-4.1736,-4.167,-4.1588,-4.167,-4.1784,-3.9906,-3.9332,-3.8787,-4.0725,-4.0487,-3.9602,-3.888,-3.8961,-3.9007,-3.8515,-3.8075,-3.7506,-3.6637,-3.7327,-3.7781,-3.7132,-3.7565,-3.8039,-3.8145,-3.8092,-3.8039,-3.8145,-3.8092,-3.7986,-3.7986,-3.9,-4.0084,-4.1178,-4.2662,-4.3524,-4.3661,-4.4292,-4.4155,-4.3095,-4.321,-4.329,-4.329,-4.329,-4.329,-4.329,-4.329,-4.329,-4.329,-4.329,-4.329,-4.329,-4.3503,-4.366,-4.3832,-4.4243,-4.4511,-4.461,-4.461,-4.4569,-4.4384,-4.334,-4.2942,-4.2761,-4.1881,-4.1554,-4.1489,-4.1604,-4.1719,-4.1784,-4.1784,-4.1882,-4.198,-4.1817,-4.1833,-4.1866,-4.167,-4.1588,-4.1588,-4.1588,-4.1588,-4.1588,-4.1588,-4.1588,-4.1588,-4.1588,-4.1588,-4.1555,-4.1456,-4.1357,-4.1256,-4.1102,-4.112,-4.1156,-4.1372,-4.1323,-4.1323,-4.1423,-4.1423,-4.1456,-4.1588,-4.1866,-4.2061,-4.2206,-4.2318,-4.2445,-4.2508,-4.2508,-4.2445,-4.2413,-4.2125,-4.1947,-4.1898,-4.1703,-4.1588,-4.1588,-4.1588,-4.1703,-4.0086,-4.0154,-4.0569,-4.1886,-4.1272,-4.0201,-3.9837,-3.8516,-3.75,-3.783,-3.8279,-3.8439,-3.8004,-3.8003,-3.8039,-3.8039,-3.8039,-3.8145,-3.8409,-3.825,-3.8145,-3.8409,-3.8198,-3.8039,-3.8039,-3.8896,-3.9687,-4.0185,-4.2115,-4.3026,-4.2348,-4.3719,-4.4002,-4.2821,-4.312,-4.329,-4.329,-4.329,-4.329,-4.329,-4.329,-4.329,-4.329,-4.329,-4.329,-4.3329,-4.3778,-4.3988,-4.4026,-4.4435,-4.461,-4.4572,-4.4548,-4.4284,-4.3861,-4.3087,-4.2512,-4.205,-4.1395,-4.12,-4.1223,-4.1256,-4.1357,-4.1489,-4.1489,-4.1653,-4.1735,-4.1604,-4.1653,-4.1735,-4.1588,-4.1522,-4.1489,-4.1522,-4.1555,-4.1588,-4.1588,-4.1588,-4.1555,-4.1555,-4.1555,-4.1555,-4.1555,-4.139,-4.1239,-4.1102,-4.0916,-4.0882,-4.1102,-4.1205,-4.1357,-4.1555,-4.1555,-4.1555,-4.1555,-4.1784,-4.1898,-4.1898,-4.2045,-4.2174,-4.2381,-4.2508,-4.2539,-4.2413,-4.2254,-4.2061,-4.1931,-4.1703,-4.1621,-4.1588,-4.1588,-4.1703,-4.0808,-4.0213,-3.9461,-4.0561,-4.0217,-3.9936,-4.1184,-3.9854,-3.8283,-3.8011,-3.7351,-3.6861,-3.7315,-3.7867,-3.8303,-3.8303,-3.8461,-3.8631,-3.8736,-3.8684,-3.8631,-3.8736,-3.8461,-3.8303,-3.8303,-3.8344,-3.8739,-3.9687,-4.0943,-4.1909,-4.244,-4.3497,-4.3828,-4.3428,-4.3358,-4.329,-4.329,-4.329,-4.329,-4.329,-4.329,-4.329,-4.329,-4.329,-4.329,-4.3329,-4.3778,-4.3988,-4.4026,-4.4435,-4.461,-4.4564,-4.4024,-4.4055,-4.4293,-4.3106,-4.2566,-4.2422,-4.1852,-4.1214,-4.0696,-4.0867,-4.0833,-4.073,-4.073,-4.0765,-4.0867,-4.1138,-4.1003,-4.0867,-4.1138,-4.0953,-4.0799,-4.0919,-4.1156,-4.1423,-4.1555,-4.1372,-4.1221,-4.1357,-4.1341,-4.1323,-4.1236,-4.1169,-4.1102,-4.0867,-4.0833,-4.0901,-4.1239,-4.1187,-4.1187,-4.1357,-4.1341,-4.1341,-4.1341,-4.1686,-4.1898,-4.1898,-4.2045,-4.2174,-4.2381,-4.2413,-4.2476,-4.2571,-4.2413,-4.2254,-4.2061,-4.1915,-4.1752,-4.1588,-4.1588,-4.1621,-4.0581,-4.0543,-4.0489,-4.1198,-4.1309,-4.132,-4.147,-4.0828,-3.983,-3.8516,-3.7461,-3.6907,-3.7146,-3.7733,-3.8273,-3.8372,-3.8631,-3.8841,-3.8998,-3.8893,-3.8841,-3.8998,-3.8788,-3.8579,-3.8579,-3.8473,-3.8554,-3.9013,-4.002,-4.0859,-4.1421,-4.2314,-4.2939,-4.3286,-4.3109,-4.309,-4.329,-4.329,-4.329,-4.329,-4.329,-4.329,-4.329,-4.329,-4.329,-4.3329,-4.3778,-4.3949,-4.3871,-4.4281,-4.4273,-4.3951,-4.3598,-4.3528,-4.3556,-4.2863,-4.2602,-4.2509,-4.1908,-4.1359,-4.0865,-4.0701,-4.0524,-4.0401,-4.0489,-4.0489,-4.0524,-4.0765,-4.0662,-4.0558,-4.0765,-4.0662,-4.0558,-4.0765,-4.0851,-4.1003,-4.1321,-4.1153,-4.1018,-4.1187,-4.1205,-4.1221,-4.1187,-4.1135,-4.1034,-4.0833,-4.0799,-4.0901,-4.1187,-4.1135,-4.1169,-4.129,-4.1239,-4.1239,-4.129,-4.1421,-4.1537,-4.162,-4.1604,-4.1768,-4.2141,-4.1996,-4.2109,-4.2602,-4.2476,-4.2349,-4.2238,-4.2012,-4.1866,-4.1752,-4.1621,-4.1588,-4.0052,-4.0902,-4.1994,-4.2308,-4.2686,-4.2713,-4.1657,-4.1607,-4.1293,-3.9346,-3.8273,-3.757,-3.7219,-3.7599,-3.8086,-3.8359,-3.8715,-3.905,-3.9322,-3.9102,-3.9062,-3.9322,-3.9102,-3.8893,-3.8893,-3.8841,-3.8684,-3.8409,-3.9376,-4.0083,-4.0298,-4.1113,-4.1985,-4.2837,-4.274,-4.285,-4.321,-4.325,-4.329,-4.329,-4.329,-4.329,-4.329,-4.329,-4.329,-4.3329,-4.3778,-4.3871,-4.3714,-4.4005,-4.3777,-4.322,-4.3028,-4.2864,-4.2667,-4.2473,-4.2458,-4.2437,-4.1797,-4.1331,-4.101,-4.062,-4.0331,-4.0226,-4.0316,-4.0351,-4.0316,-4.0385,-4.0351,-4.0316,-4.0401,-4.0351,-4.0351,-4.0558,-4.0455,-4.047,-4.0982,-4.0848,-4.0746,-4.0966,-4.1,-4.1034,-4.1189,-4.112,-4.1,-4.0765,-4.0765,-4.0799,-4.1034,-4.1034,-4.1086,-4.1239,-4.1169,-4.1135,-4.1272,-4.1153,-4.1135,-4.1272,-4.1169,-4.1303,-4.1767,-4.1472,-4.1654,-4.2397,-4.2381,-4.2381,-4.2413,-4.2109,-4.1963,-4.1931,-4.1736,-4.167,-3.9827,-4.0922,-4.1994,-4.2308,-4.2036,-4.187,-4.2798,-4.2052,-4.109,-4.0886,-3.95,-3.8045,-3.7046,-3.7528,-3.8181,-3.8372,-3.905,-3.9594,-3.9645,-3.9594,-3.9594,-3.9633,-3.9426,-3.9206,-3.9206,-3.8945,-3.8684,-3.8409,-3.9376,-4.0083,-4.0298,-4.1113,-4.1851,-4.2381,-4.2575,-4.2729,-4.2769,-4.313,-4.329,-4.329,-4.329,-4.329,-4.329,-4.329,-4.329,-4.3329,-4.3778,-4.3871,-4.3684,-4.3503,-4.3289,-4.294,-4.1967,-4.2239,-4.3087,-4.1908,-4.1847,-4.226,-4.1587,-4.0832,-4.0188,-4.0307,-4.0086,-3.9788,-3.9788,-3.9696,-3.9625,-3.996,-3.9818,-3.964,-3.9996,-3.9818,-3.9589,-3.9788,-3.9696,-3.9839,-4.0864,-4.0589,-4.0207,-4.0539,-4.0574,-4.0627,-4.0833,-4.0833,-4.0765,-4.0558,-4.0524,-4.0627,-4.0799,-4.0833,-4.0916,-4.1102,-4.1117,-4.1117,-4.1135,-4.1117,-4.1117,-4.1135,-4.1117,-4.1187,-4.1357,-4.1323,-4.1456,-4.172,-4.2013,-4.2254,-4.2413,-4.2349,-4.2254,-4.2093,-4.1915,-4.1866,-4.0479,-4.1081,-4.1578,-4.2629,-4.2147,-4.1728,-4.2991,-4.2491,-4.1743,-4.1693,-4.0787,-3.9469,-3.7683,-3.7806,-3.8214,-3.8249,-3.8815,-3.9346,-3.9647,-3.9697,-3.9697,-3.9697,-3.9594,-3.953,-3.953,-3.9374,-3.9114,-3.8684,-3.9089,-3.9588,-4.0249,-4.0322,-4.0959,-4.2252,-4.209,-4.2213,-4.2703,-4.289,-4.309,-4.329,-4.329,-4.329,-4.329,-4.329,-4.329,-4.3329,-4.3675,-4.3542,-4.3087,-4.2993,-4.2546,-4.1817,-4.121,-4.1441,-4.208,-4.1391,-4.1641,-4.2187,-4.1407,-4.08,-4.0374,-4.0188,-3.9945,-3.9681,-3.9681,-3.9661,-3.9589,-3.964,-3.9532,-3.946,-3.9604,-3.9532,-3.9445,-3.9646,-3.9553,-3.9604,-4.0347,-4.0137,-3.991,-4.0156,-4.0366,-4.047,-4.0366,-4.0593,-4.0696,-4.0436,-4.0455,-4.0558,-4.0765,-4.0696,-4.0696,-4.0916,-4.0814,-4.0814,-4.0916,-4.0814,-4.0814,-4.0916,-4.0814,-4.0867,-4.1171,-4.0953,-4.1088,-4.1588,-4.1753,-4.1948,-4.2238,-4.2174,-4.2158,-4.2254,-4.2012,-4.1898,-4.0758,-4.1122,-4.1492,-4.2649,-4.2121,-4.1528,-4.2581,-4.2462,-4.2127,-4.2115,-4.1831,-4.1001,-3.9021,-3.8514,-3.8341,-3.8204,-3.8579,-3.9057,-3.9433,-3.9597,-3.9697,-3.9697,-3.9697,-3.9697,-3.9697,-3.9697,-3.949,-3.8945,-3.8945,-3.9192,-3.976,-3.9646,-4.0154,-4.1463,-4.1497,-4.18,-4.2526,-4.2729,-4.301,-4.329,-4.329,-4.329,-4.329,-4.329,-4.32,-4.309,-4.3356,-4.3094,-4.2543,-4.2281,-4.167,-4.0822,-4.0532,-4.0707,-4.1111,-4.08,-4.1201,-4.1782,-4.0967,-4.0559,-4.0308,-4.0005,-3.9768,-3.961,-3.961,-3.961,-3.9589,-3.9445,-3.9388,-3.9388,-3.9388,-3.9388,-3.946,-3.9589,-3.9517,-3.9496,-3.9783,-3.9768,-3.9732,-3.9889,-4.0121,-4.0226,-4.0031,-4.0331,-4.0539,-4.0347,-4.0401,-4.0539,-4.0696,-4.0593,-4.0558,-4.0696,-4.0593,-4.0558,-4.0696,-4.0627,-4.0627,-4.073,-4.0677,-4.0765,-4.1003,-4.073,-4.0901,-4.1522,-4.139,-4.1588,-4.2109,-4.2012,-4.2109,-4.2445,-4.2109,-4.1963,-3.9963,-4.1031,-4.2023,-4.1973,-4.144,-4.1034,-4.14,-4.1444,-4.1624,-4.2228,-4.25,-4.2278,-4.1239,-3.9689,-3.8517,-3.8325,-3.8647,-3.8932,-3.8957,-3.9371,-3.9697,-3.9697,-3.9697,-3.9697,-3.9697,-3.9697,-3.9581,-3.931,-3.9258,-3.9042,-3.8436,-3.9473,-3.986,-3.938,-4.0859,-4.1813,-4.2032,-4.2875,-4.329,-4.329,-4.329,-4.329,-4.329,-4.329,-4.3,-4.2455,-4.2664,-4.2595,-4.2344,-4.1272,-4.0678,-4.0374,-3.9926,-4.0154,-4.0637,-4.0004,-4.02,-4.0704,-4.0004,-3.9649,-3.9505,-3.9661,-3.9589,-3.9424,-3.9424,-3.9424,-3.9409,-3.9388,-3.9388,-3.9388,-3.9388,-3.9388,-3.9388,-3.9409,-3.9424,-3.9424,-3.9424,-3.9589,-3.9681,-3.9717,-3.9717,-3.9803,-3.996,-4.0031,-4.0101,-4.0261,-4.0312,-4.0366,-4.0505,-4.0489,-4.0489,-4.0524,-4.0489,-4.0489,-4.0524,-4.0696,-4.0696,-4.0524,-4.0848,-4.1,-4.0833,-4.0799,-4.0953,-4.1323,-4.0833,-4.1055,-4.2109,-4.2077,-4.227,-4.2571,-4.2238,-4.2077,-4.0417,-4.1037,-4.1538,-4.1849,-4.1098,-4.051,-4.1243,-4.1422,-4.1482,-4.1722,-4.2464,-4.2782,-4.1869,-4.0732,-3.9586,-3.866,-3.8916,-3.9148,-3.8907,-3.9346,-3.9697,-3.9697,-3.9697,-3.9697,-3.9697,-3.9697,-3.9581,-3.931,-3.8289,-3.8188,-3.9412,-3.8853,-3.9162,-4.0574,-4.1043,-4.1506,-4.199,-4.2875,-4.329,-4.329,-4.329,-4.329,-4.329,-4.2895,-4.262,-4.2351,-4.155,-4.125,-4.128,-4.074,-4.0289,-3.992,-3.9607,-3.9724,-4.0013,-3.9643,-3.9739,-4.0013,-3.9643,-3.9445,-3.9409,-3.9481,-3.9445,-3.9388,-3.9388,-3.9388,-3.9388,-3.9388,-3.9388,-3.9388,-3.9388,-3.9388,-3.9388,-3.9388,-3.9388,-3.9388,-3.9388,-3.9445,-3.9517,-3.9517,-3.9625,-3.9696,-3.9625,-3.9818,-3.9996,-3.991,-4.0121,-4.0312,-4.0366,-4.047,-4.0489,-4.0489,-4.0489,-4.0489,-4.0489,-4.0558,-4.0558,-4.0489,-4.0643,-4.0677,-4.0627,-4.0593,-4.0662,-4.0783,-4.0593,-4.1021,-4.2109,-4.1883,-4.2013,-4.2476,-4.2349,-4.219,-4.0614,-4.0894,-4.0992,-4.1357,-4.0629,-3.9985,-4.0583,-4.107,-4.1422,-4.1422,-4.2417,-4.3115,-4.255,-4.193,-4.1057,-3.9595,-3.9368,-3.9336,-3.9076,-3.9411,-3.9697,-3.9697,-3.9697,-3.9697,-3.9697,-3.9697,-3.9645,-3.9426,-3.8241,-3.8157,-3.9685,-3.889,-3.9314,-4.1354,-4.1241,-4.1353,-4.1798,-4.2673,-4.309,-4.309,-4.3265,-4.317,-4.2985,-4.259,-4.2156,-4.1692,-4.0786,-4.0471,-4.0551,-4.0194,-3.9886,-3.9589,-3.9445,-3.9481,-3.9589,-3.9445,-3.9481,-3.9589,-3.946,-3.9388,-3.9388,-3.9388,-3.9388,-3.9388,-3.9388,-3.9388,-3.9388,-3.9388,-3.9388,-3.9388,-3.9388,-3.9388,-3.9388,-3.9388,-3.9388,-3.9388,-3.9388,-3.9388,-3.9388,-3.9388,-3.9517,-3.9553,-3.9409,-3.964,-3.9783,-3.9717,-3.9945,-4.0156,-4.0277,-4.0366,-4.0455,-4.0505,-4.0489,-4.0489,-4.0489,-4.0558,-4.0558,-4.0489,-4.0643,-4.0677,-4.0593,-4.0593,-4.0662,-4.0765,-4.0593,-4.0953,-4.1916,-4.172,-4.1851,-4.2318,-4.2381,-4.2238,0.0,0.0,0.0,-4.0511,-3.9951,-3.9424,-3.9373,-4.0382,-4.1324,-4.1392,-4.2402,-4.326,-4.326,-4.329,-4.2765,-4.1239,-4.0146,-3.9516,-3.9468,-3.9635,-3.9736,-3.9736,-3.9749,-3.9697,-3.9697,-3.9697,-3.9697,-3.9697,-3.9132,-3.8904,-3.9126,-3.9714,-4.0446,-4.1368,-4.1396,-4.1438,-4.1438,-4.2295,-4.2688,-4.2729,-4.309,-4.2985,-4.2396,-4.2381,-4.1662,-4.0397,-4.0382,-4.0367,-4.0322,-3.9679,-3.9388,-3.9388,-3.9388,-3.9388,-3.9388,-3.9388,-3.9388,-3.9388,-3.9388,-3.9388,-3.9388,-3.9388,-3.9388,-3.9388,-3.9388,-3.9388,-3.9388,-3.9388,-3.9388,-3.9388,-3.9388,-3.9388,-3.9388,-3.9388,-3.9388,-3.9388,-3.9388,-3.9388,-3.9388,-3.9388,-3.9388,-3.9388,-3.9388,-3.9388,-3.9445,-3.9646,-3.9696,-3.9839,-4.0226,-4.0277,-4.0331,-4.0489,-4.0489,-4.0505,-4.0489,-4.0696,-4.0696,-4.0524,-4.0864,-4.1,-4.0799,-4.0799,-4.0919,-4.129,-4.0765,-4.0851,-4.1555,-4.1588,-4.1753,-4.2077,-4.2286,-4.2206,-4.113,0.0,0.0,0.0,0.0,0.0,-3.8632,-3.9349,-4.0098,-4.0576,-4.1713,-4.2704,-4.2851,-4.2976,-4.2981,-4.2684,-4.231,-4.174,-4.0722,-4.0696,-4.0794,-4.0794,-4.0121,-3.9697,-3.9697,-3.9697,-3.9697,-3.9697,-3.8102,-3.8082,-4.0288,-4.0933,-4.1341,-4.1633,-4.1758,-4.1841,-4.1841,-4.2552,-4.2915,-4.2915,-4.317,-4.2985,-4.2381,-4.1916,-4.1303,-4.0573,-3.9961,-3.9751,-3.9881,-3.9535,-3.9388,-3.9388,-3.9388,-3.9388,-3.9388,-3.9388,-3.9388,-3.9388,-3.9388,-3.9388,-3.9388,-3.9388,-3.9388,-3.9388,-3.9388,-3.9388,-3.9388,-3.9388,-3.9388,-3.9388,-3.9388,-3.9388,-3.9388,-3.9388,-3.9388,-3.9388,-3.9388,-3.9388,-3.9388,-3.9388,-3.9388,-3.9388,-3.9388,-3.9388,-3.9409,-3.9481,-3.9625,-3.9753,-3.9859,-3.9996,-4.0137,-4.0331,-4.0381,-4.0401,-4.0489,-4.0558,-4.0558,-4.0489,-4.0608,-4.0643,-4.0593,-4.0593,-4.0627,-4.073,-4.0558,-4.0593,-4.0783,-4.1104,-4.1323,-4.1507,-4.1588,-4.1621,-4.1201,-4.0551,-3.9617,-3.9534,0.0,0.0,-3.8287,-3.914,-4.0023,-4.0666,-4.1848,-4.2635,-4.2226,-4.2329,-4.2414,-4.2404,-4.2581,-4.2524,-4.1807,-4.1279,-4.0995,-4.1193,-4.0313,-3.9697,-3.9697,-3.9697,-3.9597,-3.9371,-3.7927,-3.7994,-4.0073,-4.0765,-4.1296,-4.1688,-4.1744,-4.1758,-4.1758,-4.2307,-4.2673,-4.2875,-4.2808,-4.2581,-4.2205,-4.1453,-4.0865,-4.0362,-3.979,-3.9625,-3.9803,-3.9625,-3.9496,-3.9424,-3.9604,-3.9532,-3.9424,-3.9481,-3.9481,-3.9388,-3.9388,-3.9388,-3.9388,-3.9388,-3.9388,-3.9388,-3.9388,-3.9388,-3.9388,-3.9388,-3.9388,-3.9388,-3.9388,-3.9388,-3.9388,-3.9388,-3.9388,-3.9388,-3.9388,-3.9388,-3.9388,-3.9388,-3.9388,-3.9388,-3.9388,-3.9388,-3.9388,-3.9388,-3.9481,-3.9625,-3.9681,-3.9803,-3.998,-4.0277,-4.0312,-4.0331,-4.0489,-4.0489,-4.0489,-4.0489,-4.0489,-4.0489,-4.0489,-4.0489,-4.0489,-4.0489,-4.0489,-4.0489,-4.0489,-4.0901,-4.1189,-4.1423,-4.1357,-4.1357,-4.0756,-3.9928,-3.8927,-3.9157,-3.8088,0.0,-3.8072,-3.92,-4.0277,-4.101,-4.2028,-4.2447,-4.1369,-4.1355,-4.1423,-4.0963,-4.156,-4.2237,-4.2638,-4.1674,-4.1051,-4.1304,-4.0578,-3.9981,-3.989,-3.9776,-3.9498,-3.8957,-3.8464,-3.8519,-3.9176,-3.9984,-4.0859,-4.1702,-4.1549,-4.1438,-4.148,-4.1841,-4.2295,-4.2729,-4.2263,-4.2036,-4.1969,-4.114,-4.0474,-4.0031,-3.9803,-3.9839,-4.0031,-3.9839,-3.9661,-3.9496,-3.9818,-3.9747,-3.9496,-3.9661,-3.9589,-3.946,-3.946,-3.9424,-3.9424,-3.9424,-3.9388,-3.9388,-3.9388,-3.9388,-3.9388,-3.9388,-3.9388,-3.9388,-3.9388,-3.9388,-3.9388,-3.9388,-3.9388,-3.9388,-3.9388,-3.9388,-3.9388,-3.9388,-3.9388,-3.9388,-3.9388,-3.9388,-3.9388,-3.9388,-3.9388,-3.9445,-3.9661,-3.9661,-3.9803,-4.0191,-4.0242,-4.0331,-4.047,-4.0489,-4.0489,-4.0489,-4.0489,-4.0489,-4.0489,-4.0489,-4.0489,-4.0489,-4.0489,-4.0489,-4.0489,-4.0867,-4.1189,-4.1489,-4.1323,-4.1256,-3.9936,-3.9026,-3.8088,-3.7626,-3.7056,0.0,-3.7434,-3.7808,-3.8332,-3.9544,-3.9559,-3.9454,-3.9753,-4.0269,-4.0449,-3.9815,-4.0315,-4.1207,-4.2521,-4.292,-4.2911,-4.2461,-4.2086,-4.1631,-4.0982,-4.033,-3.9648,-3.8932,-3.9355,-3.9503,-3.9193,-4.0631,-4.1619,-4.1995,-4.1758,-4.1758,-4.1968,-4.2187,-4.2541,-4.2941,-4.246,-4.2166,-4.1969,-4.1264,-4.0705,-4.0242,-4.0031,-4.0066,-4.0242,-4.0207,-4.0051,-3.9854,-3.9803,-3.9803,-3.9854,-3.9732,-3.9768,-3.9854,-3.9696,-3.9661,-3.961,-3.9445,-3.9388,-3.9388,-3.9388,-3.9388,-3.9388,-3.9388,-3.9388,-3.9388,-3.9388,-3.9388,-3.9388,-3.9388,-3.9388,-3.9388,-3.9388,-3.9388,-3.9388,-3.9388,-3.9388,-3.9388,-3.9388,-3.9388,-3.9388,-3.9388,-3.9388,-3.9409,-3.9445,-3.9445,-3.9553,-3.9803,-3.996,-4.0137,-4.0331,-4.0436,-4.0489,-4.0489,-4.0489,-4.0489,-4.0489,-4.0489,-4.0489,-4.0489,-4.0401,-4.0331,-4.0331,-4.0539,-4.0662,-4.073,-4.0833,-4.0901,-3.9833,-3.8891,-3.7919,-3.7585,-3.676,0.0,0.0,-3.718,-3.7704,-3.8691,-3.8901,-3.8811,-3.8467,-3.8691,-3.8901,-3.8901,-3.8901,-3.9427,-4.0872,-4.1676,-4.2221,-4.2507,-4.1997,-4.1434,-4.0878,-4.006,-3.9118,-3.8139,-3.817,-3.8496,-3.9179,-4.0014,-4.0958,-4.2051,-4.1953,-4.1939,-4.2092,-4.2216,-4.2474,-4.2835,-4.2054,-4.176,-4.1938,-4.106,-4.0562,-4.0401,-4.0242,-4.0242,-4.0401,-4.0347,-4.0277,-4.0226,-4.0141,-4.0051,-4.0011,-3.998,-3.9996,-3.9996,-3.9889,-3.9768,-3.9681,-3.9589,-3.9481,-3.9388,-3.9388,-3.9388,-3.9388,-3.9388,-3.9388,-3.9388,-3.9388,-3.9388,-3.9388,-3.9388,-3.9388,-3.9388,-3.9388,-3.9388,-3.9388,-3.9388,-3.9388,-3.9388,-3.9388,-3.9388,-3.9388,-3.9388,-3.9388,-3.9388,-3.9388,-3.9388,-3.9496,-3.9696,-3.9803,-3.998,-4.0261,-4.0366,-4.0436,-4.0505,-4.0489,-4.0489,-4.0489,-4.0436,-4.0401,-4.0401,-4.0331,-4.0331,-4.0401,-4.047,-4.047,-4.0401,-4.0558,-4.0662,-3.9738,-3.889,-3.8031,-3.7773,-3.6785,-3.5983,0.0,0.0,0.0,-3.7913,-3.8362,-3.8332,-3.724,-3.715,-3.7404,-3.7943,-3.7584,-3.7704,-3.9035,-3.9718,-4.0541,-4.1766,-4.1497,-4.1028,-4.0589,-3.9499,-3.8488,-3.7645,-3.7198,-3.7691,-3.9373,-3.9651,-4.0474,-4.2051,-4.2092,-4.2092,-4.2092,-4.2092,-4.2325,-4.2673,-4.1518,-4.1264,-4.1856,-4.0766,-4.0331,-4.0489,-4.0401,-4.0401,-4.0489,-4.0366,-4.0401,-4.0489,-4.0455,-4.0296,-4.0101,-4.0242,-4.0207,-4.0101,-4.0066,-3.996,-3.9788,-3.9732,-3.9553,-3.9388,-3.9388,-3.9388,-3.9388,-3.9388,-3.9388,-3.9388,-3.9388,-3.9388,-3.9388,-3.9388,-3.9388,-3.9388,-3.9388,-3.9388,-3.9388,-3.9388,-3.9388,-3.9388,-3.9388,-3.9388,-3.9388,-3.9388,-3.9388,-3.9388,-3.9388,-3.9388,-3.9445,-3.961,-3.9696,-3.9839,-4.0172,-4.0349,-4.053,-4.0655,-4.0812,-4.0843,-4.0705,-4.0477,-4.0347,-4.0312,-4.0277,-4.0312,-4.0385,-4.0385,-4.0366,-4.0331,-4.047,-4.0489,-3.8747,-3.8462,-3.8072,-3.6948,-3.6929,-3.706,-3.6596,0.0,-3.6611,-3.6686,0.0,-3.5908,-3.5744,0.0,0.0,-3.6686,-3.6641,-3.7045,-3.8317,-3.8585,-3.906,-4.0138,-4.1368,-4.1764,-4.0857,-3.9011,-3.8149,-3.8917,-3.8939,-3.9329,-4.0375,-4.1311,-4.187,-4.2092,-4.2092,-4.2092,-4.2092,-4.2092,-4.2325,-4.2673,-4.1376,-4.1164,-4.1856,-4.0588,-4.0207,-4.0489,-4.0489,-4.0489,-4.0489,-4.0489,-4.0489,-4.0489,-4.0366,-4.0366,-4.0436,-4.0347,-4.0366,-4.0436,-4.0296,-4.0242,-4.0156,-3.9839,-3.9553,-3.9388,-3.9388,-3.9388,-3.9388,-3.9388,-3.9388,-3.9388,-3.9388,-3.9388,-3.9388,-3.9388,-3.9388,-3.9388,-3.9388,-3.9388,-3.9388,-3.9388,-3.9388,-3.9388,-3.9388,-3.9388,-3.9388,-3.9388,-3.9388,-3.9388,-3.9388,-3.9388,-3.9424,-3.9424,-3.9589,-3.9732,-3.9753,-4.0634,-4.1199,-4.1199,-4.1909,-4.2109,-4.1509,-4.0828,-4.0436,-4.0312,-4.0137,-4.0031,-4.0066,-4.0066,-4.0207,-4.0489,-4.0489,-4.0489,-3.9993,-3.9574,-3.8856,-3.8317,-3.7793,-3.7345,-3.709,-3.6447,-3.5923,-3.5923,0.0,0.0,0.0,0.0,0.0,0.0,-3.6163,-3.6357,-3.7644,-3.7823,-3.8311,-3.9676,-4.0753,-4.1247,-4.0873,-3.9392,-3.8724,-3.9363,-3.8972,-3.9086,-4.0055,-4.083,-4.1493,-4.2092,-4.2092,-4.2092,-4.2092,-4.2092,-4.1971,-4.1766,-4.1043,-4.0666,-4.0681,-4.0206,-4.0066,-4.0226,-4.0436,-4.0489,-4.0489,-4.0489,-4.0489,-4.0489,-4.0436,-4.0455,-4.0489,-4.0436,-4.0455,-4.0489,-4.0436,-4.0366,-4.0226,-3.9839,-3.9661,-3.9553,-3.946,-3.9481,-3.9553,-3.9424,-3.9481,-3.9553,-3.9424,-3.9388,-3.9388,-3.9388,-3.9388,-3.9388,-3.9388,-3.9388,-3.9388,-3.9388,-3.9388,-3.9388,-3.9388,-3.9388,-3.9388,-3.9388,-3.9388,-3.9388,-3.9388,-3.9388,-3.9388,-3.9388,-3.9826,-4.016,-4.0269,-4.1143,-4.1757,-4.1851,-4.2324,-4.2442,-4.2027,-4.1699,-4.1531,-4.1474,-4.1258,-4.1222,-4.133,-4.0842,-4.07,-4.0902,-4.0639,-4.0489,-4.1654,-4.122,-4.033,-3.9828,-3.8811,-3.7823,-3.7285,-3.6297,-3.5504,-3.5504,-3.5504,0.0,0.0,0.0,-3.5729,-3.6372,0.0,-3.5893,-3.7,-3.73,-3.7898,-3.918,-4.0037,-4.0559,-4.0658,-3.9772,-3.9334,-3.9773,-3.9239,-3.9227,-4.0024,-4.0688,-4.1339,-4.2092,-4.2092,-4.2092,-4.2092,-4.2092,-4.1758,-4.1091,-4.0714,-4.0264,-3.9807,-3.9817,-3.9889,-4.0031,-4.0366,-4.0489,-4.0489,-4.0489,-4.0489,-4.0489,-4.0489,-4.0489,-4.0489,-4.0489,-4.0489,-4.0489,-4.0489,-4.0401,-4.0242,-3.9945,-3.9839,-3.9732,-3.9553,-3.9589,-3.9661,-3.9517,-3.9553,-3.9589,-3.9517,-3.9445,-3.9388,-3.9388,-3.9388,-3.9388,-3.9388,-3.9388,-3.9388,-3.9388,-3.9388,-3.9388,-3.9388,-3.9388,-3.9388,-3.9388,-3.9388,-3.9388,-3.9388,-3.9388,-3.9448,-3.9664,-4.0113,-4.0546,-4.0858,-4.1692,-4.2386,-4.2814,-4.275,-4.268,-4.2591,-4.2408,-4.2279,-4.2206,-4.2058,-4.2058,-4.2206,-4.155,-4.1255,-4.1361,-4.0749,-4.0455,-4.323,-4.32,-4.2707,-4.0846,-3.9858,-3.8856,-3.6956,-3.5998,-3.5504,-3.5504,-3.5504,-3.5504,-3.5504,-3.5504,-3.5729,-3.6372,-3.5938,0.0,0.0,-3.703,-3.7674,-3.8377,-3.9422,-4.0144,-4.0128,-3.9819,-3.9783,-4.0319,-4.0282,-4.0464,-4.101,-4.1688,-4.2051,-4.2092,-4.2092,-4.2092,-4.2092,-4.2092,-4.1758,-4.1091,-4.0423,-4.0018,-3.977,-3.9548,-3.9646,-4.0031,-4.0366,-4.0489,-4.0489,-4.0489,-4.0489,-4.0489,-4.0489,-4.0489,-4.0489,-4.0489,-4.0489,-4.0489,-4.0489,-4.0401,-4.0312,-4.0277,-4.0137,-3.996,-3.9768,-3.9681,-3.9681,-3.9681,-3.9553,-3.9445,-3.9661,-3.9553,-3.9388,-3.9388,-3.9388,-3.9388,-3.9388,-3.9388,-3.9388,-3.9388,-3.9388,-3.9388,-3.9388,-3.9388,-3.9388,-3.9388,-3.9388,-3.9388,-3.9388,-3.9388,-3.9664,-4.0307,-4.0382,-4.0666,-4.1332,-4.2159,-4.3129,-4.4174,-4.3457,-4.3069,-4.3242,-4.2615,-4.2206,-4.2021,-4.1999,-4.1999,-4.1999,-4.1798,-4.1768,-4.1826,-4.0802,-4.0366,-4.4392,-4.4317,-4.3823,-4.3165,-4.1519,-3.9888,-3.923,-3.7225,-3.5504,-3.5504,-3.5504,-3.5504,-3.5504,-3.5504,-3.5579,-3.5804,-3.5654,-3.5729,0.0,-3.7389,-3.8302,-3.899,-3.9397,-3.9987,-4.0853,-3.9927,-3.9761,-4.0952,-4.0266,-3.9916,-4.0217,-4.1004,-4.1439,-4.1439,-4.186,-4.2092,-4.2092,-4.2092,-4.1541,-4.0437,-4.0205,-3.963,-3.8748,-3.8922,-3.909,-3.9235,-3.991,-4.0172,-4.0207,-4.0401,-4.0489,-4.0489,-4.0489,-4.0489,-4.0489,-4.0489,-4.0489,-4.0489,-4.0489,-4.0455,-4.0436,-4.0347,-4.0242,-4.0172,-3.996,-3.9996,-4.0051,-3.996,-3.996,-3.998,-3.9925,-3.9732,-3.9589,-3.9589,-3.9481,-3.9388,-3.9388,-3.9388,-3.9388,-3.9388,-3.9388,-3.9388,-3.9388,-3.9388,-3.9388,-3.9388,-3.9388,-3.9574,-4.0008,-4.0068,-4.0322,-4.098,-4.1482,-4.1826,-4.2051,-4.2851,-4.3551,-4.4089,-4.3953,-4.3831,-4.3754,-4.3693,-4.3609,-4.3533,-4.3381,-4.3305,-4.3305,-4.269,-4.2372,-4.2349,-4.1578,-4.1389,-4.5783,-4.5708,-4.5259,-4.4781,-4.321,-4.1609,-4.0905,-3.8931,-3.718,-3.6941,-3.6896,-3.6746,-3.6267,-3.6193,-3.6028,-3.5579,-3.5504,-3.5729,0.0,-3.7195,-3.8048,-3.8945,-3.9484,-4.0008,-4.0621,-4.0076,-3.9971,-4.0636,-4.0091,-3.962,-3.9445,-4.0514,-4.0989,-4.0742,-4.1628,-4.2092,-4.2092,-4.2092,-4.1424,-4.0104,-4.0104,-3.9421,-3.8202,-3.8598,-3.8782,-3.8855,-3.9661,-4.0011,-4.0031,-4.0366,-4.0489,-4.0489,-4.0489,-4.0489,-4.0489,-4.0489,-4.0489,-4.0489,-4.0489,-4.0489,-4.0489,-4.0401,-4.0366,-4.0331,-4.0172,-4.0137,-4.0172,-4.0046,-4.0031,-4.0051,-4.0031,-3.9889,-3.9803,-3.9732,-3.9589,-3.9481,-3.9424,-3.9388,-3.9388,-3.9388,-3.9388,-3.9499,-3.9723,-3.9768,-3.9768,-3.9768,-3.9768,-4.0008,-4.0666,-4.0756,-4.0995,-4.1692,-4.2141,-4.25,-4.2686,-4.3223,-4.3636,-4.3871,-4.3934,-4.3934,-4.391,-4.4026,-4.4195,-4.4384,-4.4055,-4.3992,-4.4204,-4.3359,-4.2911,-4.2842,-4.2436,-4.247]},{"header":{"parameterUnit":"m.s-1","parameterCategory":1,"la1":30.6,"la2":29.2853,"lo1":-89.7004,"lo2":-87.6739,"dy":0.0162,"dx":0.0183,"nx":112,"ny":82,"refTime":"2024-04-27T12:00:00:Z","depth":0,"parameterNumber":3,"parameterNumberName":"V-component_of_WINDS"},"data":[0.0,0.0,0.0,0.0,0.0,0.0,0.0,0.0,0.0,0.0,0.0,0.0,0.0,0.0,0.0,0.0,0.0,0.0,0.0,0.0,0.0,0.0,0.0,0.0,0.0,0.0,0.0,0.0,0.0,0.0,0.0,0.0,0.0,0.0,0.0,0.0,0.0,0.0,0.0,0.0,0.0,0.0,0.0,0.0,0.0,0.0,0.0,0.0,0.0,0.0,0.0,0.0,0.0,0.0,0.0,0.0,0.0,0.0,0.0,0.0,0.0,0.0,0.0,0.0,0.0,0.0,0.0,0.0,0.0,0.0,0.0,0.0,0.0,0.0,0.0,0.0,0.0,0.0,0.0,0.0,0.0,0.0,0.0,0.0,0.0,0.0,0.0,0.0,0.0,0.0,0.4478,0.4377,0.4138,0.4045,0.4045,0.4045,0.4236,0.4698,0.0,0.0,0.0,0.0,0.0,0.0,0.0,0.0,0.0,0.0,0.0,0.0,0.0,0.0,0.0,0.0,0.0,0.0,0.0,0.0,0.0,0.0,0.0,0.0,0.0,0.0,0.0,0.0,0.0,0.0,0.0,0.0,0.0,0.0,0.0,0.0,0.0,0.0,0.0,0.0,0.0,0.0,0.0,0.0,0.0,0.0,0.0,0.0,0.0,0.0,0.0,0.0,0.0,0.0,0.0,0.0,0.0,0.0,0.0,0.0,0.0,0.0,0.0,0.0,0.0,0.0,0.0,0.0,0.0,0.0,0.0,0.0,0.0,0.0,0.0,0.0,0.0,0.0,0.0,0.0,0.0,0.0,0.0,0.0,0.0,0.0,0.0,0.0,0.0,0.0,0.0,0.0,0.0,0.0,0.0,0.0,0.0,0.0,0.0,0.0,0.0,0.0,0.0,0.0,0.471,0.4749,0.4654,0.4563,0.4563,0.4563,0.4705,0.4964,0.0,0.0,0.0,0.0,0.0,0.0,0.0,0.0,0.0,0.0,0.0,0.0,0.0,0.0,0.0,0.0,0.0,0.0,0.0,0.0,0.0,0.0,0.0,0.0,0.0,0.0,0.0,0.0,0.0,0.0,0.0,0.0,0.0,0.0,0.0,0.0,0.0,0.0,0.0,0.0,0.0,0.0,0.0,0.0,0.0,0.0,0.0,0.0,0.0,0.0,0.0,0.0,0.0,0.0,0.0,0.0,0.0,0.0,0.0,0.0,0.0,0.0,0.0,0.0,0.0,0.0,0.0,0.0,0.0,0.0,0.0,0.0,0.0,0.0,0.0,0.0,0.0,0.0,0.0,0.0,0.0,0.0,0.0,0.0,0.0,0.0,0.0,0.0,0.0,0.0,0.0,0.0,0.0,0.0,0.0,0.0,0.0,0.0,0.0,0.0,0.0,0.0,0.0,0.4603,0.466,0.4516,0.4609,0.4707,0.4707,0.4707,0.4793,0.5003,0.4628,0.0,0.0,0.0,0.0,0.0,0.0,0.0,0.0,0.0,0.0,0.0,0.0,0.0,0.0,0.0,0.0,0.0,0.0,0.0,0.0,0.0,0.0,0.0,0.0,0.0,0.0,0.0,0.0,0.0,0.0,0.0,0.0,0.0,0.0,0.0,0.0,0.0,0.0,0.0,0.0,0.0,0.0,0.0,0.0,0.0,0.0,0.0,0.0,0.0,0.0,0.0,0.0,0.0,0.0,0.0,0.0,0.0,0.0,0.0,0.0,0.0,0.0,0.0,0.0,0.0,0.0,0.0,0.0,0.0,0.0,0.0,0.0,0.0,0.0,0.0,0.0,0.0,0.0,0.0,0.0,0.0,0.0,0.0,0.0,0.0,0.0,0.0,0.0,0.0,0.0,0.0,0.0,0.0,0.0,0.0,0.0,0.0,0.0,0.0,0.0,0.0,0.0,0.5036,0.5099,0.4731,0.4721,0.477,0.477,0.4828,0.4919,0.5087,0.5083,0.0,0.0,0.0,0.0,0.0,0.0,0.0,0.0,0.0,0.0,0.0,0.0,0.0,0.0,0.0,0.0,0.0,0.0,0.0,0.0,0.0,0.0,0.0,0.0,0.0,0.0,0.0,0.0,0.0,0.0,0.0,0.0,0.0,0.0,0.0,0.0,0.0,0.0,0.0,0.0,0.0,0.0,0.0,0.0,0.0,0.0,0.0,0.0,0.0,0.0,0.0,0.0,0.0,0.0,0.0,0.0,0.0,0.0,0.0,0.0,0.0,0.0,0.0,0.0,0.0,0.0,0.0,0.0,0.0,0.0,0.0,0.0,0.0,0.0,0.0,0.0,0.0,0.0,0.0,0.0,0.0,0.0,0.0,0.0,0.0,0.0,0.0,0.0,0.0,0.0,0.0,0.0,0.0,0.0,0.0,0.0,0.0,0.0,0.0,0.0,0.0,0.0,0.6999,0.6701,0.6296,0.5443,0.4892,0.4892,0.5174,0.5342,0.5392,0.539,0.0,0.0,0.0,0.0,0.0,0.0,0.0,0.0,0.0,0.0,0.0,0.0,0.0,0.0,0.0,0.0,0.0,0.0,0.0,0.0,0.0,0.0,0.0,0.0,0.0,0.0,0.0,0.0,0.0,0.0,0.0,0.0,0.0,0.0,0.0,0.0,0.0,0.0,0.0,0.0,0.0,0.0,0.0,0.0,0.0,0.0,0.0,0.0,0.0,0.0,0.0,0.0,0.0,0.0,0.0,0.0,0.0,0.0,0.0,0.0,0.0,0.0,0.0,0.0,0.0,0.0,0.0,0.0,0.0,0.0,0.0,0.0,0.0,0.0,0.0,0.0,0.0,0.0,0.0,0.0,0.0,0.0,0.0,0.0,0.0,0.0,0.0,0.0,0.0,0.0,0.0,0.0,0.0,0.0,0.0,0.0,0.0,0.0,0.0,0.0,0.0,0.0,0.8036,0.7932,0.7206,0.6951,0.6538,0.5817,0.5877,0.571,0.5098,0.0,0.0,0.0,0.0,0.0,0.0,0.0,0.0,0.0,0.0,0.0,0.0,0.0,0.0,0.0,0.0,0.0,0.0,0.0,0.0,0.0,0.0,0.0,0.0,0.0,0.0,0.0,0.0,0.0,0.0,0.0,0.0,0.0,0.0,0.0,0.0,0.0,0.0,0.0,0.0,0.0,0.0,0.0,0.0,0.0,0.0,0.0,0.0,0.0,0.0,0.0,0.0,0.0,0.0,0.0,0.0,0.0,0.0,0.0,0.0,0.0,0.0,0.0,0.0,0.0,0.0,0.0,0.0,0.0,0.0,0.0,0.0,0.0,0.0,0.0,0.0,0.0,0.0,0.0,0.0,0.0,0.0,0.0,0.0,0.0,0.0,0.0,0.0,0.0,0.0,0.0,0.0,0.0,0.0,0.0,0.0,0.0,0.0,0.0,0.0,0.0,0.0,0.941,0.952,0.9343,0.842,0.8195,0.7753,0.6816,0.6816,0.6398,0.5456,0.0,0.0,0.0,0.0,0.0,0.0,0.0,0.0,0.0,0.0,0.0,0.0,0.0,0.0,0.0,0.0,0.0,0.0,0.0,0.0,0.0,0.0,0.0,0.0,0.0,0.0,0.0,0.0,0.0,0.0,0.0,0.0,0.0,0.0,0.0,0.0,0.0,0.0,0.0,0.0,0.0,0.0,0.0,0.0,0.0,0.0,0.0,0.0,0.0,0.0,0.0,0.0,0.0,0.0,0.0,0.0,0.0,0.0,0.0,0.0,0.0,0.0,0.0,0.0,0.0,0.0,0.0,0.0,0.0,0.0,0.0,0.0,0.0,0.0,0.0,0.0,0.0,0.0,0.0,0.0,0.0,0.0,0.0,0.0,0.0,0.0,0.0,0.0,0.0,0.0,0.0,0.0,0.0,0.0,0.0,0.0,0.0,0.0,0.0,0.0,0.0,0.0,1.1869,1.162,1.1093,0.9959,0.9075,0.8306,0.77,0.7864,0.7535,0.0,0.0,0.0,0.0,0.0,0.0,0.0,0.0,0.0,0.0,0.0,0.0,0.0,0.0,0.0,0.0,0.0,0.0,0.0,0.0,0.0,0.0,0.0,0.0,0.0,0.0,0.0,0.0,0.0,0.0,0.0,0.0,0.0,0.0,0.0,0.0,0.0,0.0,0.0,0.0,0.0,0.0,0.0,0.0,0.0,0.0,0.0,0.0,0.0,0.0,0.0,0.0,0.0,0.0,0.0,0.0,0.0,0.0,0.0,0.0,0.0,0.0,0.0,0.0,0.0,0.0,0.0,0.0,0.0,0.0,0.0,0.0,0.0,0.0,0.0,0.0,0.0,0.0,0.0,0.0,0.0,0.0,0.0,0.0,0.0,0.0,0.0,0.0,0.0,0.0,0.0,0.0,0.0,0.0,0.0,0.0,0.0,0.0,0.0,0.0,0.0,0.0,0.0,1.2437,1.2602,1.2481,1.1723,1.1391,1.0676,0.9244,0.9244,0.857,0.702,0.0,0.0,0.0,0.0,0.0,0.0,0.0,0.0,0.0,0.0,0.0,0.0,0.0,0.0,0.0,0.0,0.0,0.0,0.0,0.0,0.0,0.0,0.0,0.0,0.0,0.0,0.0,0.0,0.0,0.0,0.0,0.0,0.0,0.0,0.0,0.0,0.0,0.0,0.0,0.0,0.0,0.0,0.0,0.0,0.0,0.0,0.0,0.0,0.0,0.0,0.0,0.0,0.0,0.0,0.0,0.0,0.0,0.0,0.0,0.0,0.0,0.0,0.0,0.0,0.0,0.0,0.0,0.0,0.0,0.0,0.0,0.0,0.0,0.0,0.0,0.0,0.0,0.0,0.0,0.0,0.0,0.0,0.0,0.0,0.0,0.0,0.0,0.0,0.0,0.0,0.0,0.0,0.0,0.0,0.0,0.0,0.0,0.0,0.0,0.0,0.0,0.0,1.3008,1.336,1.3423,1.2822,1.2767,1.2219,1.0954,1.0625,0.9876,0.8335,0.0,0.0,0.0,0.0,0.0,0.0,0.0,0.0,0.0,0.0,0.0,0.0,0.0,0.0,0.0,0.0,0.0,0.0,0.0,0.0,0.0,0.0,0.0,0.0,0.0,0.0,0.0,0.0,0.0,0.0,0.0,0.0,0.0,0.0,0.0,0.0,0.0,0.0,0.0,0.0,0.0,0.0,0.0,0.0,0.0,0.0,0.0,0.0,0.0,0.0,0.0,0.0,0.0,0.0,0.0,0.0,0.0,0.0,0.0,0.0,0.0,0.0,0.0,0.0,0.0,0.0,0.0,0.0,0.0,0.0,0.0,0.0,0.0,0.0,0.0,0.0,0.0,0.0,0.0,0.0,0.0,0.0,0.0,0.0,0.0,0.0,0.0,0.0,0.0,0.0,0.0,0.0,0.0,0.0,0.0,0.0,0.0,0.0,0.0,0.0,0.0,0.0,1.348,1.3895,1.3975,1.3428,1.3369,1.3152,1.255,1.206,1.1294,1.0228,0.0,0.0,0.0,0.0,0.0,0.0,0.0,0.0,0.0,0.0,0.0,0.0,0.0,0.0,0.0,0.0,0.0,0.0,0.0,0.0,0.0,0.0,0.0,0.0,0.0,0.0,0.0,0.0,0.0,0.0,0.0,0.0,0.0,0.0,0.0,0.0,0.0,0.0,0.0,0.0,0.0,0.0,0.0,0.0,0.0,0.0,0.0,0.0,0.0,0.0,0.0,0.0,0.0,0.0,0.0,0.0,0.0,0.0,0.0,0.0,2.3487,2.2213,0.0,0.0,0.0,0.0,0.0,0.0,0.0,0.0,0.0,0.0,0.0,0.0,0.0,0.0,0.0,0.0,0.0,0.0,0.0,0.0,0.0,0.0,0.0,0.0,0.0,0.0,0.0,0.0,0.0,0.0,0.0,0.0,0.0,0.0,0.0,0.0,0.0,0.0,0.0,0.0,1.3502,1.3895,1.4137,1.4029,1.4029,1.3753,1.3152,1.2989,1.2534,1.1534,1.1351,0.0,0.0,0.0,0.0,0.0,0.0,0.0,0.0,0.0,0.0,0.0,0.0,0.0,0.0,0.0,0.0,0.0,0.0,0.0,0.0,0.0,0.0,0.0,0.0,0.0,0.0,0.0,0.0,0.0,0.0,0.0,0.0,0.0,0.0,0.0,0.0,0.0,0.0,0.0,0.0,0.0,0.0,0.0,0.0,0.0,0.0,0.0,0.0,0.0,0.0,0.0,0.0,0.0,0.0,0.0,0.0,0.0,0.0,0.0,2.46,2.385,0.0,0.0,0.0,0.0,0.0,0.0,0.0,0.0,0.0,0.0,0.0,0.0,0.0,0.0,0.0,0.0,0.0,0.0,0.0,0.0,0.0,0.0,0.0,0.0,0.0,0.0,0.0,0.0,0.0,0.0,0.0,0.0,0.0,0.0,0.0,0.0,0.0,0.0,0.0,0.0,1.3491,1.3895,1.4196,1.4196,1.4196,1.4083,1.3753,1.3478,1.3111,1.2616,1.204,0.0,0.0,0.0,0.0,0.0,0.0,0.0,0.0,0.0,0.0,0.0,0.0,0.0,0.0,0.0,0.0,0.0,0.0,0.0,0.0,0.0,0.0,0.0,0.0,0.0,0.0,0.0,0.0,0.0,0.0,0.0,0.0,0.0,0.0,0.0,0.0,0.0,0.0,0.0,0.0,0.0,0.0,0.0,0.0,0.0,0.0,0.0,0.0,0.0,0.0,0.0,0.0,0.0,2.6691,2.6436,2.6287,2.5969,2.5977,2.6218,2.5284,2.526,2.5799,2.477,0.0,0.0,0.0,0.0,0.0,0.0,0.0,0.0,0.0,0.0,0.0,0.0,0.0,0.0,0.0,0.0,0.0,0.0,0.0,0.0,0.0,0.0,1.7984,1.7561,1.7994,1.8331,1.7811,0.0,0.0,0.0,0.0,0.0,0.0,0.0,0.0,0.0,0.0,0.0,1.3997,1.4439,1.4724,1.4724,1.4563,1.4455,1.4401,1.3753,1.3369,1.3315,1.2336,1.1741,0.0,0.0,0.0,0.0,0.0,0.0,0.0,0.0,0.0,0.0,0.0,0.0,0.0,0.0,0.0,0.0,0.0,0.0,0.0,0.0,0.0,0.0,0.0,0.0,0.0,0.0,0.0,0.0,0.0,0.0,0.0,0.0,2.7558,2.8202,0.0,0.0,0.0,0.0,0.0,0.0,0.0,0.0,0.0,0.0,0.0,0.0,0.0,2.7017,2.7127,2.7493,2.7391,2.6769,2.7017,2.6893,2.6416,2.6306,2.6167,2.5818,2.5104,0.0,2.6313,2.6442,0.0,0.0,0.0,0.0,0.0,0.0,0.0,0.0,0.0,0.0,0.0,0.0,0.0,0.0,0.0,0.0,0.0,0.0,0.0,0.0,0.0,0.0,2.0444,2.0336,2.0366,2.0376,2.0128,1.7946,1.6067,1.6229,1.6047,1.5907,0.0,0.0,0.0,0.0,0.0,0.0,1.5937,1.6415,1.6717,1.6717,1.6074,1.5547,1.5292,1.4283,1.3537,1.3315,1.3151,1.268,1.1888,1.206,0.0,0.0,0.0,0.0,0.0,0.0,0.0,0.0,0.0,0.0,0.0,0.0,0.0,0.0,0.0,0.0,0.0,0.0,0.0,0.0,0.0,0.0,0.0,0.0,0.0,0.0,0.0,0.0,0.0,2.9339,2.9497,2.9066,2.9439,2.9329,0.0,0.0,0.0,0.0,0.0,0.0,0.0,0.0,0.0,2.7345,2.7438,2.7521,2.7618,2.7698,2.7454,2.7001,2.6798,2.6358,2.5735,2.5735,2.5535,2.522,2.4945,2.5057,2.5509,2.5637,2.5389,2.4994,0.0,0.0,0.0,0.0,2.2531,2.2433,2.247,2.2576,2.2716,2.2671,0.0,0.0,0.0,0.0,0.0,0.0,0.0,2.0047,2.0494,2.0612,2.0678,2.0877,2.0907,2.0836,2.0739,1.9494,1.8239,1.7484,1.7324,1.707,1.6537,1.6163,0.0,0.0,0.0,1.5994,1.6349,1.6703,1.6882,1.6882,1.6717,1.6446,1.614,1.582,1.55,1.5238,1.5078,1.4815,1.4384,1.4195,1.372,0.0,0.0,0.0,0.0,0.0,0.0,0.0,0.0,0.0,0.0,0.0,0.0,0.0,0.0,0.0,0.0,0.0,0.0,0.0,0.0,0.0,0.0,0.0,0.0,0.0,0.0,0.0,0.0,3.083,3.1045,3.0147,3.0817,3.0774,0.0,0.0,0.0,0.0,0.0,0.0,2.7381,2.7344,2.7519,2.7977,2.8271,2.8401,2.8279,2.8087,2.7642,2.6911,2.6466,2.5916,2.534,2.534,2.5238,2.5034,2.4923,2.4923,2.4898,2.4787,2.4828,2.4974,2.4826,2.4296,2.3639,2.3241,2.2917,2.2683,2.2895,2.3006,2.309,2.3045,2.2789,2.2336,2.1566,0.0,0.0,0.0,0.0,2.0304,2.0727,2.0914,2.1044,2.1261,2.1326,2.1275,2.1121,2.0899,2.0366,1.9175,1.8912,1.8578,1.7538,1.7177,0.0,1.7035,1.6835,1.6794,1.7125,1.733,1.747,1.747,1.7463,1.7305,1.7041,1.6929,1.677,1.6511,1.6299,1.6187,1.6187,1.5749,1.5399,1.5167,0.0,0.0,0.0,0.0,0.0,0.0,0.0,0.0,0.0,0.0,0.0,0.0,0.0,0.0,0.0,0.0,0.0,0.0,0.0,0.0,0.0,0.0,0.0,0.0,0.0,0.0,0.0,0.0,0.0,3.1124,3.2067,0.0,0.0,0.0,0.0,3.0609,3.0578,3.0463,3.0141,3.0089,3.0089,3.0141,3.0162,2.9711,2.8674,2.8641,2.7837,2.6154,2.6099,2.598,2.5679,2.5679,2.5688,2.5633,2.534,2.5174,2.5174,2.4898,2.4795,2.4774,2.4036,2.3735,2.3632,2.2911,2.2835,2.3091,2.3091,2.3322,2.3665,2.3665,2.2805,2.1751,2.1345,2.0622,0.0,0.0,2.0908,2.1255,2.179,2.2203,2.2467,2.2493,2.2493,2.2342,2.1776,2.1603,2.1454,2.1178,2.0867,2.0576,2.0261,0.0,1.8868,1.9005,1.8201,1.7904,1.8998,1.9413,1.9576,1.9576,1.884,1.8206,1.7937,1.6929,1.624,1.5968,1.5914,1.5914,1.5914,1.5914,1.5849,1.5872,1.5215,0.0,0.0,0.0,0.0,0.0,0.0,0.0,0.0,0.0,0.0,0.0,0.0,0.0,0.0,0.0,0.0,0.0,0.0,0.0,0.0,0.0,0.0,0.0,0.0,0.0,0.0,0.0,0.0,3.1422,3.2459,0.0,3.1625,3.167,3.1421,3.0557,3.1021,3.1047,3.0484,3.0452,3.0452,3.0452,3.0452,3.0106,2.946,2.946,2.8764,2.7438,2.7438,2.6907,2.5962,2.6744,2.6952,2.6799,2.669,2.6636,2.6518,2.5496,2.4824,2.4338,2.371,2.3559,2.3684,2.3418,2.3401,2.3468,2.3468,2.34,2.3271,2.3074,2.2664,2.2274,2.213,2.1895,2.1694,2.1852,2.1995,2.2138,2.2347,2.25,2.2544,2.2333,2.2434,2.2493,2.203,2.2139,2.2239,2.2165,2.1428,2.0783,2.0684,2.0424,2.019,2.0216,1.9656,1.9376,1.9761,1.9576,1.9428,1.9428,1.9316,1.9153,1.884,1.8624,1.8356,1.8101,1.8101,1.8101,1.8101,1.8101,1.8101,1.8101,1.7829,1.7335,0.0,0.0,0.0,0.0,0.0,0.0,0.0,0.0,0.0,0.0,0.0,0.0,0.0,0.0,0.0,0.0,0.0,0.0,0.0,0.0,0.0,0.0,0.0,0.0,0.0,3.2485,3.2942,3.213,3.2969,3.3306,3.2276,3.2316,3.2117,3.137,3.1841,3.1933,3.1461,3.142,3.142,3.142,3.142,3.1114,3.0494,3.0494,2.9911,2.8754,2.8754,2.8286,2.7394,2.8169,2.8357,2.8018,2.8058,2.7985,2.7743,2.6567,2.5819,2.5388,2.3855,2.3324,2.3355,2.3227,2.3228,2.334,2.334,2.3126,2.2877,2.268,2.2594,2.2594,2.2594,2.2594,2.2594,2.2594,2.2594,2.2594,2.2594,2.2594,2.2544,2.2182,2.2283,2.2333,2.203,2.2139,2.2298,2.2417,2.1887,2.1329,2.0998,2.0986,2.0817,2.0257,2.0058,1.9953,1.975,1.9696,1.9567,1.9368,1.9664,1.968,1.9324,1.9428,1.9457,1.9316,1.9273,1.9265,1.9324,1.9273,1.9265,1.9265,1.9257,1.8777,1.7816,0.0,0.0,0.0,0.0,0.0,0.0,0.0,0.0,0.0,0.0,0.0,0.0,0.0,0.0,0.0,0.0,0.0,0.0,0.0,0.0,0.0,0.0,0.0,3.1749,3.2306,3.2942,3.3178,3.3674,3.391,3.3726,3.3431,3.3281,3.3281,3.3281,3.3281,3.3281,3.3281,3.3281,3.3281,3.3281,3.2745,3.1677,3.1626,3.1062,2.9974,2.9974,2.9922,2.9922,2.9922,2.9673,2.928,2.9507,2.9289,2.8737,2.8036,2.787,2.7769,2.4553,2.3111,2.2704,2.2265,2.2384,2.2695,2.2677,2.2686,2.2695,2.2695,2.2695,2.2695,2.2695,2.2695,2.2695,2.2695,2.2695,2.2644,2.2644,2.2594,2.2493,2.2232,2.2123,2.2072,2.1827,2.1762,2.1818,2.2156,2.2485,2.2373,2.1404,2.1238,2.0777,1.931,1.9517,0.0,1.9166,1.9789,2.01,1.9562,1.988,1.9872,1.9376,1.9279,1.9227,1.9361,1.9279,1.9292,1.9316,1.9271,1.9201,1.9194,1.9128,1.8964,1.8774,0.0,0.0,0.0,0.0,0.0,0.0,0.0,0.0,0.0,0.0,0.0,0.0,0.0,0.0,0.0,0.0,0.0,0.0,0.0,0.0,0.0,3.444,3.4728,3.4505,3.4032,3.3702,3.3789,3.3927,3.386,3.3427,3.3331,3.3281,3.3281,3.3281,3.3281,3.3281,3.3281,3.3281,3.3281,3.3281,3.3119,3.2857,3.2846,3.2269,3.1114,3.1114,3.0701,2.9922,3.0753,3.1038,3.092,3.0998,3.0925,3.0705,2.9497,2.8679,2.7781,2.4908,2.3882,2.3843,2.3219,2.3619,2.4513,2.435,2.4532,2.4826,2.4826,2.4826,2.4826,2.4826,2.4826,2.4826,2.4826,2.4295,2.371,2.371,2.297,2.2384,2.2828,2.2979,2.312,2.3601,2.3867,2.4076,2.4384,2.4501,2.4079,2.2498,2.2239,2.2105,2.1695,2.1378,2.1127,2.0976,2.0812,2.0511,2.0,1.9811,1.9768,1.9857,1.9621,1.9778,2.0439,2.042,2.0251,1.9879,1.984,1.9692,1.9295,1.8792,1.8548,0.0,0.0,0.0,0.0,0.0,0.0,0.0,0.0,0.0,0.0,0.0,0.0,0.0,0.0,0.0,0.0,0.0,0.0,0.0,0.0,0.0,0.0,3.5041,3.5758,3.6223,3.4966,3.4101,3.4319,3.3939,3.3722,3.3742,3.363,3.3722,3.4081,3.4014,3.3924,3.3924,3.3924,3.3821,3.3591,3.3579,3.3488,3.3281,3.3281,3.2969,3.2319,3.2319,3.1964,3.1341,3.2015,3.2197,3.2007,3.223,3.2197,3.1906,3.1192,3.0593,2.9773,0.0,0.0,0.0,0.0,2.4501,2.5256,2.4996,2.517,2.5518,2.5518,2.5518,2.5567,2.5654,2.5527,2.5381,2.5381,2.4775,2.4152,2.4281,2.3752,2.3256,2.3723,2.3818,2.3908,2.4245,2.441,2.4588,2.5061,2.5092,0.0,2.402,2.3385,2.2691,2.19,2.1677,2.152,2.1329,2.1319,2.115,2.0628,2.053,2.0476,2.0431,2.0229,0.0,0.0,0.0,2.0694,2.0433,2.0382,0.0,0.0,0.0,1.9113,1.8661,1.8708,0.0,0.0,1.8427,1.8449,0.0,0.0,0.0,0.0,0.0,0.0,0.0,0.0,0.0,0.0,0.0,0.0,0.0,0.0,0.0,0.0,3.5422,3.6182,3.7075,3.5539,3.4506,3.4908,3.4225,3.3916,3.4548,3.4402,3.4525,3.5183,3.5034,3.4901,3.4901,3.4901,0.0,0.0,0.0,3.3929,3.3453,3.3396,3.3361,3.3361,3.3315,3.3281,3.3281,3.3281,3.3028,3.2604,3.3074,3.3017,3.2615,3.2837,3.2908,3.2387,2.836,2.6357,2.5674,2.5136,2.5198,2.5528,2.5276,0.0,0.0,2.5577,2.5577,2.5674,2.5896,2.5678,2.5277,2.5277,2.4908,2.4553,2.4763,2.4727,2.4622,2.4653,2.4639,2.459,2.4492,2.4358,2.4449,2.5111,2.516,2.5253,2.5779,2.4668,2.3157,2.1488,2.1629,2.1717,2.1301,2.1939,2.2186,2.1667,2.1829,0.0,2.1361,2.1278,2.1221,2.1242,2.1018,2.089,2.089,2.094,2.0595,1.9791,2.0622,2.0475,1.9289,1.9946,2.0007,1.9569,1.9046,1.8977,0.0,0.0,0.0,0.0,0.0,0.0,0.0,0.0,0.0,0.0,0.0,0.0,0.0,0.0,0.0,3.5431,3.6616,3.7478,3.7236,3.6826,3.6453,3.6124,3.5994,3.5842,3.5758,3.5718,3.5652,3.5517,3.5477,3.5437,3.5437,3.5437,3.5275,3.4975,3.4964,3.4837,3.4509,3.4073,3.3866,3.3855,3.3465,0.0,3.3281,3.3281,3.3224,3.3132,3.3235,3.3224,3.3132,3.3185,3.273,3.1732,2.9053,2.7422,2.6458,2.5535,2.6049,2.7142,2.6921,2.7118,2.7458,2.7458,2.7458,2.7515,2.7809,2.7793,0.0,2.7719,2.7024,2.6252,2.6152,2.5344,2.4741,2.5577,2.5645,2.5684,2.6514,2.6645,2.6795,2.7305,2.7385,2.7248,2.6979,2.601,2.516,2.4793,2.4822,2.4822,2.4726,2.4899,2.4742,2.4177,2.3964,2.3897,2.4024,2.383,2.3639,2.3466,2.2248,2.1517,2.1517,2.1946,2.2005,2.1578,2.274,2.3022,2.2431,2.1938,2.1525,2.1183,1.9802,1.9677,0.0,0.0,0.0,0.0,0.0,0.0,0.0,0.0,0.0,0.0,0.0,3.5332,3.4781,0.0,3.5228,3.5458,3.6197,3.6973,3.7513,3.7879,3.7767,3.6899,3.6621,3.6621,3.6859,3.6613,3.6554,3.6752,3.6513,3.6356,3.6356,3.6356,3.6186,3.5783,3.5783,3.555,3.4982,3.4716,3.4399,3.4004,3.3752,3.3511,3.3281,3.3281,3.3281,3.3281,3.3281,3.3381,3.3481,3.3481,3.3032,3.2167,3.034,2.9023,2.8015,2.6758,2.7092,2.8117,2.7603,2.777,2.8196,2.8045,2.8092,2.8243,2.8348,2.8233,2.8039,2.8039,2.7384,2.6692,2.6686,2.6209,2.5889,2.6522,2.6572,2.6668,2.7167,2.7309,2.7404,2.7726,2.7904,2.794,2.7835,2.7494,2.6904,2.5848,2.5703,2.5703,2.5703,2.5703,2.5596,2.5285,2.515,2.5112,2.5217,2.515,2.5025,2.4905,2.4137,2.3692,2.3692,2.398,2.3872,2.3285,2.4168,2.4218,2.3285,2.3194,2.2885,2.2484,2.1684,2.1234,0.0,0.0,0.0,0.0,0.0,0.0,0.0,3.5868,3.5621,3.552,3.5583,3.5466,3.4675,3.4537,3.4864,3.5821,3.6072,3.6646,3.799,3.8668,3.8692,3.7815,3.7362,3.7353,3.7959,3.7569,3.7517,3.8108,3.7667,3.7346,3.7346,3.7292,3.7062,3.6661,3.6649,3.628,3.5573,3.548,3.501,3.4244,3.4152,3.3802,3.3281,3.3281,3.3281,3.3281,3.3281,3.3431,3.3679,3.3679,3.3481,3.2989,3.1611,3.0633,2.9782,2.8126,2.8008,2.8617,2.7914,2.7961,2.829,2.7998,2.8055,2.8254,2.8301,2.8068,2.7767,2.7767,2.7305,2.6875,2.697,2.6982,2.703,2.7263,2.7309,2.7309,2.7309,2.7309,2.7357,2.7547,2.7762,2.7998,2.829,2.8524,2.8128,2.6522,2.6282,2.6282,2.6282,2.6282,2.6282,2.6282,2.6282,2.6282,2.6282,2.6137,2.5993,2.5993,2.58,2.5703,2.5703,2.5896,2.5644,2.4884,2.5577,2.5324,2.4079,2.4325,2.4236,2.3791,2.3683,2.3085,3.5223,3.455,3.4412,3.5345,3.5545,3.5382,0.0,3.5617,3.6132,3.5596,3.5931,3.643,3.6747,3.681,3.7023,3.7626,3.8165,3.8567,3.8743,3.9258,3.9572,3.9457,3.9393,3.9264,3.9119,3.9067,3.8923,3.8736,3.8409,3.825,3.825,3.8039,3.7749,3.7459,3.7459,3.7263,3.6902,3.6467,3.5882,3.5074,3.4569,3.4005,3.3281,3.3281,3.3281,3.3281,3.3281,3.3431,3.3679,3.3679,3.3779,3.3773,3.2036,3.1554,3.1525,2.9142,2.8348,2.8395,2.8045,2.7998,2.7998,2.7726,2.7689,2.7726,2.7951,2.8002,2.796,2.796,2.7928,2.7766,2.7358,2.7274,2.7247,2.7299,2.7309,2.7309,2.7309,2.7309,2.7357,2.7547,2.7631,2.7726,2.7998,2.8092,2.8186,2.842,2.8456,2.8456,2.8456,2.8456,2.8456,2.8456,2.8456,2.8456,2.8456,2.7579,2.7047,2.7047,2.6176,2.5703,2.5703,2.657,2.6809,2.6312,2.7468,2.7668,2.686,2.6205,2.5712,2.5441,2.5197,2.4982,3.4839,3.5027,3.5366,3.547,3.578,3.5956,3.573,3.6078,3.6342,3.6069,3.6458,3.691,3.7149,3.6923,3.7147,3.8316,3.8165,3.8228,3.922,3.9546,3.9697,3.9697,3.9408,3.9207,3.9054,3.9239,3.9121,3.858,3.8604,3.8631,3.8631,3.825,3.7933,3.7838,3.7465,3.7197,3.6862,3.6825,3.6203,3.4982,3.4906,3.4384,3.353,3.353,3.363,3.3779,3.3779,3.3828,3.3927,3.3927,3.3977,3.397,3.2422,3.2005,3.203,2.9518,2.8792,2.8989,2.8606,2.8466,2.842,2.8149,2.8149,2.829,2.8243,2.8243,2.8196,2.8045,2.7904,2.7726,2.7394,2.7309,2.7309,2.7309,2.7309,2.7309,2.7309,2.7309,2.7299,2.7404,2.7536,2.7631,2.7773,2.7904,2.8092,2.8279,2.8477,2.8571,2.8571,2.8571,2.8571,2.8571,2.8571,2.8617,2.8803,2.8409,2.8117,2.8117,2.7731,2.7484,2.7484,2.7919,2.7882,2.7363,2.7904,2.7867,2.7309,2.6955,2.6754,2.662,2.6524,2.6514,3.4818,3.5316,3.5739,3.5755,3.5956,3.6182,3.6367,3.6405,3.6455,3.6606,3.6958,3.7274,3.7588,3.7373,3.7549,3.8881,3.8417,3.8304,3.9521,3.9697,3.9634,3.9484,3.912,3.8743,3.8278,3.8804,3.9089,3.8776,3.8867,3.8945,3.8945,3.8461,3.8145,3.7986,3.756,3.7185,3.6808,3.7024,3.6349,3.4889,3.5126,3.4695,3.3679,3.3779,3.3927,3.4125,3.4125,3.4125,3.4162,3.4162,3.4211,3.4154,3.2852,3.2441,3.2359,3.0157,2.952,2.9715,2.9128,2.8943,2.8943,2.8535,2.8535,2.8664,2.8441,2.8395,2.8348,2.8092,2.7857,2.7631,2.7357,2.7309,2.7309,2.7309,2.7309,2.7309,2.7309,2.7309,2.7309,2.7309,2.7404,2.7499,2.7499,2.7773,2.8045,2.8092,2.829,2.8395,2.829,2.8301,2.8301,2.8301,2.8301,2.8384,2.856,2.856,2.8606,2.8664,2.8617,2.8606,2.871,2.8617,2.8373,2.7904,2.7904,2.7726,2.7309,2.7309,2.7309,2.7309,2.7309,2.7404,3.5182,3.4718,3.4361,3.599,3.5956,3.5658,3.6292,3.6405,3.6556,3.7048,3.7174,3.7525,3.8617,3.8856,3.8981,3.9572,3.9647,3.9634,3.9685,3.9697,3.9496,3.9007,3.8932,3.8278,3.6644,3.7927,3.9107,3.9622,3.9413,3.9258,3.9258,3.8945,3.8526,3.8039,3.7974,3.772,3.7078,3.7078,3.6455,3.5166,3.5218,3.4695,3.3729,3.3977,3.4075,3.4125,3.4125,3.4211,3.4384,3.4384,3.4531,3.463,3.3374,3.2864,3.2733,3.1394,3.0781,3.0442,2.9439,2.9266,2.9347,2.8628,2.8395,2.8395,2.8395,2.8395,2.8348,2.8092,2.7987,2.7904,2.7441,2.7309,2.7309,2.7309,2.7309,2.7309,2.7309,2.7309,2.7309,2.7309,2.7309,2.7309,2.7309,2.7668,2.8092,2.8348,2.8395,2.8301,2.8045,2.7987,2.7987,2.7987,2.7987,2.8045,2.8045,2.8034,2.8139,2.8395,2.8186,2.8139,2.8395,2.8149,2.7904,2.7631,2.7631,2.7489,2.7309,2.7309,2.7309,2.7309,2.7309,2.7309,3.4449,3.4989,3.5713,3.6267,3.6267,3.6232,3.6784,3.6669,3.6568,3.7073,3.6945,3.692,3.7613,3.7475,3.7538,3.8429,3.7965,3.8002,3.9484,3.8417,3.8014,3.927,3.8429,3.7965,3.8517,3.8806,3.868,3.8065,3.9006,3.9581,3.9581,3.905,3.8736,3.8526,3.7826,3.7292,3.7078,3.6916,3.62,3.493,3.4453,3.4005,3.3729,3.4113,3.4298,3.4298,3.4298,3.4445,3.4628,3.4482,3.458,3.4667,3.3421,3.3015,3.3001,3.1541,3.1139,3.116,3.0011,2.9588,2.9439,2.9209,2.9128,2.9128,2.9128,2.8989,2.8757,2.8186,2.7857,2.7678,2.7404,2.7309,2.7309,2.7309,2.7309,2.7309,2.7309,2.7309,2.7309,2.7309,2.7309,2.7404,2.7715,2.7904,2.8139,2.8549,2.8477,2.8254,2.7773,2.7631,2.7584,2.7726,2.7726,2.782,2.7987,2.7998,2.8045,2.8149,2.8045,2.8045,2.8139,2.8045,2.7857,2.7594,2.7584,2.7499,2.7309,2.7309,2.7309,2.7309,2.7309,2.7309,3.4713,3.56,3.6455,3.6656,3.6707,3.6744,3.6908,3.682,3.6857,3.7362,3.7362,3.7348,3.745,3.7374,3.745,3.7927,3.7588,3.7876,3.9459,3.8467,3.8064,3.9258,3.8442,3.8052,3.873,3.8843,3.8529,3.755,3.8479,3.9094,3.9094,3.8725,3.859,3.8776,3.788,3.7346,3.7078,3.6754,3.5987,3.4785,3.4067,3.3679,3.3729,3.4113,3.4085,3.3753,3.4218,3.4268,3.4138,3.4424,3.4628,3.4691,3.3672,3.3288,3.3188,3.1993,3.163,3.1528,3.051,3.0091,2.9988,2.9806,2.9715,2.9588,2.9405,2.9174,2.8839,2.8045,2.7726,2.7536,2.7357,2.7441,2.7536,2.7536,2.7678,2.7809,2.7809,2.7809,2.7762,2.7584,2.7668,2.7857,2.7998,2.8315,2.8642,2.8956,2.8885,2.8617,2.8045,2.7715,2.7584,2.7726,2.7715,2.7809,2.7998,2.7998,2.8045,2.8139,2.7914,2.7762,2.7857,2.7809,2.7678,2.7499,2.7489,2.7441,2.7309,2.7309,2.7309,2.7309,2.7309,2.7309,3.5902,3.6392,3.6581,3.7086,3.7211,3.7048,3.6568,3.6857,3.7324,3.7814,3.8341,3.853,3.799,3.8266,3.8442,3.8027,3.8354,3.8881,3.9521,3.9559,3.9346,3.8881,3.8831,3.8429,3.7412,3.8328,3.8668,3.8052,3.8052,3.809,3.809,3.809,3.8328,3.8804,3.8303,3.7773,3.7185,3.6588,3.5768,3.475,3.4005,3.3679,3.3679,3.3977,3.3523,3.263,3.3848,3.3862,3.3065,3.427,3.4775,3.4727,3.4198,3.3729,3.3224,3.2695,3.2142,3.1617,3.0892,3.0758,3.0814,3.0397,3.0102,2.984,2.9312,2.8989,2.871,2.7867,2.7631,2.7631,2.7404,2.7715,2.8034,2.8034,2.8362,2.8678,2.8678,2.8678,2.8585,2.8128,2.8398,2.8585,2.8128,2.8885,2.9531,2.9531,2.9531,2.9336,2.8771,2.8315,2.8034,2.8034,2.8034,2.8034,2.8034,2.8034,2.8139,2.8395,2.7736,2.7404,2.7631,2.7394,2.7309,2.7309,2.7309,2.7309,2.7309,2.7309,2.7309,2.7309,2.7309,2.7309,3.5027,3.6044,3.7111,3.7663,3.7487,3.7149,3.7059,3.7086,3.7111,3.6835,3.6571,3.6298,3.616,3.5278,3.5223,3.7086,3.6483,3.6395,3.8191,3.7726,3.7462,3.8153,3.8228,3.8442,3.8994,3.932,3.9069,3.809,3.8793,3.927,3.927,3.927,3.9345,3.9465,3.8893,3.8514,3.8368,3.663,3.5236,3.4199,3.368,3.3381,3.3431,3.3679,3.3627,3.3443,3.413,3.4193,3.3834,3.4533,3.4677,3.4483,3.415,3.3729,3.3224,3.2695,3.2142,3.1661,3.1484,3.1172,3.0904,3.0769,3.0589,3.0306,2.9783,2.9623,2.9416,2.8441,2.8279,2.8409,2.8362,2.8445,2.8538,2.8538,2.8631,2.8678,2.8678,2.8735,2.8699,2.8538,2.8921,2.9244,2.9163,2.9623,3.0034,3.0034,3.0034,2.9703,2.8817,2.8585,2.8538,2.8538,2.856,2.856,2.8549,2.8538,2.8538,2.8642,2.8128,2.7857,2.7904,2.7489,2.7309,2.7309,2.7309,2.7309,2.7309,2.7309,2.7309,2.7309,2.7309,2.7309,3.5968,3.6835,3.7676,3.8241,3.8153,3.7663,3.6684,3.6835,3.6897,3.5855,3.578,3.5755,3.5219,3.4625,3.4738,3.6581,3.6245,3.632,3.7801,3.7475,3.7312,3.7939,3.8002,3.8454,3.9584,3.9697,3.9433,3.8793,3.8881,3.8956,3.8956,3.8956,3.9182,3.9672,3.9114,3.8457,3.7742,3.6291,3.5065,3.3993,3.3511,3.3281,3.3292,3.3481,3.3287,3.2883,3.3717,3.3744,3.3272,3.4157,3.4396,3.4274,3.4209,3.3744,3.3109,3.2913,3.2346,3.1705,3.1705,3.1484,3.1261,3.1261,3.1038,3.0679,3.0159,2.9852,2.9554,2.8746,2.8595,2.8678,2.8678,2.8863,2.9059,2.9059,2.9198,2.9371,2.9371,2.9382,2.9393,2.9382,2.9439,2.9577,2.976,3.0034,3.0216,3.0216,3.0216,2.9988,2.9417,2.9198,2.9059,2.9059,2.9071,2.9071,2.9059,2.8921,2.8921,2.9059,2.8409,2.8045,2.8186,2.7678,2.7441,2.7441,2.7357,2.7309,2.7309,2.7309,2.7309,2.7309,2.7309,2.7309,3.74,3.7902,3.814,3.873,3.8919,3.8341,3.6285,3.6546,3.6734,3.5165,3.5529,3.5868,3.5002,3.5119,3.5667,3.6358,3.6857,3.7186,3.7525,3.7814,3.7952,3.7814,3.7914,3.8454,3.9584,3.9559,3.9534,3.9685,3.8781,3.8228,3.8228,3.8228,3.868,3.9659,3.9206,3.8117,3.6512,3.5958,3.5133,3.3991,3.3526,3.3281,3.3281,3.3281,3.2799,3.2066,3.3198,3.3157,3.2342,3.359,3.4075,3.4075,3.4298,3.3767,3.2911,3.3145,3.2599,3.1705,3.1705,3.1661,3.1661,3.1661,3.1362,3.0883,3.0318,2.9897,2.9474,2.8956,2.8863,2.891,2.891,2.9244,2.9577,2.9577,2.9897,3.0216,3.0216,3.0216,3.0216,3.0216,2.9852,2.9715,3.0125,3.0216,3.0216,3.0216,3.0216,3.0216,3.0216,2.9852,2.9577,2.9577,2.9577,2.9577,2.9542,2.9359,2.9312,2.9485,2.8595,2.8186,2.8441,2.7914,2.7631,2.7584,2.7441,2.7309,2.7309,2.7309,2.7309,2.7309,2.7309,2.7309,3.6596,3.7337,3.814,3.873,3.8919,3.8642,3.7776,3.7374,3.6847,3.5608,3.519,3.509,3.5307,3.5056,3.5341,3.681,3.6782,3.6219,3.5403,3.686,3.7676,3.6784,3.7462,3.8454,3.9584,3.8856,3.8693,3.9622,3.9509,3.9396,3.9396,3.9396,3.9496,3.9685,3.9594,3.8722,3.7077,3.6587,3.5565,3.3971,3.3515,3.3281,3.3281,3.3281,3.3189,3.3078,3.3499,3.3476,3.3128,3.3796,3.3977,3.3779,3.4075,3.3634,3.2911,3.2958,3.2416,3.1705,3.1705,3.1528,3.135,3.135,3.1184,3.0883,3.0159,3.0,2.9988,2.9485,2.9623,2.9932,2.9932,3.0034,3.008,3.008,3.0125,3.0216,3.0216,3.0216,3.0216,3.0216,3.0125,3.008,3.017,3.0216,3.0216,3.0216,3.0216,3.0216,3.0216,3.0125,3.008,3.008,3.008,3.0,2.984,2.9794,2.9691,2.9485,2.8978,2.8664,2.871,2.8233,2.7809,2.7584,2.7584,2.7452,2.7309,2.7309,2.7309,2.7309,2.7309,2.7309,3.6383,3.7174,3.8216,3.9082,3.9295,3.8843,3.7123,3.6747,3.6194,3.4223,3.3847,3.3947,3.4211,3.4048,3.45,3.6493,3.6581,3.6417,3.6433,3.7337,3.7814,3.7299,3.7701,3.8216,3.8768,3.8329,3.8228,3.8768,3.8818,3.9069,3.9659,3.9697,3.9697,3.9697,3.9421,3.8603,3.7194,3.6712,3.563,3.3991,3.3755,3.3519,3.3281,3.3281,3.3281,3.3331,3.3431,3.3131,3.2584,3.336,3.3256,3.273,3.3569,3.3557,3.309,3.2959,3.255,3.2058,3.1813,3.1528,3.1261,3.1184,3.096,3.0736,3.0363,3.0216,3.017,2.9943,3.0034,3.0216,3.0216,3.0216,3.0216,3.0216,3.0216,3.0216,3.0216,3.0216,3.0216,3.0216,3.0216,3.0216,3.0216,3.0216,3.0216,3.0216,3.0216,3.0216,3.0216,3.0216,3.0216,3.0216,3.0216,3.0136,2.9931,2.9783,2.9634,2.9485,2.9071,2.885,2.8943,2.8477,2.8149,2.8019,2.7867,2.7678,2.7452,2.7452,2.7404,2.7309,2.7309,2.7309,3.648,3.7262,3.8253,3.927,3.9597,3.9057,3.6586,3.6219,3.5713,3.3244,3.2918,3.3156,3.3382,3.3432,3.4073,3.6091,3.6216,3.6395,3.75,3.7663,3.7751,3.7977,3.8002,0.0,3.8341,3.8153,3.8103,3.8354,3.8366,3.8755,3.9647,3.9697,3.9697,3.9697,3.9157,3.8429,3.7394,3.6752,3.5673,3.4188,3.404,3.3755,3.3281,3.3281,3.3281,3.3281,3.3281,3.2707,3.1834,3.2868,3.2673,3.1846,3.3125,3.3464,3.3193,3.2913,3.2624,3.2361,3.1865,3.1484,3.1229,3.1062,3.0826,3.0578,3.0532,3.0352,3.0216,3.0216,3.0216,3.0216,3.0216,3.0216,3.0216,3.0216,3.0216,3.0216,3.0216,3.0216,3.0216,3.0216,3.0216,3.0216,3.0216,3.0216,3.0216,3.0216,3.0216,3.0216,3.0216,3.0216,3.0216,3.0216,3.0216,3.0091,2.984,2.9634,2.9439,2.9347,2.8978,2.8896,2.9035,2.8675,2.8441,2.8395,2.8196,2.7951,2.7678,2.7678,2.7584,2.7357,2.7357,2.7357,3.6697,3.755,3.8165,3.8793,3.932,3.9358,3.8078,3.7048,3.6053,3.4751,3.3734,3.3382,3.4387,3.4575,3.4964,3.6216,3.5529,3.5253,3.6405,3.6546,3.691,3.7889,0.0,0.0,3.9433,3.8605,3.8429,3.9459,3.9534,3.9584,3.9685,3.9697,3.9697,3.9697,3.9157,3.8592,3.7903,3.6899,3.5819,3.4726,3.4237,3.3755,3.3281,3.3281,3.3281,3.3281,3.3281,3.2695,3.1764,3.2856,3.2684,3.1917,3.294,3.3169,3.2903,3.2629,3.2381,3.2098,3.1809,3.1407,3.1029,3.1029,3.0826,3.0566,3.0306,3.0216,3.0216,3.0216,3.0216,3.0216,3.0216,3.0216,3.0216,3.0216,3.0216,3.0216,3.0216,3.0216,3.0216,3.0216,3.0216,3.0216,3.0216,3.0216,3.0216,3.0216,3.0216,3.0216,3.0216,3.0216,3.0216,3.0216,3.0216,3.0034,2.9577,2.9531,2.9301,2.8885,2.8803,2.8803,2.885,2.8803,2.8664,2.8395,2.8395,2.8243,2.7951,2.7951,2.7809,2.7584,2.7584,2.7489,3.5111,3.6584,3.814,3.873,3.9283,3.9132,3.701,3.6445,3.5814,3.3646,3.3144,3.3206,3.3658,3.3734,3.4098,3.519,3.5014,3.5341,3.7098,3.7362,3.7789,3.8894,3.9019,3.8931,3.8705,3.8266,3.8191,3.8642,3.868,3.8981,3.9659,3.9697,3.9546,3.9207,3.8642,3.8078,3.7513,3.6755,3.5997,3.5271,3.4738,3.4188,3.3706,3.3431,3.3281,3.3281,3.3281,3.2351,3.095,3.2604,3.2317,3.0996,3.265,3.3304,3.3322,3.2698,3.243,3.2297,3.186,3.1306,3.0781,3.0927,3.0691,3.0352,3.0216,3.0216,3.0216,3.0216,3.0216,3.0216,3.0216,3.0216,3.0216,3.0216,3.0216,3.0216,3.0216,3.0216,3.0216,3.0216,3.0216,3.0216,3.0216,3.0216,3.0216,3.0216,3.0216,3.0216,3.0216,3.0216,3.0216,3.0216,3.0216,2.9988,2.9531,2.9485,2.9301,2.885,2.8803,2.8803,2.8803,2.8803,2.8757,2.8617,2.8617,2.8524,2.8243,2.8243,2.8102,2.7857,2.7857,2.7715,3.4327,3.6044,3.7902,3.8479,3.8781,3.8354,3.6022,3.5717,3.5177,3.2717,3.2667,3.3174,3.3294,3.3319,3.3734,3.5014,3.5031,3.5633,3.7713,3.7864,3.8178,3.932,3.9446,3.9195,3.8567,3.8504,3.8504,3.8504,3.8504,3.8856,3.9647,3.9697,3.9433,3.8944,3.8304,3.7739,3.7199,3.6681,3.6133,3.5572,3.5078,3.4364,3.3545,3.338,3.312,3.2845,3.3155,3.2294,3.0813,3.2558,3.2259,3.0847,3.2604,3.3431,3.3502,3.2673,3.2359,3.2289,3.1618,3.1026,3.0623,3.0658,3.0465,3.017,3.0136,3.0136,3.0216,3.0216,3.0216,3.0216,3.0216,3.0216,3.0216,3.0216,3.0216,3.0216,3.0216,3.0216,3.0216,3.0216,3.0216,3.0216,3.0216,3.0216,3.0216,3.0216,3.0216,3.0216,3.0216,3.0216,3.0216,3.0216,3.0136,2.9954,2.9531,2.9485,2.9301,2.885,2.8803,2.8803,2.8803,2.885,2.885,2.8803,2.885,2.8757,2.8535,2.8535,2.8384,2.8139,2.8139,2.8008,3.494,3.6345,3.7324,3.7877,3.7613,3.691,3.5759,3.5082,3.4261,3.2566,3.2667,3.3244,3.3796,3.3884,3.4437,3.6119,3.5859,3.6072,3.7776,3.7538,3.7613,3.8793,3.8932,3.9094,3.9622,3.9672,3.9672,3.9672,3.9672,3.9685,3.9697,3.9697,3.9433,3.8944,3.8304,3.7739,3.7199,3.6681,3.6133,3.5572,3.5078,3.3982,3.2536,3.3056,3.2718,3.1764,3.2845,3.2695,3.1882,3.2856,3.2673,3.1905,3.2879,3.3281,3.3204,3.2399,3.2111,3.196,3.0972,3.0623,3.0532,3.0057,3.0057,3.017,2.9977,3.0057,3.0216,3.0216,3.0216,3.0216,3.0216,3.0216,3.0216,3.0216,3.0216,3.0216,3.0216,3.0216,3.0216,3.0216,3.0216,3.0216,3.0216,3.0216,3.0216,3.0216,3.0216,3.0216,3.0216,3.0216,3.0216,3.0216,3.0011,2.9783,2.9531,2.9485,2.9301,2.885,2.8803,2.8803,2.8803,2.8989,2.8989,2.8803,2.8989,2.8989,2.8803,2.8803,2.8664,2.8395,2.8395,2.8395,3.2568,3.4138,3.5629,3.6135,3.6147,3.568,3.4198,3.3721,3.3332,3.2403,3.2667,3.3357,3.4299,3.4462,3.4763,3.5621,3.5621,3.6072,3.7776,3.7852,3.8165,3.9295,3.9433,3.9496,3.9672,3.8994,3.8856,3.9634,3.8981,3.8881,3.9647,3.9333,3.8868,3.8304,3.8103,3.7563,3.6681,3.6493,3.631,3.6133,3.5608,3.4556,3.3039,3.357,3.305,3.1812,3.2833,3.2707,3.1894,3.2868,3.2684,3.1917,3.2891,3.3281,3.325,3.2816,3.2281,3.1734,3.124,3.0652,3.0102,2.9931,2.9931,2.9977,2.9931,3.0057,3.0216,3.0216,3.0216,3.0216,3.0216,3.0216,3.0216,3.0216,3.0216,3.0216,3.0216,3.0216,3.0216,3.0216,3.0216,3.0216,3.0216,3.0216,3.0216,3.0216,3.0216,3.0216,3.0216,3.0216,3.0216,3.0216,3.0011,2.9783,2.9531,2.9312,2.9128,2.8803,2.8803,2.8803,2.8803,2.885,2.8943,2.8989,2.8943,2.8943,2.8989,2.885,2.8757,2.8664,2.8488,2.8488,3.1295,3.2829,3.4236,3.4743,3.4555,3.3966,3.2993,3.2754,3.2641,3.229,3.3006,3.3972,3.4818,3.5203,3.5454,3.5793,3.6523,3.7222,3.7624,3.8079,3.843,3.8705,3.8931,3.922,3.9647,3.9057,3.8931,3.9647,3.9044,3.8956,3.9659,3.917,3.8605,3.8027,3.7801,3.7262,3.6417,3.6405,3.6405,3.6405,3.5847,3.4901,3.3608,3.3861,3.3282,3.2097,3.2932,3.2925,0.0,3.3028,3.2914,3.2457,3.304,3.3281,3.3273,3.2903,3.2324,3.1615,3.111,3.0479,2.984,2.9565,2.96,2.9794,2.9886,3.0057,3.0216,3.0216,3.0216,3.0216,3.0216,3.0216,3.0216,3.0216,3.0216,3.0216,3.0216,3.0216,3.0216,3.0216,3.0216,3.0216,3.0216,3.0216,3.0216,3.0216,3.0216,3.0216,3.0216,3.0216,3.0216,3.0216,2.9909,2.9691,2.9531,2.9255,2.8989,2.8803,2.8803,2.8803,2.8803,2.8896,2.8989,2.9082,2.9082,2.9082,2.9082,2.8896,2.8803,2.8803,2.8721,2.8757,0.0,3.2127,3.3031,3.3583,3.2905,3.2114,3.2139,3.2127,0.0,3.2353,3.3633,3.4868,3.5495,3.6153,3.66,3.648,3.8282,3.912,3.7442,3.8097,3.8368,3.7364,3.7762,3.8504,3.9586,3.9698,3.9697,3.9697,3.9697,3.9697,3.9697,3.9132,3.8567,3.8027,3.7425,3.6872,3.6417,3.6405,3.6367,3.6292,3.5858,3.5053,3.3958,3.4066,3.3524,3.2547,3.3117,3.3331,3.3281,3.3281,3.3281,3.3281,3.3281,3.3281,3.3224,3.273,3.2202,3.1531,3.0661,3.0154,2.9748,2.9035,2.9128,2.9531,2.984,3.0057,3.0216,3.0216,3.0216,3.0216,3.0216,3.0216,3.0216,3.0216,3.0216,3.0216,3.0216,3.0216,3.0216,3.0216,3.0216,3.0216,3.0216,3.0216,3.0216,3.0216,3.0216,3.0216,3.0216,3.0216,3.0216,3.0216,2.9806,2.9531,2.9485,2.9255,2.8989,2.8803,2.8803,2.8803,2.8803,2.8989,2.9082,2.9128,2.9347,2.9393,2.9128,2.8896,2.8803,2.885,2.8989,2.9082,2.9076,0.0,3.1323,3.1851,3.1486,3.1097,0.0,3.1273,3.1587,3.3696,3.4449,3.5152,3.6546,3.7945,3.8462,3.7192,3.905,3.9879,3.7539,3.7781,3.8056,3.7611,3.861,3.931,3.937,3.9576,3.9697,3.9697,3.9697,3.9697,3.9697,3.8755,3.8153,3.8002,3.7061,3.6543,3.6405,3.6405,3.5943,3.5115,3.5875,3.5006,3.2838,3.4501,3.4246,3.2547,3.3447,3.3618,3.3281,3.3281,3.3281,3.3281,3.3281,3.3281,3.3269,3.3143,3.2437,3.1408,3.0996,3.0142,2.9266,2.9082,2.9255,2.9531,2.984,3.0057,3.0216,3.0216,3.0216,3.0216,3.0216,3.0216,3.0216,3.0216,3.0216,3.0216,3.0216,3.0216,3.0216,3.0216,3.0216,3.0216,3.0216,3.0216,3.0216,3.0216,3.0216,3.0216,3.0216,3.0216,3.0216,3.0216,2.9966,2.9737,2.9531,2.9117,2.885,2.8803,2.8803,2.8803,2.8803,2.885,2.9035,2.9393,2.9485,2.9485,2.9393,2.8989,2.8896,2.9035,2.8943,2.8943,2.851,2.9364,3.0419,3.1198,3.0997,3.0821,3.1587,3.1549,3.1989,3.4204,3.5263,3.6055,3.7018,3.8623,3.9374,3.8157,3.9553,4.0381,3.9028,3.87,3.8348,3.7841,3.8363,3.8743,3.8725,3.9323,3.9697,3.9697,3.9697,3.9697,3.9697,3.8617,3.8002,3.8002,3.6935,3.6405,3.6405,3.6405,3.5805,3.4693,3.5843,3.5374,3.3518,3.494,3.5003,3.3922,3.3732,3.3605,3.3583,3.3108,3.3053,3.3281,3.3281,3.3281,3.3281,3.3281,3.2491,3.1335,3.1072,3.0136,2.8943,2.8943,2.9128,2.9359,2.9646,2.9874,3.0091,3.017,3.0216,3.0216,3.0216,3.0216,3.0216,3.0216,3.0216,3.0216,3.0216,3.0216,3.0216,3.0216,3.0216,3.0216,3.0216,3.0216,3.0216,3.0216,3.0216,3.0216,3.0216,3.0216,3.0216,3.0216,2.9909,2.9634,2.9531,2.9082,2.8803,2.8803,2.8803,2.885,2.8943,2.885,2.9024,2.9485,2.9485,2.9542,2.9691,2.9174,2.8989,2.9082,2.8896,2.885,2.8607,2.9278,3.0156,3.1148,3.106,3.1022,3.2102,0.0,0.0,0.0,0.0,3.7365,3.7722,3.9375,4.0326,3.9197,3.9895,4.0658,4.0986,4.0134,3.919,3.8445,3.8293,3.8282,3.8454,3.9222,3.9697,3.9697,3.9697,3.9697,3.9697,3.8617,3.8002,3.8002,3.6935,3.6405,3.6405,3.6405,3.5805,3.4693,3.5843,3.578,3.4718,3.54,3.5668,3.5523,3.4168,3.3708,3.392,3.2992,3.2926,3.3281,3.3281,3.3281,3.3281,3.3281,3.2491,3.1264,3.0796,2.9861,2.8803,2.8803,2.8943,2.9128,2.9347,2.9646,2.9931,3.0045,3.0125,3.017,3.017,3.017,3.0216,3.0216,3.0216,3.0216,3.0216,3.0216,3.0216,3.0216,3.0216,3.0216,3.0216,3.0216,3.0216,3.0216,3.0216,3.0216,3.0216,3.0216,3.0216,3.0216,2.9852,2.9577,2.9485,2.9117,2.8896,2.8803,2.8803,2.8896,2.9082,2.8989,2.9174,2.9542,2.9542,2.968,2.9931,2.9405,2.9174,2.9174,2.8943,2.885,2.9056,2.9807,3.0633,3.1235,3.1336,3.1562,3.2679,3.2943,3.3794,0.0,0.0,3.8919,4.0201,4.2161,4.2851,4.0377,4.0205,4.0791,4.1967,4.1355,4.0699,4.0413,4.0535,4.0627,4.0488,3.9999,3.9697,3.9697,3.9697,3.9697,3.9697,3.8617,3.8002,3.8002,3.6935,3.6405,3.6405,3.6405,3.5805,3.4693,3.5843,3.578,3.4718,3.5809,3.6038,3.5608,3.5341,3.4776,3.3979,3.3815,3.3566,3.3281,3.3281,3.3281,3.3281,3.3281,3.2332,3.09,2.959,2.897,2.8803,2.8803,2.8943,2.9128,2.9174,2.9508,2.984,2.968,2.9897,3.017,2.9966,3.0045,3.0216,3.0216,3.0216,3.0216,3.0216,3.0216,3.0216,3.0216,3.0216,3.0216,3.0216,3.0216,3.0216,3.0216,3.0216,3.0216,3.0216,3.0216,3.0216,3.0216,3.0125,2.9943,2.9531,2.9439,2.9209,2.885,2.8803,2.8896,2.9082,2.9508,2.9748,2.984,2.984,2.992,3.0136,2.9669,2.9439,2.9439,2.9163,2.8943,2.8787,2.993,3.1235,3.2089,3.2064,3.2521,3.5115,3.4958,3.5301,0.0,3.9496,3.9758,4.1064,4.2775,4.3661,4.2625,4.3387,4.4081,4.3967,4.3645,4.3185,4.2639,4.1892,4.1194,4.0609,4.0035,3.9697,3.9697,3.9697,3.9559,3.927,3.8454,3.7864,3.7575,3.6832,3.6405,3.6405,3.6405,3.5805,3.4693,3.5843,3.578,3.4763,3.5855,3.6275,3.6001,3.5369,3.502,3.4787,3.3923,3.3595,3.3656,3.3381,3.3281,3.3212,3.2355,3.1611,3.0782,2.9319,2.8803,2.8803,2.8803,2.885,2.8943,2.9082,2.9266,2.9462,2.9312,2.9715,3.0136,2.9931,3.0057,3.0216,3.0216,3.0216,3.0216,3.0216,3.0216,3.0216,3.0216,3.0216,3.0216,3.0216,3.0216,3.0216,3.0216,3.0216,3.0216,3.0216,3.0216,3.0216,3.0216,3.0091,2.9966,2.9737,2.9451,2.9174,2.8803,2.8896,2.8989,2.9082,2.9508,2.9691,2.9691,2.984,2.9931,3.0057,2.9829,2.9737,2.9691,2.9312,2.9035,2.8655,3.0003,3.1662,3.2847,3.2742,3.3326,3.6876,3.6551,3.6558,4.0441,4.0799,4.0842,4.2108,4.3099,4.3912,4.4633,4.5912,4.6619,4.5995,4.5878,4.5585,4.4932,4.3389,4.2017,4.112,4.045,3.9929,3.9749,3.9697,3.9459,3.8957,3.8316,3.7751,3.7199,3.6694,3.6405,3.6405,3.6405,3.5943,3.5115,3.6003,3.5918,3.514,3.5981,3.6405,3.6367,3.5479,3.5313,3.5499,3.4288,3.3959,3.4139,3.3656,3.3381,3.3105,3.1626,3.106,3.0782,2.9319,2.8803,2.8803,2.8803,2.8803,2.885,2.8989,2.9128,2.9174,2.9128,2.9623,3.0125,2.9874,2.9966,3.0136,3.017,3.0216,3.0216,3.0216,3.0216,3.0216,3.0216,3.0216,3.0216,3.0216,3.0216,3.0216,3.0216,3.0216,3.0216,3.0216,3.0216,3.0216,3.0216,3.0057,2.9931,2.984,2.9312,2.8943,2.8803,2.8989,2.9082,2.9082,2.9405,2.9588,2.9588,2.9794,2.9931,2.9977,2.9931,2.9886,2.9897,2.9416,2.9174,2.9116,3.0314,3.1662,3.2847,3.3086,3.3761,3.6428,3.6533,3.7116,4.0859,4.2024,4.2768,4.4353,4.4105,4.4086,4.5546,4.5526,4.5912,4.7561,4.7445,4.716,4.7073,4.5693,4.4361,4.3365,4.1932,4.0693,3.9788,3.9697,3.9459,3.8957,3.8316,3.7751,3.7199,3.6694,3.6405,3.6405,3.6405,3.6367,3.6292,3.6367,3.6367,3.6292,3.6367,3.6405,3.6405,3.6317,3.6011,3.5608,3.5487,3.515,3.4677,3.4139,3.3656,3.3155,3.1868,3.1205,3.0782,2.9319,2.8803,2.8803,2.8803,2.8803,2.8803,2.8803,2.9128,2.9439,2.9174,2.9623,3.008,2.9669,2.9726,2.9977,3.017,3.0216,3.0216,3.0216,3.0216,3.0216,3.0216,3.0216,3.0216,3.0216,3.0216,3.0216,3.0216,3.0216,3.0216,3.0216,3.0216,3.0216,3.0216,3.017,2.9988,2.9577,2.9071,2.8803,2.8803,2.8989,2.9082,2.9082,2.9611,2.9886,2.9886,2.9886,2.9966,3.017,2.9966,2.9886,2.9886,2.9588,2.9347,2.9152,3.0339,3.1738,3.3219,3.3332,3.4061,3.7608,3.8017,3.876,4.2865,4.2941,4.2464,4.3219,4.4832,4.6128,4.6324,4.689,4.7566,4.8252,4.8202,4.8118,4.8118,4.6754,4.5722,4.5347,4.3401,4.1861,4.1093,4.0516,3.9652,3.8429,3.8128,3.76,3.6744,3.6518,3.6405,3.6405,3.6405,3.6405,3.6405,3.6405,3.6405,3.6405,3.6405,3.6405,3.6405,3.6405,3.6263,3.6038,3.556,3.5223,3.4981,3.4298,3.3866,3.3353,3.1917,3.1253,3.0782,2.9319,2.8803,2.8803,2.8803,2.8803,2.8803,2.8803,2.8932,2.9082,2.9082,2.9301,2.9542,2.9691,2.992,3.0091,3.017,3.0216,3.0216,3.0216,3.0216,3.0216,3.0216,3.0216,3.0216,3.0216,3.0216,3.0216,3.0216,3.0216,3.0216,3.0216,3.0216,3.0216,3.0216,3.0216,2.9988,2.9531,2.9347,2.9117,2.8803,2.8896,2.8989,2.9082,2.9451,2.9634,2.9634,2.9954,3.0057,3.0011,3.0057,3.0091,3.0091,2.9874,2.96,2.92,3.0462,3.1964,3.3307,3.3357,3.4147,3.8118,3.8594,3.936,4.3474,4.3875,4.3524,4.3513,4.5464,4.6966,4.6625,4.7373,4.8127,4.8558,4.862,4.862,4.862,4.7603,4.6768,4.6432,4.4478,4.2855,4.1981,4.1045,3.9753,3.8065,3.8002,3.75,3.6443,3.6405,3.6405,3.6405,3.6405,3.6405,3.6405,3.6405,3.6405,3.6405,3.6405,3.6405,3.6405,3.6405,3.637,3.6228,3.5656,3.532,3.503,3.4604,3.4125,3.3552,3.217,3.1456,3.0926,2.9506,2.8989,2.8896,2.8896,2.885,2.8803,2.8896,2.8896,2.8943,2.9277,2.937,2.9451,2.9874,3.0057,3.0136,3.017,3.0216,3.0216,3.0216,3.0216,3.0216,3.0216,3.0216,3.0216,3.0216,3.0261,3.0306,3.0306,3.0408,3.0454,3.0454,3.0397,3.0306,3.0216,3.0136,2.9954,2.9634,2.9485,2.9255,2.8943,2.885,2.885,2.8989,2.9255,2.9393,2.9485,2.9806,2.9988,2.9966,3.0045,3.0136,3.0216,2.9966,2.9737,2.9309,3.0704,3.234,3.293,3.3124,3.4032,3.755,3.7981,3.8628,4.2292,4.4907,4.6457,4.5979,4.5915,4.6052,4.6524,4.6603,4.708,4.8419,4.862,4.862,4.862,4.826,4.7606,4.652,4.5132,4.366,4.203,4.1032,3.9803,3.8114,3.8002,3.75,3.6443,3.6405,3.6405,3.6405,3.6405,3.6405,3.6405,3.6405,3.6405,3.6405,3.6405,3.6405,3.6405,3.6405,3.6228,3.6015,3.6015,3.5524,3.4835,3.5078,3.4592,3.3601,3.2577,3.1861,3.1235,2.9937,2.9312,2.9128,2.9128,2.8989,2.885,2.9035,2.9128,2.9231,2.9748,2.9886,2.9931,3.0136,3.0057,2.9931,3.0136,3.0216,3.0216,3.0216,3.0216,3.0216,3.0216,3.0216,3.0216,3.0216,3.0442,3.0623,3.0623,3.0826,3.0984,3.0972,3.0769,3.0487,3.0216,3.0011,2.9897,2.9886,2.9416,2.9082,2.9082,2.8896,2.8803,2.8803,2.8989,2.922,2.9485,2.9485,2.9715,3.0216,3.0011,3.0011,3.0216,3.0011,2.9737,3.05,3.0838,3.1129,3.3176,3.337,3.3538,3.5194,3.7324,3.9932,4.3482,4.4667,4.493,4.4607,4.6351,4.7533,4.6757,4.7388,4.8158,4.8558,4.862,4.862,4.862,4.8495,4.8313,4.7958,4.6943,4.5721,4.42,4.3156,4.1431,3.8692,3.8543,3.7889,3.6443,3.6405,3.6405,3.6405,3.6405,3.6405,3.6405,3.6405,3.6405,3.6405,3.6405,3.6405,3.6405,3.6405,3.6228,3.5968,3.5572,3.5175,3.4823,3.4872,3.4628,3.407,3.2829,3.2217,3.1688,3.0272,2.9829,2.9852,2.9691,2.9611,2.9554,2.9646,2.9542,2.9451,2.9794,2.9886,2.9931,3.0136,3.017,3.0136,3.017,3.0216,3.0216,3.0216,3.0216,3.0216,3.0216,3.0216,3.0261,3.0442,3.0532,3.0668,3.0871,3.0781,3.0634,3.0454,3.0532,3.0578,3.0487,3.0442,3.0318,3.0136,2.968,2.9301,2.9128,2.8896,2.8803,2.8803,2.8989,2.9128,2.922,2.96,2.9829,2.9966,3.0045,3.0136,3.0216,3.0136,3.0011,3.153,3.178,3.2045,3.4022,3.3972,3.3898,3.5627,3.7706,4.0393,4.4209,4.5075,4.5296,4.5751,4.7349,4.8358,4.7527,4.8081,4.8578,4.8495,4.8537,4.8578,4.8495,4.8537,4.862,4.862,4.7734,4.6725,4.5632,4.4275,4.2399,3.9833,3.9101,3.813,3.6725,3.6499,3.6405,3.6405,3.6405,3.6405,3.6405,3.6405,3.6405,3.6405,3.6405,3.6405,3.6405,3.6181,3.5991,3.5812,3.5271,3.4932,3.4775,3.4775,3.4509,3.398,3.3031,3.2359,3.1786,3.0709,3.0329,3.0352,3.0227,3.0102,3.0011,3.0011,2.9874,2.9737,2.9966,2.9977,2.9931,3.0136,3.0216,3.0216,3.0216,3.0216,3.0216,3.0216,3.0216,3.0216,3.0216,3.0216,3.0261,3.0397,3.0532,3.0668,3.0972,3.0916,3.0802,3.0544,3.0578,3.0578,3.0442,3.0442,3.0397,3.0216,2.9863,2.9588,2.9416,2.922,2.9035,2.8943,2.8943,2.9035,2.9082,2.9497,2.9783,2.9886,3.0091,3.0216,3.0216,3.0216,3.0091,3.2245,3.3027,3.3966,3.5069,3.4555,3.464,3.7722,3.8685,4.0126,4.4489,4.572,4.6527,4.8208,4.8532,4.8578,4.8578,4.8578,4.8495,4.8286,4.8412,4.8495,4.8286,4.8453,4.8578,4.8578,4.7819,4.7088,4.6534,4.4769,4.2932,4.1254,3.9712,3.8335,3.7224,3.6666,3.6405,3.6405,3.6405,3.6405,3.6405,3.6405,3.6405,3.6405,3.6405,3.6405,3.6358,3.5847,3.562,3.5572,3.503,3.4775,3.4823,3.4727,3.4366,3.3732,3.3136,3.2474,3.1759,3.1264,3.0906,3.0713,3.0668,3.0532,3.0352,3.0352,3.0193,3.0114,3.0227,3.0193,3.0114,3.0216,3.0306,3.0352,3.0306,3.0261,3.0216,3.0216,3.0216,3.0261,3.0261,3.0261,3.0261,3.0261,3.0487,3.0724,3.0972,3.1184,3.1229,3.0972,3.0769,3.0532,3.0261,3.0261,3.0261,3.0261,3.0011,2.9886,2.9886,2.9646,2.9393,2.9128,2.8943,2.8896,2.9082,2.9312,2.9588,2.984,3.0091,3.017,3.0216,3.0216,3.0091,3.2026,3.2274,3.2457,3.3884,3.3746,3.4109,3.7245,3.7903,3.9299,4.4309,4.4612,4.4815,4.7334,4.8142,4.837,4.837,4.8244,4.8133,4.8049,4.8091,4.8133,4.8049,4.8244,4.837,4.837,4.8313,4.7946,4.7088,4.5974,4.4453,4.244,4.0473,3.8947,3.7835,3.6868,3.6405,3.6405,3.6405,3.6405,3.6405,3.6405,3.6405,3.6405,3.6405,3.6405,3.6358,3.5847,3.562,3.5572,3.503,3.4775,3.4739,3.4318,3.4342,3.445,3.3527,3.3107,3.2847,3.2114,3.1696,3.1439,3.1217,3.1261,3.1395,3.1395,3.135,3.1217,3.0859,3.1038,3.1217,3.0859,3.1071,3.1306,3.1116,3.0802,3.0442,3.0261,3.0544,3.0781,3.0532,3.0521,3.0578,3.0793,3.0883,3.0972,3.1217,3.1261,3.1172,3.0724,3.0826,3.0826,3.0532,3.0521,3.0521,3.0521,3.0148,2.9886,2.9886,2.9646,2.9393,2.9128,2.9082,2.8989,2.885,2.9082,2.9312,2.9588,2.9829,3.0057,3.0216,3.0216,3.017,3.2063,3.2612,3.3081,3.434,3.4663,3.5135,3.7014,3.7576,3.8801,4.2589,4.3571,4.4474,4.7119,4.765,4.7794,4.824,4.8133,4.7964,4.7837,4.7922,4.7964,4.7837,4.8007,4.8175,4.8175,4.826,4.8145,4.7749,4.6857,4.5578,4.384,4.1764,3.9954,3.8381,3.7309,3.664,3.6405,3.6405,3.6405,3.6405,3.6405,3.6405,3.6405,3.6405,3.6405,3.6358,3.5847,3.5668,3.5764,3.5223,3.4824,3.457,3.4293,3.4161,3.403,3.3489,3.3284,3.3212,3.2522,3.2241,3.2143,3.1656,3.1661,3.1849,3.1705,3.1705,3.1661,3.135,3.1484,3.1617,3.135,3.1484,3.1617,3.135,3.1205,3.1038,3.0646,3.0871,3.105,3.0826,3.0769,3.0781,3.0826,3.0927,3.1062,3.1261,3.1306,3.1172,3.0826,3.0927,3.0883,3.0623,3.0724,3.0724,3.0623,3.051,3.0386,3.0239,3.0227,3.0,2.9508,2.968,2.9485,2.8803,2.8989,2.9174,2.9301,2.9691,2.9931,3.0057,3.017,3.0216,3.1787,3.2975,3.4234,3.5265,3.5818,3.624,3.6774,3.73,3.8254,4.039,4.2413,4.4478,4.6687,4.7058,4.7243,4.7901,4.7916,4.7794,4.7596,4.7752,4.781,4.7596,4.7752,4.7922,4.7922,4.7964,4.8091,4.8286,4.745,4.6313,4.4952,4.2947,4.09,3.8911,3.773,3.6922,3.6499,3.6452,3.6405,3.6405,3.6405,3.6405,3.6405,3.6405,3.6405,3.6358,3.5847,3.5764,3.5955,3.5318,3.4822,3.4456,3.4226,3.3867,3.3486,3.3258,3.3246,3.3305,3.2729,3.2656,3.2621,3.195,3.1937,3.2069,3.1925,3.1881,3.1925,3.1837,3.1881,3.1925,3.1849,3.1881,3.1881,3.1617,3.1749,3.1761,3.1163,3.1273,3.1407,3.1151,3.1107,3.1062,3.0758,3.0916,3.1107,3.135,3.135,3.1306,3.1062,3.1062,3.096,3.0724,3.0883,3.0927,3.0679,3.0871,3.0927,3.0679,3.0883,3.0703,3.0068,3.0408,3.0125,2.9071,2.9128,2.9128,2.9082,2.9554,2.9794,2.984,3.0045,3.0136,3.0423,3.2261,3.4234,3.5265,3.5194,3.5211,3.6231,3.6798,3.7406,3.8546,4.1083,4.3478,4.484,4.6137,4.694,4.686,4.7162,4.7396,4.7352,4.7396,4.7396,4.7337,4.751,4.7666,4.7666,4.788,4.8091,4.8286,4.745,4.6313,4.4952,4.2947,4.1037,3.9435,3.7917,3.7062,3.7015,3.6593,3.6405,3.6405,3.6405,3.6405,3.6405,3.6405,3.6405,3.6358,3.5847,3.5764,3.593,3.4915,3.4588,3.4617,3.3457,3.3523,3.412,3.3186,3.3138,3.3465,3.2932,3.2625,3.2399,3.2062,3.2245,3.2581,3.2581,3.2723,3.281,3.2431,3.2605,3.2822,3.2388,3.2605,3.2853,3.2581,3.2723,3.255,3.1285,3.1641,3.2125,3.1673,3.1629,3.1528,3.1261,3.1261,3.135,3.1617,3.1661,3.1528,3.1306,3.1261,3.1184,3.0972,3.0984,3.0984,3.0927,3.0984,3.0984,3.0927,3.0984,3.0826,3.0532,3.0578,3.0397,3.0034,2.9623,2.9312,2.9082,2.9174,2.9312,2.9542,2.9829,2.9931,3.092,3.2532,3.3971,3.5612,3.5366,3.5014,3.6153,3.629,3.6527,3.7788,3.9301,4.114,4.3637,4.456,4.5341,4.6607,4.6773,4.689,4.7249,4.7309,4.7309,4.7309,4.7396,4.7424,4.7424,4.7553,4.7767,4.8091,4.7737,4.6763,4.4996,4.3716,4.1954,3.9573,3.8484,3.7677,3.7121,3.6875,3.664,3.6405,3.6405,3.6405,3.6405,3.6405,3.6405,3.6358,3.6003,3.5734,3.5518,3.5048,3.4453,3.3863,3.3371,3.3334,3.3472,3.3146,3.3271,3.3557,3.3158,3.3039,3.2913,3.2399,3.2419,3.2711,3.2711,3.2766,3.2853,3.2822,3.2952,3.3038,3.2865,3.2952,3.3025,3.2754,3.2896,3.2865,3.195,3.2213,3.2463,3.2157,3.1893,3.1761,3.1893,3.1572,3.1439,3.1805,3.1749,3.1617,3.135,3.1439,3.1439,3.1184,3.1318,3.1318,3.1184,3.1318,3.1318,3.1184,3.1318,3.1217,3.0814,3.1071,3.0892,3.0216,2.9988,2.9715,2.9301,2.9462,2.9451,2.9312,2.9691,2.9886,3.1134,3.2418,3.3301,3.5313,3.5032,3.4615,3.573,3.5629,3.5663,3.6934,3.7665,3.8908,4.1753,4.2774,4.3816,4.5732,4.6181,4.6444,4.6995,4.7189,4.7309,4.7309,4.7309,4.7309,4.7309,4.7309,4.7482,4.788,4.788,4.7019,4.5039,4.4225,4.2591,3.9866,3.8951,3.8135,3.7294,3.7062,3.6734,3.6405,3.6405,3.6405,3.6405,3.6405,3.6329,3.6157,3.5899,3.5603,3.5226,3.4931,3.4198,3.3353,3.3337,3.3185,3.2995,3.3039,3.3289,3.3533,3.3174,3.3212,3.3301,3.2686,3.2636,3.2797,3.2797,3.2797,3.2853,3.3025,3.3124,3.3124,3.3124,3.3124,3.3038,3.2853,3.2939,3.2995,3.2649,3.2636,3.268,3.2519,3.2201,3.2069,3.2344,3.1937,3.1673,3.195,3.1849,3.1673,3.1439,3.1572,3.1617,3.1439,3.1572,3.1617,3.1439,3.1528,3.1528,3.1395,3.1496,3.135,3.1038,3.1395,3.1172,3.0306,3.0487,3.0216,2.9485,2.9691,2.9554,2.9035,2.9554,2.9794,3.0114,3.113,3.2245,3.3762,3.3707,3.3526,3.4585,3.4776,3.4926,3.5512,3.6459,3.7487,3.8456,4.101,4.306,4.3414,4.505,4.6294,4.6324,4.692,4.7309,4.7309,4.7309,4.7309,4.7309,4.7309,4.7381,4.7581,4.7624,4.6839,4.5102,4.3935,4.2465,4.0602,3.9029,3.8063,3.7763,3.6862,3.6405,3.6405,3.6405,3.6405,3.6405,3.6405,3.6081,3.5545,3.5326,3.5347,3.5374,3.4098,3.3682,3.3803,3.3059,3.3027,3.3424,3.2903,3.3064,3.3405,3.2903,3.2903,3.3075,3.2766,3.2853,3.3081,3.3081,3.3081,3.3068,3.3124,3.3124,3.3124,3.3124,3.3124,3.3124,3.3068,3.3081,3.3081,3.3081,3.2853,3.2711,3.2667,3.2667,3.2593,3.2431,3.2344,3.2257,3.2025,3.1994,3.1893,3.1717,3.1705,3.1705,3.1661,3.1705,3.1705,3.1661,3.1439,3.1439,3.1661,3.1273,3.1107,3.1261,3.1306,3.1071,3.0578,3.1261,3.0937,2.9485,2.9531,2.9255,2.885,2.9301,2.9531,3.0387,3.0994,3.1658,3.3512,3.3355,3.3024,3.4377,3.468,3.4731,3.4931,3.5869,3.6701,3.6799,3.8822,4.1082,4.2748,4.3986,4.5134,4.6162,4.689,4.7309,4.7309,4.7309,4.7309,4.7309,4.7309,4.7381,4.7581,4.6448,4.5209,4.3963,4.2308,4.0731,3.9353,3.8863,3.8368,3.7808,3.6862,3.6405,3.6405,3.6405,3.6405,3.6405,3.5994,3.5683,3.5458,3.471,3.4307,3.418,3.3883,3.3508,3.3127,3.3014,3.2965,3.2984,3.2971,3.2978,3.2984,3.2971,3.3025,3.3068,3.2982,3.3025,3.3124,3.3124,3.3124,3.3124,3.3124,3.3124,3.3124,3.3124,3.3124,3.3124,3.3124,3.3124,3.3124,3.3124,3.3025,3.2939,3.2939,3.281,3.2723,3.281,3.2605,3.2388,3.2463,3.2201,3.1994,3.1893,3.1761,3.1705,3.1705,3.1705,3.1705,3.1705,3.1617,3.1617,3.1705,3.154,3.1496,3.1528,3.1572,3.1484,3.1294,3.1572,3.0982,2.9485,2.9806,2.9623,2.8989,2.9174,2.9405,3.019,3.0468,3.089,3.275,3.2535,3.2307,3.3827,3.4462,3.468,3.468,3.5592,3.6339,3.6101,3.726,3.8962,4.1181,4.2869,4.4266,4.535,4.6554,4.7309,4.7309,4.7309,4.7309,4.7309,4.7309,4.7352,4.751,4.6082,4.4775,4.369,4.1795,4.0093,3.8647,3.8711,3.8562,3.805,3.7095,3.664,3.664,3.6465,3.6304,3.6069,3.5658,3.5295,3.4906,3.4223,3.3809,3.3651,3.3652,3.332,3.2853,3.3025,3.2982,3.2853,3.3025,3.2982,3.2853,3.3038,3.3124,3.3124,3.3124,3.3124,3.3124,3.3124,3.3124,3.3124,3.3124,3.3124,3.3124,3.3124,3.3124,3.3124,3.3124,3.3124,3.3124,3.3124,3.3124,3.3124,3.3124,3.2939,3.2896,3.3068,3.2822,3.2649,3.2667,3.2419,3.2157,3.2038,3.1893,3.1749,3.1717,3.1705,3.1705,3.1705,3.1617,3.1617,3.1705,3.154,3.1496,3.1572,3.1572,3.1484,3.135,3.1572,3.1071,2.976,3.0034,2.9852,2.922,2.9128,2.937,0.0,0.0,0.0,3.1296,3.1284,3.1289,3.2746,3.3884,3.4675,3.4655,3.5579,3.638,3.638,3.6405,3.693,3.8456,4.1573,4.3791,4.3834,4.5797,4.7251,4.7251,4.7266,4.7309,4.7309,4.7309,4.7309,4.7309,4.6636,4.5652,4.4322,4.2495,4.0623,3.8661,3.8602,3.8557,3.8557,3.7585,3.7108,3.7062,3.664,3.6069,3.5495,3.5483,3.4881,3.3897,3.3884,3.3872,3.3834,3.3294,3.3124,3.3124,3.3124,3.3124,3.3124,3.3124,3.3124,3.3124,3.3124,3.3124,3.3124,3.3124,3.3124,3.3124,3.3124,3.3124,3.3124,3.3124,3.3124,3.3124,3.3124,3.3124,3.3124,3.3124,3.3124,3.3124,3.3124,3.3124,3.3124,3.3124,3.3124,3.3124,3.3124,3.3124,3.3025,3.2754,3.2723,3.255,3.2069,3.2038,3.1937,3.1705,3.1705,3.1717,3.1705,3.1439,3.1439,3.1661,3.1285,3.1107,3.1306,3.1306,3.1116,3.0623,3.135,3.1205,3.0261,3.0216,2.9988,2.9531,2.9266,2.9416,2.9883,0.0,0.0,0.0,0.0,0.0,3.2201,3.3018,3.3646,3.4048,3.5002,3.5674,3.5559,3.6141,3.6709,3.7023,3.9455,4.1649,4.2725,4.4803,4.6211,4.6211,4.6873,4.7309,4.7309,4.7309,4.7309,4.7309,4.5308,4.3808,4.3109,4.0577,3.8889,3.8317,3.8181,3.8089,3.8089,3.7235,3.6815,3.6815,3.6546,3.6069,3.5483,3.5094,3.4427,3.3594,3.3383,3.3208,3.3021,3.3101,3.3124,3.3124,3.3124,3.3124,3.3124,3.3124,3.3124,3.3124,3.3124,3.3124,3.3124,3.3124,3.3124,3.3124,3.3124,3.3124,3.3124,3.3124,3.3124,3.3124,3.3124,3.3124,3.3124,3.3124,3.3124,3.3124,3.3124,3.3124,3.3124,3.3124,3.3124,3.3124,3.3124,3.3124,3.3068,3.2982,3.281,3.2624,3.2494,3.2388,3.2213,3.1937,3.1906,3.1849,3.1705,3.1617,3.1617,3.1705,3.1584,3.154,3.1572,3.1572,3.1528,3.1395,3.1617,3.1572,3.1294,3.0904,3.0578,3.0295,3.0216,3.017,3.0348,3.0143,2.9989,3.0611,0.0,0.0,3.1914,3.2842,3.3583,3.4123,3.5115,3.5696,3.5119,3.5361,3.5747,3.5819,3.7261,3.9137,4.1443,4.3785,4.5429,4.575,4.6682,4.7309,4.7309,4.7309,4.7189,4.692,4.52,4.3419,4.186,3.9885,3.8594,3.82,3.8167,3.8181,3.8181,3.7513,3.7095,3.6862,3.64,3.573,3.4869,3.44,3.3762,3.3051,3.2947,3.281,3.2593,3.281,3.2995,3.3081,3.2865,3.2952,3.3081,3.2982,3.2982,3.3124,3.3124,3.3124,3.3124,3.3124,3.3124,3.3124,3.3124,3.3124,3.3124,3.3124,3.3124,3.3124,3.3124,3.3124,3.3124,3.3124,3.3124,3.3124,3.3124,3.3124,3.3124,3.3124,3.3124,3.3124,3.3124,3.3124,3.3124,3.3124,3.2982,3.281,3.2711,3.2593,3.2376,3.2038,3.1994,3.1937,3.1705,3.1705,3.1705,3.1705,3.1705,3.1705,3.1705,3.1705,3.1705,3.1705,3.1705,3.1705,3.1705,3.1172,3.0758,3.0442,3.0532,3.0532,3.0782,3.0225,2.9735,3.0524,3.0365,0.0,3.1805,3.2893,3.3796,3.4412,3.5265,3.5617,3.4713,3.4395,3.4375,3.4831,3.5183,3.6555,3.9847,4.2593,4.4506,4.5174,4.627,4.7019,4.7121,4.7089,4.6864,4.6324,4.5436,4.3634,4.0745,3.9897,3.9029,3.8213,3.8408,3.8557,3.8512,3.8089,3.7585,3.7062,3.6256,3.5194,3.3986,3.3612,3.3069,3.2344,3.2593,3.255,3.2344,3.255,3.2766,3.2995,3.2605,3.2692,3.2995,3.2766,3.2853,3.3038,3.3038,3.3081,3.3081,3.3081,3.3124,3.3124,3.3124,3.3124,3.3124,3.3124,3.3124,3.3124,3.3124,3.3124,3.3124,3.3124,3.3124,3.3124,3.3124,3.3124,3.3124,3.3124,3.3124,3.3124,3.3124,3.3124,3.3124,3.3124,3.3124,3.3025,3.2766,3.2766,3.2593,3.2113,3.2081,3.1937,3.1761,3.1705,3.1705,3.1705,3.1705,3.1705,3.1705,3.1705,3.1705,3.1705,3.1705,3.1705,3.1705,3.1217,3.0758,3.0352,3.0578,3.0668,3.0922,3.0628,3.0365,3.013,3.0276,0.0,3.1411,3.1725,3.2164,3.3181,3.3194,3.3106,3.3357,3.3715,3.3865,3.3557,3.3903,3.5117,3.7537,4.0375,4.2076,4.1726,4.3772,4.5432,4.6018,4.5786,4.5811,4.6294,4.3804,4.1809,4.0674,3.9237,3.8304,3.7979,3.8181,3.8181,3.8037,3.7736,3.7307,3.6756,3.6025,3.5069,3.3986,3.349,3.2815,3.2081,3.2344,3.23,3.2081,3.2125,3.2288,3.2562,3.2593,3.2593,3.2562,3.268,3.2636,3.2562,3.2723,3.2766,3.2797,3.3025,3.3124,3.3124,3.3124,3.3124,3.3124,3.3124,3.3124,3.3124,3.3124,3.3124,3.3124,3.3124,3.3124,3.3124,3.3124,3.3124,3.3124,3.3124,3.3124,3.3124,3.3124,3.3124,3.3124,3.3124,3.3124,3.3068,3.3025,3.3025,3.2896,3.2593,3.2431,3.2213,3.1937,3.1805,3.1705,3.1705,3.1705,3.1705,3.1705,3.1705,3.1705,3.1705,3.1849,3.1937,3.1937,3.1673,3.1484,3.1395,3.1261,3.1172,3.1685,3.1144,3.0638,3.0368,3.0236,0.0,0.0,3.1198,3.1637,3.2466,3.2641,3.2566,3.2277,3.2466,3.2641,3.2641,3.2641,3.323,3.4908,3.769,3.9892,4.0781,4.255,4.3854,4.4319,4.4589,4.4901,4.5251,4.3524,4.1919,4.066,3.9839,3.8953,3.7946,3.8024,3.8011,3.79,3.7762,3.7413,3.6909,3.5839,3.4886,3.3961,3.3028,3.2337,3.1849,3.2081,3.2081,3.1849,3.195,3.2038,3.2069,3.2145,3.2288,3.24,3.2376,3.2388,3.2388,3.2519,3.2636,3.2711,3.2853,3.2982,3.3124,3.3124,3.3124,3.3124,3.3124,3.3124,3.3124,3.3124,3.3124,3.3124,3.3124,3.3124,3.3124,3.3124,3.3124,3.3124,3.3124,3.3124,3.3124,3.3124,3.3124,3.3124,3.3124,3.3124,3.3124,3.3124,3.3124,3.2995,3.2723,3.2593,3.2376,3.2025,3.1893,3.1805,3.1717,3.1705,3.1705,3.1705,3.1805,3.1849,3.1849,3.1937,3.1937,3.1849,3.1761,3.1761,3.1849,3.1617,3.1484,3.2395,3.1704,3.0934,3.0725,3.039,3.0193,0.0,0.0,0.0,3.1813,3.219,3.2164,3.1248,3.1173,3.1386,3.1838,3.1537,3.1637,3.2754,3.4986,3.7312,3.9548,4.0868,4.175,4.2123,4.32,4.3791,4.3593,4.3075,4.2044,4.0418,4.0173,3.9428,3.7946,3.79,3.79,3.79,3.79,3.7611,3.7095,3.5774,3.4778,3.397,3.2645,3.1937,3.1705,3.1849,3.1849,3.1705,3.1893,3.1849,3.1705,3.1749,3.1981,3.2257,3.2081,3.2125,3.2257,3.23,3.2431,3.2581,3.268,3.2896,3.3124,3.3124,3.3124,3.3124,3.3124,3.3124,3.3124,3.3124,3.3124,3.3124,3.3124,3.3124,3.3124,3.3124,3.3124,3.3124,3.3124,3.3124,3.3124,3.3124,3.3124,3.3124,3.3124,3.3124,3.3124,3.3124,3.3124,3.3025,3.2797,3.2723,3.255,3.2169,3.2167,3.2095,3.1906,3.1958,3.1982,3.1874,3.191,3.195,3.1994,3.2038,3.1994,3.1837,3.1837,3.1893,3.1937,3.1761,3.1705,3.2369,3.2131,3.1805,3.0866,3.0919,3.1097,3.0708,0.0,3.0721,3.0783,0.0,3.0131,2.9993,0.0,0.0,3.0783,3.0746,3.1085,3.2152,3.2592,3.336,3.4891,3.6923,3.8521,3.9369,4.1199,4.1999,4.11,4.0944,4.0461,3.9417,3.8607,3.8116,3.79,3.79,3.79,3.79,3.79,3.7611,3.7095,3.5968,3.4925,3.397,3.2867,3.2125,3.1705,3.1705,3.1705,3.1705,3.1705,3.1705,3.1705,3.1893,3.1893,3.1805,3.195,3.1893,3.1805,3.1981,3.2081,3.2157,3.255,3.2896,3.3124,3.3124,3.3124,3.3124,3.3124,3.3124,3.3124,3.3124,3.3124,3.3124,3.3124,3.3124,3.3124,3.3124,3.3124,3.3124,3.3124,3.3124,3.3124,3.3124,3.3124,3.3124,3.3124,3.3124,3.3124,3.3124,3.3124,3.3081,3.3081,3.2853,3.268,3.2624,3.2685,3.2698,3.2698,3.2965,3.2899,3.243,3.197,3.1805,3.1994,3.2213,3.2344,3.23,3.23,3.2125,3.1705,3.1705,3.1705,3.3558,3.3206,3.2604,3.2152,3.1712,3.1336,3.1122,3.0583,3.0143,3.0143,0.0,0.0,0.0,0.0,0.0,0.0,3.0344,3.0507,3.1587,3.1738,3.2432,3.4262,3.5583,3.7058,3.8787,3.9135,3.9578,4.0319,4.0181,3.9688,3.8765,3.8662,3.844,3.79,3.79,3.79,3.79,3.79,3.7625,3.7033,3.5994,3.5117,3.4287,3.2996,3.23,3.2069,3.1805,3.1705,3.1705,3.1705,3.1705,3.1705,3.1805,3.1749,3.1705,3.1805,3.1749,3.1705,3.1805,3.1893,3.2069,3.255,3.2766,3.2896,3.3038,3.2982,3.2896,3.3081,3.2982,3.2896,3.3081,3.3124,3.3124,3.3124,3.3124,3.3124,3.3124,3.3124,3.3124,3.3124,3.3124,3.3124,3.3124,3.3124,3.3124,3.3124,3.3124,3.3124,3.3124,3.3124,3.3124,3.3124,3.327,3.3327,3.3195,3.3391,3.3439,3.329,3.3291,3.3234,3.3131,3.2947,3.2814,3.2916,3.3187,3.3232,3.3097,3.2926,3.2665,3.2317,3.1894,3.1705,3.4951,3.4587,3.3916,3.342,3.2566,3.1738,3.1286,3.0457,2.9792,2.9792,2.9792,0.0,0.0,0.0,2.998,3.052,0.0,3.0118,3.1047,3.1298,3.2012,3.376,3.465,3.5804,3.7502,3.725,3.7572,3.8915,3.9068,3.8802,3.8064,3.8528,3.8549,3.79,3.79,3.79,3.79,3.79,3.7599,3.6998,3.61,3.5311,3.4528,3.3189,3.2519,3.2344,3.1893,3.1705,3.1705,3.1705,3.1705,3.1705,3.1705,3.1705,3.1705,3.1705,3.1705,3.1705,3.1705,3.1849,3.2081,3.2419,3.255,3.268,3.2896,3.2853,3.2766,3.2939,3.2896,3.2853,3.2939,3.3025,3.3124,3.3124,3.3124,3.3124,3.3124,3.3124,3.3124,3.3124,3.3124,3.3124,3.3124,3.3124,3.3124,3.3124,3.3124,3.3124,3.3124,3.3124,3.3174,3.3282,3.3658,3.3871,3.3831,3.414,3.4247,3.4056,3.3853,3.3722,3.3803,3.3657,3.363,3.3722,3.3906,3.3906,3.3722,3.3572,3.3408,3.3121,3.2196,3.1749,3.6355,3.6329,3.5915,3.4274,3.3445,3.2604,3.1009,3.0206,2.9792,2.9792,2.9792,2.9792,2.9792,2.9792,2.998,3.052,3.0156,0.0,0.0,3.1072,3.1612,3.2202,3.3447,3.4286,3.4425,3.5696,3.6375,3.5986,3.7074,3.7568,3.7088,3.7619,3.7946,3.79,3.79,3.79,3.79,3.79,3.7599,3.6998,3.6397,3.5561,3.4571,3.348,3.2754,3.2344,3.1893,3.1705,3.1705,3.1705,3.1705,3.1705,3.1705,3.1705,3.1705,3.1705,3.1705,3.1705,3.1705,3.1849,3.1994,3.2038,3.2213,3.2431,3.2636,3.2711,3.2711,3.2711,3.2896,3.3025,3.2766,3.2896,3.3124,3.3124,3.3124,3.3124,3.3124,3.3124,3.3124,3.3124,3.3124,3.3124,3.3124,3.3124,3.3124,3.3124,3.3124,3.3124,3.3124,3.3124,3.3282,3.3822,3.3884,3.4123,3.4605,3.4986,3.5159,3.5138,3.4878,3.4644,3.4396,3.3898,3.3722,3.3952,3.401,3.401,3.401,3.4226,3.4202,3.3945,3.2601,3.1893,3.7249,3.7186,3.6772,3.6219,3.4839,3.347,3.2918,3.1235,2.9792,2.9792,2.9792,2.9792,2.9792,2.9792,2.9854,3.0043,2.9917,2.998,0.0,3.1373,3.2139,3.2717,3.3205,3.3777,3.4508,3.4479,3.464,3.5054,3.5546,3.5705,3.5425,3.6597,3.7312,3.7312,3.7691,3.79,3.79,3.79,3.7403,3.641,3.6201,3.5526,3.4432,3.376,3.3386,3.3215,3.2463,3.2169,3.2125,3.1849,3.1705,3.1705,3.1705,3.1705,3.1705,3.1705,3.1705,3.1705,3.1705,3.1749,3.1805,3.195,3.2081,3.2169,3.2431,3.2388,3.2288,3.2431,3.2431,3.2376,3.2475,3.268,3.2853,3.2853,3.2982,3.3124,3.3124,3.3124,3.3124,3.3124,3.3124,3.3124,3.3124,3.3124,3.3124,3.3124,3.3124,3.3206,3.3571,3.3621,3.3834,3.4387,3.4731,3.5019,3.5207,3.5559,3.5662,3.5464,3.5197,3.5099,3.5195,3.4833,3.4688,3.4783,3.4973,3.5067,3.5067,3.4957,3.4851,3.4755,3.3971,3.3367,3.8417,3.8354,3.7977,3.7575,3.6257,3.4914,3.4324,3.2667,3.1198,3.0997,3.0959,3.0834,3.0432,3.0369,3.0231,2.9854,2.9792,2.998,0.0,3.121,3.1926,3.2679,3.3131,3.3571,3.4085,3.3702,3.3614,3.4098,3.4468,3.4594,3.4289,3.6002,3.6907,3.6684,3.7482,3.79,3.79,3.79,3.7299,3.6109,3.6109,3.5495,3.4397,3.3924,3.3713,3.3628,3.2766,3.24,3.2344,3.1893,3.1705,3.1705,3.1705,3.1705,3.1705,3.1705,3.1705,3.1705,3.1705,3.1705,3.1705,3.1849,3.1893,3.1937,3.2169,3.2213,3.2169,3.2356,3.2344,3.2288,3.2344,3.2519,3.2593,3.268,3.2853,3.2982,3.3081,3.3124,3.3124,3.3124,3.3124,3.3144,3.3332,3.337,3.337,3.337,3.337,3.3571,3.4123,3.4198,3.4399,3.4906,3.5282,3.5583,3.5818,3.6028,3.6051,3.5764,3.5656,3.5656,3.5716,3.5572,3.555,3.5782,3.5755,3.5863,3.6036,3.5742,3.5609,3.5631,3.5294,3.4854]}]]